[[{"header":{"parameterUnit":"m.s-1","parameterCategory":1,"la1":31.0,"la2":29.5877,"lo1":-88.7671,"lo2":-86.6584,"dy":0.0162,"dx":0.0185,"nx":115,"ny":88,"refTime":"2024-07-02T18:00:00:Z","depth":0,"parameterNumber":2,"parameterNumberName":"U-component_of_WINDS"},"data":[0.0,0.0,0.0,0.0,0.0,0.0,0.0,0.0,0.0,0.0,0.0,0.0,0.0,0.0,0.0,0.0,0.0,0.0,0.0,0.0,0.0,0.0,0.0,0.0,0.0,0.0,0.0,0.0,0.0,0.0,0.0,0.0,0.0,0.0,0.0,0.0,0.0,0.0,0.0,0.0,0.0,0.0,0.0,0.0,0.0,0.0,0.0,0.0,0.0,0.0,0.0,0.0,0.0,0.0,0.0,0.0,0.0,0.0,0.0,0.0,0.0,0.0,0.0,0.0,0.0,0.0,0.0,0.0,0.0,0.0,0.0,0.0,0.0,0.0,0.0,0.0,0.0,0.0,0.0,0.0,0.0,0.0,0.0,0.0,0.0,0.0,0.0,0.0,0.0,0.0,0.0,0.0,0.0,0.0,0.0,0.0,0.0,0.0,0.0,0.0,0.0,0.0,0.0,0.0,0.0,0.0,0.0,0.0,0.0,0.0,0.0,0.0,0.0,0.0,0.0,0.0,0.0,0.0,0.0,0.0,0.0,0.0,0.0,0.0,0.0,0.0,0.0,0.0,0.0,0.0,0.0,0.0,0.0,0.0,0.0,0.0,0.0,0.0,0.0,0.0,0.0,0.0,0.0,0.0,0.0,0.0,0.0,0.0,0.0,0.0,0.0,0.0,0.0,0.0,0.0,0.0,0.0,0.0,0.0,0.0,0.0,0.0,0.0,0.0,0.0,0.0,0.0,0.0,0.0,0.0,0.0,0.0,0.0,0.0,0.0,0.0,0.0,0.0,0.0,0.0,0.0,0.0,0.0,0.0,0.0,0.0,0.0,0.0,0.0,0.0,0.0,0.0,0.0,0.0,0.0,0.0,0.0,0.0,0.0,0.0,0.0,0.0,0.0,0.0,0.0,0.0,0.0,0.0,0.0,0.0,0.0,0.0,0.0,0.0,0.0,0.0,0.0,0.0,0.0,0.0,0.0,0.0,0.0,0.0,0.0,0.0,0.0,0.0,0.0,0.0,0.0,0.0,0.0,0.0,0.0,0.0,0.0,0.0,0.0,0.0,0.0,0.0,0.0,0.0,0.0,0.0,0.0,0.0,0.0,0.0,0.0,0.0,0.0,0.0,0.0,0.0,0.0,0.0,0.0,0.0,0.0,0.0,0.0,0.0,0.0,0.0,0.0,0.0,0.0,0.0,0.0,0.0,0.0,0.0,0.0,0.0,0.0,0.0,0.0,0.0,0.0,0.0,0.0,0.0,0.0,0.0,0.0,0.0,0.0,0.0,0.0,0.0,0.0,0.0,0.0,0.0,0.0,0.0,0.0,0.0,0.0,0.0,0.0,0.0,0.0,0.0,0.0,0.0,0.0,0.0,0.0,0.0,0.0,0.0,0.0,0.0,0.0,0.0,0.0,0.0,0.0,0.0,0.0,0.0,0.0,0.0,0.0,0.0,0.0,0.0,0.0,0.0,0.0,0.0,0.0,0.0,0.0,0.0,0.0,0.0,0.0,0.0,0.0,0.0,0.0,0.0,0.0,0.0,0.0,0.0,0.0,0.0,0.0,0.0,0.0,0.0,0.0,0.0,0.0,0.0,0.0,0.0,0.0,0.0,0.0,0.0,0.0,0.0,0.0,0.0,0.0,0.0,0.0,0.0,0.0,0.0,0.0,0.0,0.0,0.0,0.0,0.0,0.0,0.0,0.0,0.0,0.0,0.0,0.0,0.0,0.0,0.0,0.0,0.0,0.0,0.0,0.0,0.0,0.0,0.0,0.0,0.0,0.0,0.0,0.0,0.0,0.0,0.0,0.0,0.0,0.0,0.0,0.0,0.0,0.0,0.0,0.0,0.0,0.0,0.0,0.0,0.0,0.0,0.0,0.0,0.0,0.0,0.0,0.0,0.0,0.0,0.0,0.0,0.0,0.0,0.0,0.0,0.0,0.0,0.0,0.0,0.0,0.0,0.0,0.0,0.0,0.0,0.0,0.0,0.0,0.0,0.0,0.0,0.0,0.0,0.0,0.0,0.0,0.0,0.0,0.0,0.0,0.0,0.0,0.0,0.0,0.0,0.0,0.0,0.0,0.0,0.0,0.0,0.0,0.0,0.0,0.0,0.0,0.0,0.0,0.0,0.0,0.0,0.0,0.0,0.0,0.0,0.0,0.0,0.0,0.0,0.0,0.0,0.0,0.0,0.0,0.0,0.0,0.0,0.0,0.0,0.0,0.0,0.0,0.0,0.0,0.0,0.0,0.0,0.0,0.0,0.0,0.0,0.0,0.0,0.0,0.0,0.0,0.0,0.0,0.0,0.0,0.0,0.0,0.0,0.0,0.0,0.0,0.0,0.0,0.0,0.0,0.0,0.0,0.0,0.0,0.0,0.0,0.0,0.0,0.0,0.0,0.0,0.0,0.0,0.0,0.0,0.0,0.0,0.0,0.0,0.0,0.0,0.0,0.0,0.0,0.0,0.0,0.0,0.0,0.0,0.0,0.0,0.0,0.0,0.0,0.0,0.0,0.0,0.0,0.0,0.0,0.0,0.0,0.0,0.0,0.0,0.0,0.0,0.0,0.0,0.0,0.0,0.0,0.0,0.0,0.0,0.0,0.0,0.0,0.0,0.0,0.0,0.0,0.0,0.0,0.0,0.0,0.0,0.0,0.0,0.0,0.0,0.0,0.0,0.0,0.0,0.0,0.0,0.0,0.0,0.0,0.0,0.0,0.0,0.0,0.0,0.0,0.0,0.0,0.0,0.0,0.0,0.0,0.0,0.0,0.0,0.0,0.0,0.0,0.0,0.0,0.0,0.0,0.0,0.0,0.0,0.0,0.0,0.0,0.0,0.0,0.0,0.0,0.0,0.0,0.0,0.0,0.0,0.0,0.0,0.0,0.0,0.0,0.0,0.0,0.0,0.0,0.0,0.0,0.0,0.0,0.0,0.0,0.0,0.0,0.0,0.0,0.0,0.0,0.0,0.0,0.0,0.0,0.0,0.0,0.0,0.0,0.0,0.0,0.0,0.0,0.0,0.0,0.0,0.0,0.0,0.0,0.0,0.0,0.0,0.0,0.0,0.0,0.0,0.0,0.0,0.0,0.0,0.0,0.0,0.0,0.0,0.0,0.0,0.0,0.0,0.0,0.0,0.0,0.0,0.0,0.0,0.0,0.0,0.0,0.0,0.0,0.0,0.0,0.0,0.0,0.0,0.0,0.0,0.0,0.0,0.0,0.0,0.0,0.0,0.0,0.0,0.0,0.0,0.0,0.0,0.0,0.0,0.0,0.0,0.0,0.0,0.0,0.0,0.0,0.0,0.0,0.0,0.0,0.0,0.0,0.0,0.0,0.0,0.0,0.0,0.0,0.0,0.0,0.0,0.0,0.0,0.0,0.0,0.0,0.0,0.0,0.0,0.0,0.0,0.0,0.0,0.0,0.0,0.0,0.0,0.0,0.0,0.0,0.0,0.0,0.0,0.0,0.0,0.0,0.0,0.0,0.0,0.0,0.0,0.0,0.0,0.0,0.0,0.0,0.0,0.0,0.0,0.0,0.0,0.0,0.0,0.0,0.0,0.0,0.0,0.0,0.0,0.0,0.0,0.0,0.0,0.0,0.0,0.0,0.0,0.0,0.0,0.0,0.0,0.0,0.0,0.0,0.0,0.0,0.0,0.0,0.0,0.0,0.0,0.0,0.0,0.0,0.0,0.0,0.0,0.0,0.0,0.0,0.0,0.0,0.0,0.0,0.0,0.0,0.0,0.0,0.0,0.0,0.0,0.0,0.0,0.0,0.0,0.0,0.0,0.0,0.0,0.0,0.0,0.0,0.0,0.0,0.0,0.0,0.0,0.0,0.0,0.0,0.0,0.0,0.0,0.0,0.0,0.0,0.0,0.0,0.0,0.0,0.0,0.0,0.0,0.0,0.0,0.0,0.0,0.0,0.0,0.0,0.0,0.0,0.0,0.0,0.0,0.0,0.0,0.0,0.0,0.0,0.0,0.0,0.0,0.0,0.0,0.0,0.0,0.0,0.0,0.0,0.0,0.0,0.0,0.0,0.0,0.0,0.0,0.0,0.0,0.0,0.0,0.0,0.0,0.0,0.0,0.0,0.0,0.0,0.0,0.0,0.0,0.0,0.0,0.0,0.0,0.0,0.0,0.0,0.0,0.0,0.0,0.0,0.0,0.0,0.0,0.0,0.0,0.0,0.0,0.0,0.0,0.0,0.0,0.0,0.0,0.0,0.0,0.0,0.0,0.0,0.0,0.0,0.0,0.0,0.0,0.0,-1.1466,0.0,0.0,0.0,0.0,0.0,0.0,0.0,0.0,0.0,0.0,0.0,0.0,0.0,0.0,0.0,0.0,0.0,0.0,0.0,0.0,0.0,0.0,0.0,0.0,0.0,0.0,0.0,0.0,0.0,0.0,0.0,0.0,0.0,0.0,0.0,0.0,0.0,0.0,0.0,0.0,0.0,0.0,0.0,0.0,0.0,0.0,0.0,0.0,0.0,0.0,0.0,0.0,0.0,0.0,0.0,0.0,0.0,0.0,0.0,0.0,0.0,0.0,0.0,0.0,0.0,0.0,0.0,0.0,0.0,0.0,0.0,0.0,0.0,0.0,0.0,0.0,0.0,0.0,0.0,0.0,0.0,0.0,0.0,0.0,0.0,0.0,0.0,0.0,0.0,0.0,0.0,0.0,0.0,0.0,0.0,0.0,0.0,0.0,0.0,0.0,0.0,0.0,0.0,0.0,0.0,0.0,0.0,0.0,0.0,0.0,-1.4741,-1.4403,-1.324,-1.2451,-1.2022,0.0,0.0,0.0,0.0,0.0,0.0,0.0,0.0,0.0,0.0,0.0,0.0,0.0,0.0,0.0,0.0,0.0,0.0,0.0,0.0,0.0,0.0,0.0,0.0,0.0,0.0,0.0,0.0,0.0,0.0,0.0,0.0,0.0,0.0,0.0,0.0,0.0,0.0,0.0,0.0,0.0,0.0,0.0,0.0,0.0,0.0,0.0,0.0,0.0,0.0,0.0,0.0,0.0,0.0,0.0,0.0,0.0,0.0,0.0,0.0,0.0,0.0,0.0,0.0,0.0,0.0,0.0,0.0,0.0,0.0,0.0,0.0,0.0,0.0,0.0,0.0,0.0,0.0,0.0,0.0,0.0,0.0,0.0,0.0,0.0,0.0,0.0,0.0,0.0,0.0,0.0,0.0,0.0,0.0,0.0,0.0,0.0,0.0,0.0,0.0,0.0,0.0,0.0,0.0,0.0,0.0,0.0,0.0,0.0,0.0,0.0,0.0,-1.4134,-1.328,-1.3122,0.0,0.0,0.0,0.0,0.0,0.0,0.0,0.0,0.0,0.0,0.0,0.0,0.0,0.0,0.0,0.0,0.0,0.0,0.0,0.0,0.0,0.0,0.0,0.0,0.0,0.0,0.0,0.0,0.0,0.0,0.0,0.0,0.0,0.0,0.0,0.0,0.0,0.0,0.0,0.0,0.0,0.0,0.0,0.0,0.0,0.0,0.0,0.0,0.0,0.0,0.0,0.0,0.0,0.0,0.0,0.0,0.0,0.0,0.0,0.0,0.0,0.0,0.0,0.0,0.0,0.0,0.0,0.0,0.0,0.0,0.0,0.0,0.0,0.0,0.0,0.0,0.0,0.0,0.0,0.0,0.0,0.0,0.0,0.0,0.0,0.0,0.0,0.0,0.0,0.0,0.0,0.0,0.0,0.0,0.0,0.0,0.0,0.0,0.0,0.0,0.0,0.0,0.0,0.0,0.0,0.0,0.0,0.0,0.0,0.0,-1.5503,-1.7212,-1.6394,0.0,-1.5015,0.0,0.0,0.0,0.0,0.0,0.0,0.0,0.0,0.0,0.0,0.0,0.0,0.0,0.0,0.0,0.0,0.0,0.0,0.0,0.0,0.0,0.0,0.0,0.0,0.0,0.0,0.0,0.0,0.0,0.0,0.0,0.0,0.0,0.0,0.0,0.0,0.0,0.0,0.0,0.0,0.0,0.0,0.0,0.0,0.0,0.0,0.0,0.0,0.0,0.0,0.0,0.0,0.0,0.0,0.0,0.0,0.0,0.0,0.0,0.0,0.0,0.0,0.0,0.0,0.0,0.0,0.0,0.0,0.0,0.0,0.0,0.0,0.0,0.0,0.0,0.0,0.0,0.0,0.0,0.0,0.0,0.0,0.0,0.0,0.0,0.0,0.0,0.0,0.0,0.0,0.0,0.0,0.0,0.0,0.0,0.0,0.0,0.0,0.0,0.0,0.0,0.0,0.0,0.0,0.0,0.0,0.0,0.0,0.0,0.0,-1.6455,-1.7308,-1.6049,-1.5258,0.0,0.0,0.0,0.0,0.0,0.0,0.0,0.0,0.0,0.0,0.0,0.0,0.0,0.0,0.0,0.0,0.0,0.0,0.0,0.0,0.0,0.0,0.0,0.0,0.0,0.0,0.0,0.0,0.0,0.0,0.0,0.0,0.0,0.0,0.0,0.0,0.0,0.0,0.0,0.0,0.0,0.0,0.0,0.0,0.0,0.0,0.0,0.0,0.0,0.0,0.0,0.0,0.0,0.0,0.0,0.0,0.0,0.0,0.0,0.0,0.0,0.0,0.0,0.0,0.0,0.0,0.0,0.0,0.0,0.0,0.0,0.0,0.0,0.0,0.0,0.0,0.0,0.0,0.0,0.0,0.0,0.0,0.0,0.0,0.0,0.0,0.0,0.0,0.0,0.0,0.0,0.0,0.0,0.0,0.0,0.0,0.0,0.0,0.0,0.0,0.0,0.0,0.0,0.0,0.0,0.0,0.0,0.0,0.0,0.0,-1.667,0.0,-1.7763,-1.6735,-1.5743,-1.4989,0.0,0.0,0.0,0.0,0.0,0.0,0.0,0.0,0.0,0.0,0.0,0.0,0.0,0.0,0.0,0.0,0.0,0.0,0.0,0.0,0.0,0.0,0.0,0.0,0.0,0.0,0.0,0.0,0.0,0.0,0.0,0.0,0.0,0.0,0.0,0.0,0.0,0.0,0.0,0.0,0.0,0.0,0.0,0.0,0.0,0.0,0.0,0.0,0.0,0.0,0.0,0.0,0.0,0.0,0.0,0.0,0.0,0.0,0.0,0.0,0.0,0.0,0.0,0.0,0.0,0.0,0.0,0.0,0.0,0.0,0.0,0.0,0.0,0.0,0.0,0.0,0.0,0.0,0.0,0.0,0.0,0.0,0.0,0.0,0.0,0.0,0.0,0.0,0.0,0.0,0.0,0.0,0.0,0.0,0.0,0.0,0.0,0.0,0.0,0.0,0.0,0.0,0.0,0.0,0.0,0.0,0.0,0.0,0.0,-1.7754,-1.7728,-1.9437,-1.9532,-1.8103,0.0,0.0,0.0,0.0,0.0,0.0,0.0,0.0,0.0,0.0,0.0,0.0,0.0,0.0,0.0,0.0,0.0,0.0,0.0,0.0,0.0,0.0,0.0,0.0,0.0,0.0,0.0,0.0,0.0,0.0,0.0,0.0,0.0,0.0,0.0,0.0,0.0,0.0,0.0,0.0,0.0,0.0,0.0,0.0,0.0,0.0,0.0,0.0,0.0,0.0,0.0,0.0,0.0,0.0,0.0,0.0,0.0,0.0,0.0,0.0,0.0,0.0,0.0,0.0,0.0,0.0,0.0,0.0,0.0,0.0,0.0,0.0,0.0,0.0,0.0,0.0,0.0,0.0,0.0,0.0,0.0,0.0,0.0,0.0,0.0,0.0,0.0,0.0,0.0,0.0,0.0,0.0,0.0,0.0,0.0,0.0,0.0,0.0,0.0,0.0,0.0,0.0,0.0,0.0,0.0,0.0,0.0,0.0,0.0,-1.6312,-1.6743,-1.8345,-2.1018,-1.8161,-1.6455,0.0,0.0,0.0,0.0,0.0,0.0,0.0,0.0,0.0,0.0,0.0,0.0,0.0,0.0,0.0,0.0,0.0,0.0,0.0,0.0,0.0,0.0,0.0,0.0,0.0,0.0,0.0,0.0,0.0,0.0,0.0,0.0,0.0,0.0,0.0,0.0,0.0,0.0,0.0,0.0,0.0,0.0,0.0,0.0,0.0,0.0,0.0,0.0,0.0,0.0,0.0,0.0,0.0,0.0,0.0,0.0,0.0,0.0,0.0,0.0,0.0,0.0,0.0,0.0,0.0,0.0,0.0,0.0,0.0,0.0,0.0,0.0,0.0,0.0,0.0,0.0,0.0,0.0,0.0,0.0,0.0,0.0,0.0,0.0,0.0,0.0,0.0,0.0,0.0,0.0,0.0,0.0,0.0,0.0,0.0,0.0,0.0,0.0,0.0,0.0,0.0,0.0,0.0,0.0,0.0,0.0,0.0,0.0,0.0,-1.6152,0.0,-1.9593,0.0,-1.8037,-1.6036,0.0,0.0,0.0,0.0,0.0,0.0,0.0,0.0,0.0,0.0,0.0,0.0,0.0,0.0,0.0,0.0,0.0,0.0,0.0,0.0,0.0,0.0,0.0,0.0,0.0,0.0,0.0,0.0,0.0,0.0,0.0,0.0,0.0,0.0,0.0,0.0,0.0,0.0,0.0,0.0,0.0,0.0,0.0,0.0,0.0,0.0,0.0,0.0,0.0,0.0,0.0,0.0,0.0,0.0,0.0,0.0,0.0,0.0,0.0,0.0,0.0,0.0,0.0,0.0,0.0,0.0,0.0,0.0,0.0,0.0,0.0,0.0,0.0,0.0,0.0,0.0,0.0,0.0,0.0,0.0,0.0,0.0,0.0,0.0,0.0,0.0,0.0,0.0,0.0,0.0,0.0,0.0,0.0,0.0,0.0,0.0,0.0,0.0,0.0,0.0,0.0,0.0,0.0,0.0,0.0,0.0,0.0,0.0,-1.6171,-1.9378,-2.1242,-2.1342,-1.9733,-1.9455,-1.7175,0.0,0.0,0.0,0.0,0.0,0.0,0.0,0.0,0.0,0.0,0.0,0.0,0.0,0.0,0.0,0.0,0.0,0.0,0.0,0.0,0.0,0.0,0.0,0.0,0.0,0.0,0.0,0.0,0.0,0.0,0.0,0.0,0.0,0.0,0.0,0.0,0.0,0.0,0.0,0.0,0.0,0.0,0.0,0.0,0.0,0.0,0.0,0.0,0.0,0.0,0.0,0.0,0.0,0.0,0.0,0.0,0.0,0.0,0.0,0.0,0.0,0.0,0.0,0.0,0.0,0.0,0.0,0.0,0.0,0.0,0.0,0.0,0.0,0.0,0.0,0.0,0.0,0.0,0.0,0.0,0.0,0.0,0.0,0.0,0.0,0.0,0.0,0.0,0.0,0.0,0.0,0.0,0.0,0.0,0.0,0.0,0.0,0.0,0.0,0.0,0.0,0.0,0.0,0.0,0.0,0.0,0.0,0.0,0.0,-1.7764,-1.9613,-2.0834,-2.1197,-1.8591,-1.6905,0.0,0.0,0.0,0.0,0.0,0.0,0.0,0.0,0.0,0.0,0.0,0.0,0.0,0.0,0.0,0.0,0.0,0.0,0.0,0.0,0.0,0.0,0.0,0.0,0.0,0.0,0.0,0.0,0.0,0.0,0.0,0.0,0.0,0.0,0.0,0.0,0.0,0.0,0.0,0.0,0.0,0.0,0.0,0.0,0.0,0.0,0.0,0.0,0.0,0.0,0.0,0.0,0.0,0.0,0.0,0.0,0.0,0.0,0.0,0.0,0.0,0.0,0.0,0.0,0.0,0.0,0.0,0.0,0.0,0.0,0.0,0.0,0.0,0.0,0.0,0.0,0.0,0.0,0.0,0.0,0.0,0.0,0.0,0.0,0.0,0.0,0.0,0.0,0.0,0.0,0.0,0.0,0.0,0.0,0.0,0.0,0.0,0.0,0.0,0.0,0.0,0.0,0.0,0.0,0.0,0.0,0.0,0.0,0.0,-1.9342,-2.0852,-2.1827,-2.2116,-1.9301,-1.7695,-1.7444,0.0,0.0,0.0,0.0,0.0,0.0,0.0,0.0,0.0,0.0,0.0,0.0,0.0,0.0,0.0,0.0,0.0,0.0,0.0,0.0,0.0,0.0,0.0,0.0,0.0,0.0,0.0,0.0,0.0,0.0,0.0,0.0,0.0,0.0,0.0,0.0,0.0,0.0,0.0,0.0,0.0,0.0,0.0,0.0,0.0,0.0,0.0,0.0,0.0,0.0,0.0,0.0,0.0,0.0,0.0,0.0,0.0,0.0,0.0,0.0,0.0,0.0,0.0,0.0,0.0,0.0,0.0,0.0,0.0,0.0,0.0,0.0,0.0,0.0,0.0,0.0,0.0,0.0,0.0,0.0,0.0,0.0,0.0,0.0,0.0,0.0,0.0,0.0,0.0,0.0,0.0,0.0,0.0,0.0,0.0,0.0,0.0,0.0,0.0,0.0,0.0,0.0,0.0,0.0,0.0,0.0,0.0,0.0,-2.3229,-2.4411,-2.4164,-2.2496,-2.1456,-1.9465,0.0,0.0,0.0,0.0,0.0,0.0,0.0,0.0,0.0,0.0,0.0,0.0,0.0,0.0,0.0,0.0,0.0,0.0,0.0,0.0,0.0,0.0,0.0,0.0,0.0,0.0,0.0,0.0,0.0,0.0,0.0,0.0,0.0,0.0,0.0,0.0,0.0,0.0,0.0,0.0,0.0,0.0,0.0,0.0,0.0,0.0,0.0,0.0,0.0,0.0,0.0,0.0,0.0,0.0,0.0,0.0,0.0,0.0,0.0,0.0,0.0,0.0,0.0,0.0,0.0,0.0,0.0,0.0,0.0,0.0,0.0,0.0,0.0,0.0,0.0,0.0,0.0,0.0,0.0,0.0,0.0,0.0,0.0,0.0,0.0,0.0,0.0,0.0,0.0,0.0,0.0,0.0,0.0,0.0,0.0,0.0,0.0,0.0,0.0,0.0,0.0,0.0,0.0,0.0,0.0,0.0,0.0,0.0,0.0,-2.3907,-2.5494,-2.5876,-2.4936,-2.3398,-2.1674,0.0,0.0,0.0,0.0,0.0,0.0,0.0,0.0,0.0,0.0,0.0,0.0,0.0,0.0,0.0,0.0,0.0,0.0,0.0,0.0,0.0,0.0,0.0,0.0,0.0,0.0,0.0,0.0,0.0,0.0,0.0,0.0,0.0,0.0,0.0,0.0,0.0,0.0,0.0,0.0,0.0,0.0,0.0,0.0,0.0,0.0,0.0,0.0,0.0,0.0,0.0,0.0,0.0,0.0,0.0,0.0,0.0,0.0,0.0,0.0,0.0,0.0,0.0,0.0,0.0,0.0,0.0,0.0,0.0,0.0,0.0,0.0,0.0,0.0,0.0,0.0,0.0,0.0,0.0,0.0,0.0,0.0,0.0,0.0,0.0,0.0,0.0,0.0,0.0,0.0,0.0,0.0,0.0,0.0,0.0,0.0,0.0,0.0,0.0,0.0,0.0,0.0,0.0,0.0,0.0,0.0,0.0,0.0,-2.3293,-2.5271,-2.6574,-2.708,-2.6776,-2.5138,-2.3188,0.0,0.0,0.0,0.0,0.0,0.0,0.0,0.0,0.0,0.0,0.0,0.0,0.0,0.0,0.0,0.0,0.0,0.0,0.0,0.0,0.0,0.0,0.0,0.0,0.0,0.0,0.0,0.0,0.0,0.0,0.0,0.0,0.0,0.0,0.0,0.0,0.0,0.0,0.0,0.0,0.0,0.0,0.0,0.0,0.0,0.0,0.0,0.0,0.0,0.0,0.0,0.0,0.0,0.0,0.0,0.0,0.0,0.0,0.0,0.0,0.0,0.0,0.0,0.0,0.0,0.0,0.0,0.0,0.0,0.0,0.0,0.0,0.0,0.0,0.0,0.0,0.0,0.0,0.0,0.0,0.0,0.0,0.0,0.0,0.0,0.0,0.0,0.0,0.0,0.0,0.0,0.0,0.0,0.0,0.0,0.0,0.0,0.0,0.0,0.0,0.0,0.0,0.0,0.0,0.0,0.0,0.0,0.0,-2.4861,-2.6968,-2.7609,-2.7955,-2.8069,-2.6609,-2.4376,0.0,0.0,0.0,0.0,0.0,0.0,0.0,0.0,0.0,0.0,0.0,0.0,0.0,0.0,0.0,0.0,0.0,0.0,0.0,0.0,0.0,0.0,0.0,0.0,0.0,0.0,0.0,0.0,0.0,0.0,0.0,0.0,0.0,0.0,0.0,0.0,0.0,0.0,0.0,0.0,0.0,0.0,0.0,0.0,0.0,0.0,0.0,0.0,0.0,0.0,0.0,0.0,0.0,0.0,0.0,0.0,0.0,0.0,0.0,0.0,0.0,0.0,0.0,0.0,0.0,0.0,0.0,0.0,0.0,0.0,0.0,0.0,0.0,0.0,0.0,0.0,0.0,0.0,0.0,0.0,0.0,0.0,0.0,0.0,0.0,0.0,0.0,0.0,0.0,0.0,0.0,0.0,0.0,0.0,0.0,0.0,0.0,0.0,0.0,0.0,0.0,0.0,0.0,0.0,0.0,0.0,0.0,0.0,-2.5895,-2.8437,-2.8679,-2.8771,-2.878,-2.7345,-2.5652,0.0,0.0,0.0,0.0,0.0,0.0,0.0,0.0,0.0,0.0,0.0,0.0,0.0,0.0,0.0,0.0,0.0,0.0,0.0,0.0,0.0,0.0,0.0,0.0,0.0,0.0,0.0,0.0,0.0,0.0,0.0,0.0,0.0,0.0,0.0,0.0,0.0,0.0,0.0,0.0,0.0,0.0,0.0,0.0,0.0,0.0,0.0,0.0,-1.5887,0.0,0.0,0.0,0.0,0.0,0.0,0.0,0.0,0.0,0.0,0.0,0.0,0.0,0.0,0.0,0.0,0.0,0.0,0.0,0.0,0.0,0.0,0.0,0.0,0.0,0.0,0.0,0.0,0.0,0.0,0.0,0.0,0.0,0.0,0.0,0.0,0.0,0.0,0.0,0.0,0.0,0.0,0.0,0.0,0.0,0.0,0.0,0.0,0.0,0.0,0.0,0.0,0.0,0.0,0.0,0.0,0.0,0.0,0.0,-2.6547,-2.8867,-2.8952,-2.9147,-2.9494,-2.8136,-2.6403,0.0,0.0,0.0,0.0,0.0,0.0,0.0,0.0,0.0,0.0,0.0,0.0,0.0,0.0,0.0,0.0,0.0,0.0,0.0,0.0,0.0,0.0,0.0,0.0,0.0,0.0,0.0,0.0,0.0,0.0,0.0,0.0,0.0,0.0,0.0,0.0,0.0,0.0,0.0,0.0,0.0,0.0,0.0,0.0,0.0,0.0,0.0,0.0,0.0,0.0,0.0,0.0,0.0,0.0,0.0,0.0,0.0,0.0,0.0,0.0,0.0,0.0,0.0,0.0,0.0,0.0,0.0,0.0,0.0,0.0,0.0,0.0,0.0,0.0,0.0,0.0,0.0,0.0,0.0,0.0,0.0,0.0,0.0,0.0,0.0,0.0,0.0,0.0,0.0,0.0,0.0,0.0,0.0,0.0,0.0,0.0,0.0,0.0,0.0,0.0,0.0,0.0,0.0,0.0,0.0,0.0,0.0,-2.4541,-2.7079,-2.9156,-2.9161,-2.9478,-3.0308,-2.8795,-2.6851,-2.4448,0.0,0.0,0.0,0.0,0.0,0.0,0.0,0.0,0.0,0.0,0.0,0.0,0.0,0.0,0.0,0.0,0.0,0.0,0.0,0.0,0.0,0.0,0.0,0.0,0.0,0.0,0.0,0.0,0.0,0.0,0.0,0.0,0.0,0.0,0.0,0.0,0.0,0.0,-1.3134,-1.5965,0.0,0.0,0.0,0.0,0.0,0.0,0.0,0.0,-1.7486,0.0,0.0,0.0,0.0,0.0,0.0,0.0,0.0,0.0,0.0,0.0,0.0,0.0,0.0,0.0,0.0,0.0,0.0,0.0,0.0,0.0,0.0,0.0,0.0,0.0,0.0,0.0,0.0,0.0,0.0,0.0,0.0,0.0,0.0,0.0,0.0,0.0,0.0,0.0,0.0,0.0,0.0,0.0,0.0,0.0,0.0,0.0,0.0,0.0,0.0,0.0,0.0,0.0,0.0,0.0,0.0,-2.4357,-2.5633,-2.7736,-3.0719,-3.0222,-3.0295,-3.1003,-2.898,-2.7004,-2.5247,0.0,0.0,0.0,0.0,0.0,0.0,0.0,0.0,0.0,0.0,0.0,0.0,0.0,0.0,0.0,0.0,0.0,0.0,0.0,0.0,0.0,0.0,0.0,0.0,0.0,0.0,0.0,0.0,0.0,0.0,0.0,0.0,0.0,0.0,0.0,0.0,0.0,0.0,0.0,-1.8978,-2.0592,0.0,0.0,0.0,0.0,0.0,0.0,0.0,0.0,-1.7785,0.0,0.0,0.0,0.0,0.0,0.0,0.0,0.0,0.0,0.0,0.0,0.0,0.0,0.0,0.0,0.0,0.0,0.0,0.0,0.0,0.0,0.0,0.0,0.0,0.0,0.0,0.0,0.0,0.0,0.0,0.0,0.0,0.0,0.0,0.0,0.0,0.0,0.0,0.0,0.0,0.0,0.0,0.0,0.0,0.0,0.0,0.0,0.0,0.0,0.0,0.0,0.0,0.0,0.0,0.0,-2.4104,-2.6009,-2.8312,-3.1084,-3.0859,-3.0937,-3.1427,-2.9171,-2.7163,0.0,0.0,0.0,0.0,0.0,0.0,0.0,0.0,0.0,0.0,0.0,0.0,0.0,0.0,0.0,0.0,0.0,0.0,0.0,0.0,0.0,0.0,0.0,0.0,0.0,0.0,0.0,0.0,0.0,0.0,0.0,0.0,0.0,0.0,0.0,0.0,0.0,0.0,0.0,0.0,-1.9479,-2.0744,-2.1513,0.0,0.0,0.0,0.0,0.0,0.0,-1.9439,-1.8631,0.0,0.0,0.0,0.0,0.0,0.0,0.0,0.0,0.0,0.0,0.0,0.0,0.0,0.0,0.0,0.0,0.0,0.0,0.0,0.0,0.0,0.0,0.0,0.0,0.0,0.0,0.0,0.0,0.0,0.0,0.0,0.0,0.0,0.0,0.0,0.0,0.0,0.0,0.0,0.0,0.0,0.0,0.0,0.0,0.0,0.0,0.0,0.0,0.0,0.0,0.0,0.0,0.0,0.0,0.0,-2.3526,-2.6296,-2.8839,-3.1045,-3.1349,-3.1512,-3.1628,-2.9461,-2.7358,0.0,0.0,0.0,0.0,0.0,0.0,0.0,0.0,0.0,0.0,0.0,0.0,0.0,0.0,0.0,0.0,0.0,0.0,0.0,0.0,0.0,0.0,0.0,0.0,0.0,0.0,0.0,0.0,0.0,0.0,0.0,0.0,0.0,0.0,0.0,0.0,0.0,0.0,0.0,0.0,0.0,-2.1098,-2.2128,-2.1723,0.0,0.0,0.0,0.0,-2.1864,-2.0772,0.0,0.0,0.0,0.0,0.0,0.0,0.0,0.0,0.0,0.0,0.0,0.0,0.0,0.0,0.0,0.0,0.0,0.0,0.0,0.0,0.0,0.0,0.0,0.0,0.0,0.0,0.0,0.0,0.0,0.0,0.0,0.0,0.0,0.0,0.0,0.0,0.0,0.0,0.0,0.0,0.0,0.0,0.0,0.0,0.0,0.0,0.0,0.0,0.0,0.0,0.0,0.0,0.0,0.0,0.0,0.0,-2.3727,-2.688,-2.9313,-3.0953,-3.181,-3.2015,-3.1506,-3.0002,-2.7722,0.0,0.0,0.0,0.0,0.0,0.0,0.0,0.0,0.0,0.0,0.0,0.0,0.0,0.0,0.0,0.0,0.0,0.0,0.0,0.0,0.0,0.0,0.0,0.0,0.0,0.0,0.0,0.0,0.0,0.0,0.0,0.0,0.0,0.0,0.0,0.0,0.0,0.0,0.0,0.0,0.0,-2.3617,-2.208,-2.2526,-2.2717,0.0,0.0,-2.1882,-2.2883,-2.2226,0.0,0.0,0.0,0.0,0.0,0.0,0.0,0.0,0.0,0.0,0.0,0.0,0.0,0.0,0.0,0.0,0.0,0.0,0.0,0.0,0.0,0.0,0.0,0.0,0.0,0.0,0.0,0.0,0.0,0.0,0.0,0.0,0.0,0.0,0.0,0.0,0.0,0.0,0.0,0.0,0.0,0.0,0.0,0.0,0.0,0.0,0.0,0.0,0.0,0.0,0.0,0.0,0.0,0.0,0.0,-2.1257,-2.4447,-2.7652,-2.987,-3.1034,-3.1947,-3.212,-3.1579,-2.9237,-2.6861,0.0,0.0,0.0,0.0,0.0,0.0,0.0,0.0,0.0,0.0,0.0,0.0,0.0,0.0,0.0,0.0,0.0,0.0,0.0,0.0,0.0,0.0,0.0,0.0,0.0,0.0,0.0,0.0,0.0,0.0,0.0,0.0,0.0,0.0,0.0,0.0,0.0,0.0,0.0,0.0,0.0,0.0,-2.3409,-2.3287,0.0,0.0,0.0,-2.3096,-2.3491,0.0,0.0,0.0,0.0,0.0,0.0,0.0,0.0,0.0,0.0,0.0,0.0,0.0,0.0,0.0,0.0,0.0,0.0,0.0,0.0,0.0,0.0,0.0,0.0,0.0,0.0,0.0,0.0,0.0,0.0,0.0,0.0,0.0,0.0,0.0,0.0,0.0,0.0,0.0,0.0,0.0,0.0,0.0,0.0,0.0,0.0,0.0,0.0,0.0,0.0,0.0,0.0,0.0,0.0,0.0,0.0,0.0,-2.528,-2.848,-3.0518,-3.137,-3.2279,-3.2399,-3.1647,-2.9081,0.0,0.0,0.0,0.0,0.0,0.0,0.0,0.0,0.0,0.0,0.0,0.0,0.0,0.0,0.0,0.0,0.0,0.0,0.0,0.0,0.0,0.0,0.0,0.0,0.0,0.0,0.0,-0.9952,0.0,0.0,0.0,0.0,0.0,0.0,0.0,0.0,0.0,0.0,0.0,0.0,0.0,0.0,-2.3198,-2.4377,-2.4215,-2.421,0.0,0.0,-2.4392,-2.4132,-2.4135,-2.3648,0.0,0.0,0.0,0.0,0.0,0.0,0.0,0.0,0.0,0.0,0.0,0.0,0.0,0.0,0.0,0.0,0.0,0.0,0.0,0.0,0.0,0.0,0.0,0.0,0.0,0.0,0.0,0.0,0.0,0.0,0.0,0.0,0.0,0.0,0.0,0.0,0.0,0.0,0.0,0.0,0.0,0.0,0.0,0.0,0.0,0.0,0.0,0.0,0.0,0.0,0.0,0.0,0.0,0.0,0.0,-2.6084,-2.9282,-3.1306,-3.2117,-3.3163,-3.3086,-3.1804,-3.032,-2.7988,0.0,0.0,0.0,0.0,0.0,0.0,0.0,0.0,0.0,0.0,0.0,0.0,0.0,0.0,0.0,0.0,0.0,0.0,0.0,0.0,0.0,0.0,0.0,0.0,0.0,0.0,0.0,0.0,0.0,0.0,0.0,0.0,0.0,0.0,0.0,0.0,0.0,0.0,0.0,0.0,0.0,-2.4871,-2.4167,-2.5383,-2.6321,0.0,0.0,-2.5787,-2.5027,-2.4918,-2.4404,-2.2872,0.0,0.0,0.0,0.0,0.0,0.0,0.0,0.0,0.0,0.0,0.0,0.0,0.0,0.0,0.0,0.0,0.0,0.0,0.0,0.0,0.0,0.0,0.0,0.0,0.0,0.0,0.0,0.0,0.0,0.0,0.0,0.0,0.0,0.0,0.0,0.0,0.0,0.0,0.0,0.0,0.0,0.0,0.0,0.0,0.0,0.0,0.0,0.0,0.0,0.0,0.0,0.0,0.0,-2.3423,-2.7082,-2.9917,-3.1763,-3.2528,-3.3093,-3.2862,-3.1823,-3.0518,-2.8431,0.0,0.0,0.0,0.0,0.0,0.0,0.0,0.0,0.0,0.0,0.0,0.0,0.0,0.0,0.0,0.0,0.0,0.0,0.0,0.0,0.0,0.0,0.0,0.0,0.0,0.0,0.0,0.0,-1.223,-1.2544,-1.3292,0.0,0.0,0.0,0.0,0.0,0.0,0.0,0.0,0.0,0.0,-2.4772,-2.5439,-2.608,0.0,0.0,-2.6781,-2.6703,-2.586,-2.5751,-2.519,-2.3632,-2.2735,0.0,0.0,0.0,0.0,0.0,0.0,0.0,0.0,0.0,0.0,0.0,0.0,0.0,0.0,0.0,0.0,0.0,0.0,0.0,0.0,0.0,0.0,0.0,0.0,0.0,0.0,0.0,0.0,0.0,0.0,0.0,0.0,0.0,0.0,0.0,0.0,0.0,0.0,0.0,0.0,0.0,0.0,0.0,0.0,0.0,0.0,0.0,0.0,0.0,0.0,0.0,0.0,-2.4042,-2.8017,-3.0331,-3.2029,-3.3036,-3.321,-3.2787,-3.1779,-3.0744,-2.8846,0.0,0.0,0.0,0.0,0.0,0.0,0.0,0.0,0.0,0.0,0.0,0.0,0.0,0.0,0.0,0.0,0.0,0.0,0.0,0.0,0.0,0.0,0.0,0.0,0.0,0.0,0.0,0.0,-1.3338,-1.3666,-1.4188,0.0,0.0,0.0,0.0,0.0,0.0,0.0,0.0,0.0,0.0,-2.5473,-2.6644,-2.6875,-2.6951,-2.705,-2.7357,-2.7178,-2.6122,-2.6237,-2.59,-2.4295,0.0,0.0,0.0,0.0,0.0,0.0,0.0,0.0,0.0,0.0,0.0,0.0,0.0,0.0,0.0,0.0,0.0,0.0,0.0,0.0,0.0,0.0,0.0,0.0,0.0,0.0,0.0,-1.5895,0.0,0.0,-1.4781,0.0,0.0,0.0,0.0,0.0,0.0,0.0,0.0,0.0,0.0,0.0,0.0,0.0,0.0,0.0,0.0,0.0,0.0,0.0,0.0,0.0,0.0,-2.4829,-2.8812,-3.0491,-3.207,-3.362,-3.3675,-3.3064,-3.1781,-3.1102,-2.9277,-2.6084,0.0,0.0,0.0,0.0,0.0,0.0,0.0,0.0,0.0,0.0,0.0,0.0,0.0,0.0,0.0,0.0,0.0,0.0,0.0,0.0,0.0,0.0,0.0,0.0,0.0,0.0,-1.3051,-1.3692,-1.4078,0.0,0.0,0.0,0.0,0.0,0.0,0.0,0.0,0.0,0.0,-2.588,-2.7434,-2.75,-2.7821,-2.8112,-2.8188,-2.795,-2.7232,-2.5789,-2.6353,-2.6438,0.0,0.0,0.0,0.0,0.0,0.0,0.0,0.0,0.0,0.0,0.0,0.0,0.0,0.0,0.0,0.0,0.0,0.0,0.0,0.0,0.0,0.0,0.0,0.0,0.0,0.0,0.0,-2.0144,-1.938,0.0,0.0,0.0,0.0,0.0,0.0,0.0,0.0,0.0,0.0,0.0,-2.7662,-2.7791,0.0,0.0,0.0,0.0,0.0,0.0,0.0,0.0,0.0,0.0,0.0,0.0,-2.4894,-2.8757,-3.0631,-3.228,-3.3839,-3.4004,-3.3562,-3.2585,-3.2009,-2.9754,-2.5609,0.0,0.0,0.0,0.0,0.0,0.0,0.0,0.0,0.0,0.0,0.0,0.0,0.0,0.0,0.0,0.0,0.0,0.0,0.0,0.0,0.0,0.0,0.0,0.0,0.0,-1.298,0.0,0.0,0.0,0.0,0.0,0.0,0.0,0.0,0.0,0.0,0.0,-2.4109,-2.5491,-2.6723,-2.79,-2.893,-2.9261,-2.9549,0.0,0.0,0.0,0.0,0.0,0.0,0.0,0.0,0.0,0.0,0.0,0.0,0.0,0.0,-2.6622,-2.1828,-2.0401,-2.0019,-2.0267,0.0,0.0,0.0,0.0,0.0,0.0,0.0,0.0,0.0,0.0,0.0,0.0,0.0,0.0,-2.3344,0.0,-2.2398,0.0,0.0,0.0,0.0,0.0,0.0,0.0,0.0,-2.8082,-2.9683,-3.0979,-3.1182,-3.0682,0.0,-2.9547,-2.7056,0.0,0.0,0.0,0.0,0.0,0.0,0.0,0.0,-2.5855,-2.9215,-3.1036,-3.2556,-3.3839,-3.3908,-3.3554,-3.284,-3.1773,-2.9641,-2.6344,-2.4824,-2.3106,0.0,0.0,0.0,0.0,0.0,0.0,0.0,0.0,0.0,0.0,0.0,0.0,0.0,0.0,0.0,0.0,0.0,0.0,0.0,0.0,0.0,0.0,0.0,-1.4519,0.0,0.0,0.0,0.0,0.0,0.0,0.0,0.0,0.0,-2.2774,-2.4211,-2.5752,-2.7211,-2.8116,-2.899,-3.0008,0.0,0.0,0.0,0.0,0.0,0.0,0.0,-2.884,-2.9658,-2.8721,-2.8043,-2.8582,-2.939,-2.9839,-2.9454,0.0,0.0,-2.4835,-2.3347,-2.2811,-2.2807,-2.2907,-2.3247,-2.3951,-2.439,-2.4623,0.0,0.0,0.0,0.0,0.0,0.0,0.0,0.0,-2.6402,-2.634,0.0,-2.5127,0.0,0.0,0.0,0.0,0.0,-2.724,0.0,0.0,-3.2765,-3.4087,-3.3422,-3.4228,-3.3813,-3.2405,-3.3813,-3.2448,-2.8455,-2.4322,0.0,0.0,0.0,0.0,0.0,0.0,-2.772,-3.0076,-3.1686,-3.288,-3.3662,-3.352,-3.3138,-3.253,-3.0553,-2.9097,-2.8222,-2.6016,-2.4335,-2.342,-2.0275,0.0,0.0,0.0,0.0,0.0,0.0,0.0,0.0,0.0,0.0,0.0,0.0,0.0,0.0,0.0,0.0,0.0,0.0,0.0,0.0,-1.5809,0.0,0.0,0.0,0.0,0.0,0.0,0.0,0.0,0.0,0.0,-2.4163,-2.6425,-2.8389,-2.8848,0.0,0.0,0.0,0.0,-3.0708,-3.0776,-3.0558,-3.0211,-2.9529,-3.013,-3.0456,-2.9804,0.0,0.0,-2.9833,-3.0472,-3.0898,-2.9797,-3.0562,-3.0604,-2.8962,-2.819,-2.7522,-2.6229,-2.6456,-2.6777,-2.6234,-2.6797,-2.7218,-3.4453,0.0,0.0,0.0,0.0,-3.0593,-3.1506,-3.3469,-3.2465,-3.1512,-3.0552,-2.9882,0.0,0.0,0.0,0.0,0.0,0.0,-3.1856,-3.2966,-3.4086,-3.5101,-3.6039,-3.6276,-3.6134,-3.5683,-3.5578,-3.491,-3.362,-3.0666,-2.7186,-2.3386,0.0,0.0,0.0,0.0,-2.8481,-3.0651,-3.1913,-3.2888,-3.368,-3.3775,-3.361,-3.3142,-3.1987,-3.0818,-2.9661,-2.8365,-2.6626,-2.4415,-2.2846,0.0,0.0,0.0,0.0,0.0,0.0,0.0,0.0,0.0,0.0,0.0,0.0,0.0,0.0,0.0,0.0,0.0,0.0,0.0,-1.5935,-1.7245,-1.803,0.0,0.0,0.0,0.0,0.0,0.0,0.0,0.0,0.0,-2.7853,-2.8314,-2.885,0.0,0.0,-3.0508,-3.1227,-3.1918,-3.2661,-3.34,-3.3979,0.0,-3.4048,-3.3252,-3.2991,-3.3945,-3.4337,-3.4365,-3.4008,-3.4217,-3.4142,-3.3235,-3.3349,-3.3049,-3.1478,-3.0134,-2.9232,-2.8781,-2.8853,-2.9062,-2.9165,-2.9415,-2.9526,-3.9594,-3.6377,-3.485,-3.4784,-3.56,-3.4862,-3.5671,-3.7427,-3.6325,-3.5619,-3.518,-3.408,-3.2398,-3.0332,-2.9325,0.0,0.0,0.0,-3.4031,-3.5609,-3.564,-3.6454,-3.7866,-3.7928,-3.7815,-3.7549,-3.708,-3.6704,-3.6348,-3.4827,-3.2185,-2.8511,0.0,0.0,-2.7353,-2.8524,-2.9984,-3.1665,-3.2643,-3.3338,-3.3815,-3.3873,-3.3579,-3.2983,-3.221,-3.1287,-3.0189,-2.9048,-2.7708,-2.6074,-2.4576,-2.2858,0.0,0.0,0.0,0.0,0.0,0.0,0.0,0.0,0.0,0.0,0.0,-1.4447,0.0,0.0,0.0,0.0,-1.5839,-1.7308,-1.8591,-1.9912,0.0,0.0,0.0,0.0,0.0,0.0,0.0,-2.6971,-2.8052,-2.9283,-3.0991,-3.089,-3.0733,-3.1011,-3.1411,-3.1934,-3.2578,0.0,-3.4067,-3.4857,-3.5421,-3.5807,-3.5948,-3.5165,-3.4841,-3.5833,-3.5985,-3.5921,-3.5893,-3.5895,-3.568,-3.5266,-3.5105,-3.4797,-3.3851,-3.2842,-3.1631,-3.0377,-3.0332,-3.0549,-3.054,-3.0835,-3.1084,-4.3436,-4.2184,-3.8995,-3.8194,-3.8929,-3.8704,-3.9007,-3.9571,-3.8558,-3.8769,-3.9745,-3.7584,-3.6541,-3.6358,-3.4147,0.0,-3.4334,-3.4972,-3.6145,-3.761,-3.7607,-3.8121,-3.9063,-3.9208,-3.8941,-3.8364,-3.8358,-3.7995,-3.7312,-3.7192,-3.6415,-3.4846,-3.1418,-3.0054,-3.0713,-3.1342,-3.2126,-3.3099,-3.3839,-3.4202,-3.4129,-3.3884,-3.33,-3.242,-3.1644,-3.0912,-3.0161,-2.875,-2.7935,-2.784,-2.5667,-2.4045,-2.3124,0.0,0.0,0.0,0.0,0.0,0.0,0.0,0.0,0.0,0.0,0.0,0.0,0.0,0.0,0.0,-1.9634,0.0,-2.1735,-2.323,0.0,0.0,0.0,-2.5421,-2.6142,-2.7134,-2.8526,-3.0439,0.0,0.0,-3.3547,-3.3744,-3.3543,-3.2965,-3.3608,-3.4144,-3.4258,-3.4618,-3.5049,-3.5375,-3.5497,-3.5683,-3.6121,-3.6105,-3.6136,-3.6292,-3.6161,-3.6255,-3.6255,-3.6237,-3.6167,-3.5999,-3.5981,-3.5908,-3.589,-3.5595,-3.4785,-3.1625,-3.1512,-3.1727,-3.1145,-3.161,-3.1971,-4.4131,-4.3821,-4.301,-4.2197,-4.1423,-4.1161,-4.1134,-4.1276,-4.0835,-4.0473,-4.0155,-3.9399,-3.8707,-3.8153,-3.8352,-3.8506,-3.8645,-3.9542,-4.0115,-4.0413,-4.0311,-4.0124,-3.9849,-3.986,-3.9497,-3.8804,-3.8918,-3.8885,-3.8693,-3.8227,-3.7812,-3.735,-3.5763,-3.4425,-3.3445,-3.4123,-3.4865,-3.5621,-3.5968,-3.587,-3.5311,-3.4495,-3.3753,-3.3008,-3.2172,-3.141,-3.0725,-2.9726,-2.8548,-2.7232,-2.6581,-2.5282,-2.3134,-2.0876,0.0,0.0,0.0,0.0,0.0,0.0,0.0,0.0,0.0,-1.8778,-1.4703,0.0,-2.0273,0.0,-2.1046,-2.2703,-2.351,-2.48,0.0,0.0,-2.7102,-2.8201,-3.0328,-3.03,-3.0872,-3.2854,-3.3191,-3.36,-3.4569,-3.4893,-3.5136,-3.529,-3.466,-3.4166,-3.4166,-3.5108,-3.5774,-3.5846,-3.6326,-3.6807,-3.6899,-3.7148,-3.737,-3.7691,-3.7691,-3.7678,-3.7677,-3.766,-3.7479,-3.69,-3.6737,-3.652,-3.5978,-3.5802,-3.5589,-3.4677,-3.4228,-3.3754,-3.3267,-3.291,-3.2616,-4.4506,-4.4416,-4.4416,-4.389,-4.3045,-4.2899,-4.2833,-4.2818,-4.2523,-4.2158,-4.1696,-4.1174,-4.0524,-3.9827,-4.04,-4.0615,-4.0593,-4.1046,-4.1217,-4.114,-4.0971,-4.0751,-4.0444,-4.0462,-4.0145,-3.9573,-3.9682,-3.9605,-3.9375,-3.9039,-3.8863,-3.8863,-3.8328,-3.7586,-3.6694,-3.6273,-3.6317,-3.6752,-3.677,-3.631,-3.5403,-3.4844,-3.4036,-3.2901,-3.2056,-3.1318,-3.0599,-2.9427,-2.8336,-2.7345,-2.6624,-2.5567,-2.4135,-2.2171,-2.0849,0.0,0.0,0.0,0.0,0.0,0.0,0.0,0.0,0.0,0.0,0.0,-2.2555,-2.2354,-2.4039,-2.5593,-2.6709,-2.7835,-2.884,-2.9789,-3.0324,-3.1374,-3.3203,-3.3172,-3.3683,-3.5304,-3.5194,-3.5293,-3.6164,-3.6289,-3.6385,-3.6647,-3.6182,-3.5676,-3.5388,-3.5947,-3.6383,-3.6494,-3.7092,-3.7614,-3.7756,-3.793,-3.8153,-3.8403,-3.8437,-3.8423,-3.8423,-3.8421,-3.8259,-3.779,-3.7665,-3.7537,-3.7101,-3.696,-3.6962,-3.6869,-3.6311,-3.555,-3.4911,-3.4163,-3.3589,-4.4506,-4.4285,-4.427,-4.4147,-4.3942,-4.3942,-4.3923,-4.3908,-4.3632,-4.3479,-4.346,-4.2763,-4.2066,-4.1407,-4.1423,-4.144,-4.1473,-4.1254,-4.1186,-4.1202,-4.0994,-4.0993,-4.1106,-4.1088,-4.0891,-4.0514,-4.0561,-4.0331,-3.9871,-3.9783,-3.9758,-3.9739,-3.9646,-3.9608,-3.9552,-3.7941,-3.7187,-3.7364,-3.7007,-3.634,-3.5349,-3.5119,-3.4206,-3.2604,-3.1774,-3.0962,-3.0127,-2.8754,-2.7934,-2.7794,-2.6479,-2.5623,-2.5356,-2.3391,-2.2492,0.0,-2.1051,0.0,0.0,0.0,0.0,0.0,0.0,0.0,0.0,-2.3684,-2.5179,-2.6523,-2.7725,-2.8968,-3.0296,-3.1286,-3.2137,-3.2839,-3.3642,-3.4431,-3.5243,-3.5684,-3.6352,-3.7439,-3.7003,-3.6967,-3.7715,-3.7632,-3.7415,-3.7649,-3.7811,-3.7721,-3.7306,-3.7031,-3.6967,-3.7208,-3.7614,-3.793,-3.8267,-3.838,-3.8465,-3.8611,-3.8611,-3.8661,-3.8614,-3.8614,-3.858,-3.8462,-3.8376,-3.8392,-3.8444,-3.8378,-3.8362,-3.8319,-3.771,-3.6928,-3.6107,-3.5299,-3.479,-4.3712,-4.3681,-4.3681,-4.3631,-4.3599,-4.3617,-4.3599,-4.3582,-4.3513,-4.3479,-4.3479,-4.3332,-4.3203,-4.3039,-4.3039,-4.3207,-4.3431,-4.3187,-4.3219,-4.3475,-4.3217,-4.2769,-4.221,-4.2207,-4.1812,-4.1178,-4.1337,-4.1399,-4.1292,-4.0795,-4.0572,-4.0553,-3.9927,-3.9608,-3.9577,0.0,0.0,0.0,-3.8018,-3.7382,-3.6923,-3.5608,-3.4234,-3.2785,-3.2021,0.0,-2.9782,-2.9279,-2.8722,-2.8063,-2.7601,0.0,0.0,0.0,0.0,0.0,0.0,0.0,0.0,0.0,0.0,0.0,-2.6877,-2.6804,-2.4979,-2.7321,-2.9112,-2.9441,-3.0797,-3.1812,-3.2124,-3.3463,-3.4362,-3.4546,-3.5298,-3.6134,-3.6909,-3.7103,-3.7397,-3.7891,-3.7849,-3.7836,-3.8086,-3.7982,-3.8338,-3.919,-3.9181,-3.9245,-3.968,-3.8582,-3.7685,-3.7414,-3.7667,-3.781,-3.8118,-3.8224,-3.8416,-3.8366,-3.8403,-3.8391,-3.8378,-3.8325,-3.8309,-3.8274,-3.8239,-3.8272,-3.8322,-3.8322,-3.8354,-3.8417,-3.8271,-3.7895,-3.7035,-3.6175,-3.5584,-4.434,0.0,-4.3896,-4.3667,0.0,-4.3479,-4.3479,-4.3515,-4.3682,-4.3749,-4.3732,-4.3565,-4.3582,-4.3749,-4.3749,-4.3923,-4.4177,-4.3934,-4.3936,-4.4075,-4.3844,-4.3474,-4.3102,-4.3102,-4.2741,-4.2102,-4.2225,-4.2136,-4.1838,-4.1533,-4.1191,-4.0797,-4.0384,-4.0002,-3.9608,-3.9458,-3.9283,-3.9045,-3.8586,-3.815,-3.7688,-3.6463,-3.5118,-3.3731,-3.2926,0.0,0.0,0.0,0.0,0.0,0.0,0.0,0.0,0.0,0.0,-2.6557,-2.6943,-2.6979,-2.6667,-2.8081,-2.8796,-2.8448,-3.0246,-3.0356,-2.7963,-2.9977,-3.1537,-3.1971,-3.3078,-3.3959,-3.4412,-3.5183,-3.5789,-3.6211,-3.6615,-3.7184,-3.7933,-3.8083,-3.8334,-3.8869,-3.8984,-3.9112,-3.9549,-3.9586,-3.9798,-4.0364,-4.0323,-4.0333,-4.0626,-3.9909,-3.9191,-3.9173,-3.9138,-3.9243,-3.9501,-3.9537,-3.9501,-3.9668,-3.9343,-3.9059,-3.8973,-3.8629,-3.8305,-3.8323,-3.8323,-3.8322,-3.832,-3.8336,-3.8352,-3.8401,-3.8399,-3.8291,-3.7788,-3.7085,-3.6492,-4.5319,-4.5245,-4.4448,-4.397,-4.3699,-4.357,-4.3549,-4.3599,0.0,0.0,0.0,-4.3615,-4.3682,-4.3989,-4.4005,-4.4181,-4.4457,-4.4269,-4.4214,-4.4225,-4.3986,-4.386,-4.3825,-4.3841,-4.3621,-4.3204,-4.3166,-4.2931,-4.2455,-4.2305,-4.1892,-4.1285,-4.1098,-4.0597,-3.9802,-3.9746,-3.9472,-3.8997,-3.8979,-3.8711,-3.8186,-3.7392,-3.6334,-3.5018,-3.403,-3.3045,-3.2057,-3.0701,-2.9826,-2.9483,-2.8334,-2.7853,-2.8213,-2.8356,-2.8962,-3.0081,-3.0338,-3.043,-3.043,-3.1164,-3.1458,-3.1072,-3.2871,-3.3109,-3.0999,-3.232,-3.3532,-3.4192,-3.4968,-3.5738,-3.6431,-3.6652,-3.6982,-3.7658,-3.7713,-3.8043,-3.8781,-3.8909,-3.9221,-3.9937,-4.0086,-4.0341,-4.0914,-4.1005,-4.1168,-4.1279,-4.128,-4.1405,-4.1427,-4.0969,-4.0592,-4.0796,-4.0638,-4.0818,-4.1009,-4.0938,-4.1029,-4.0899,-4.0408,-4.0012,-3.9867,-3.9343,-3.8857,-3.8948,-3.882,-3.882,-3.8709,-3.869,-3.8563,-3.8451,-3.8433,-3.8433,-3.8344,-3.7906,-3.7419,-4.5808,-4.5717,-4.4926,-4.4579,-4.4488,-4.3791,-4.3666,-4.3892,-4.3682,-4.3565,-4.3565,-4.3513,-4.3682,-4.4005,-4.4005,-4.4265,-4.4733,-4.4541,-4.4573,-4.4783,-4.4505,-4.4397,-4.4383,-4.4397,-4.4355,-4.429,-4.4271,-4.4247,-4.4088,-4.3463,-4.305,-4.2844,-4.2192,-4.1306,-4.0359,-4.029,-3.9913,-3.9175,-3.9277,-3.9171,-3.8855,-3.8221,-3.746,-3.6494,-3.5083,-3.3912,-3.3013,-3.1986,-3.1374,-3.1313,-3.0971,-3.0503,-2.9916,-3.0503,-3.0699,-3.0283,-3.0834,-3.1231,-3.1268,-3.199,-3.2986,-3.4197,-3.4656,-3.4399,-3.3458,-3.4816,-3.5844,-3.5954,-3.6648,-3.7199,-3.7364,-3.7918,-3.8322,-3.8505,-3.8524,-3.8836,-3.9625,-3.9735,-4.0047,-4.0836,-4.0928,-4.0965,-4.1187,-4.1224,-4.148,-4.1974,-4.2139,-4.2341,-4.2653,-4.1922,-4.1119,-4.1079,-4.1079,-4.1079,-4.1279,-4.1132,-4.1209,-4.1031,-4.0959,-4.0798,-4.0711,-4.0426,-4.0228,-4.0388,-4.0263,-4.0081,-3.9688,-3.9508,-3.9144,-3.87,-3.8533,-3.8481,-3.8415,-3.83,-3.8211,-4.6562,-4.6452,-4.57,-4.5351,-4.5296,-4.4507,-4.3986,-4.3716,-4.3565,-4.3599,-4.3747,-4.3781,-4.3939,-4.4221,-4.436,-4.4656,-4.5045,-4.4833,-4.4802,-4.487,-4.4638,-4.4482,-4.4482,-4.4482,-4.4482,-4.4482,-4.4482,-4.4482,-4.4463,-4.4139,-4.3726,-4.3275,-4.2449,-4.1745,-4.129,-4.1271,-4.0918,-4.0196,-3.9658,-3.9357,-3.9268,-3.8595,-3.803,-3.7553,-3.6396,-3.557,-3.5062,-3.3855,-3.3111,-3.2847,-3.201,-3.1537,-3.1513,-3.1843,-3.2082,-3.2155,-3.2504,-3.2889,-3.333,-3.4156,-3.4926,-3.5628,-3.6101,-3.6211,-3.584,-3.6519,-3.696,-3.6997,-3.7661,-3.8138,-3.8157,-3.8487,-3.8872,-3.9313,-3.935,-3.968,-4.0377,-4.0561,-4.0891,-4.1589,-4.1754,-4.1937,-4.2359,-4.2396,-4.2488,-4.2892,-4.2928,-4.3112,-4.3441,-4.2892,-4.2378,-4.2396,-4.2415,-4.2415,-4.2378,-4.2396,-4.2379,-4.2364,-4.1945,-4.1691,-4.1512,-4.1189,-4.0827,-4.0806,-4.079,-4.0663,-4.0346,-3.9893,-3.9475,-3.9234,-3.8716,-3.8533,-3.8478,-3.8478,-3.8446,-4.7537,-4.7427,-4.6724,-4.628,-4.6077,-4.5467,-4.4695,-4.3927,-4.3992,-4.4013,-4.4008,-4.4005,-4.4132,-4.4411,-4.4676,-4.4969,-4.5235,-4.5057,-4.4919,-4.487,-4.4659,-4.4537,-4.4537,-4.4537,-4.4556,-4.4537,-4.4537,-4.4524,-4.4482,-4.4482,-4.42,-4.3557,-4.2887,-4.2492,-4.2286,-4.2326,-4.1977,-4.1266,-4.0314,-3.9739,-3.9532,-3.9018,-3.8625,-3.8365,-3.7579,-3.7013,-3.6761,-3.5578,-3.4723,-3.4343,-3.3326,-3.2951,-3.3385,-3.3426,-3.3715,-3.4284,-3.4357,-3.4633,-3.5243,-3.5936,-3.6376,-3.656,-3.7144,-3.7566,-3.7749,-3.7768,-3.7768,-3.7841,-3.8303,-3.867,-3.8689,-3.8891,-3.9221,-3.9843,-4.01,-4.0506,-4.1222,-4.137,-4.1699,-4.2415,-4.2561,-4.2818,-4.3314,-4.3479,-4.3442,-4.3406,-4.3479,-4.3479,-4.3479,-4.3479,-4.3479,-4.3479,-4.3479,-4.3406,-4.3479,-4.3424,-4.3406,-4.3479,-4.2931,-4.2585,-4.2386,-4.1859,-4.1497,-4.155,-4.1478,-4.1405,-4.1168,-4.0694,-4.0256,-4.0001,-3.9575,-3.9113,-3.8894,-3.8608,-3.8451,-4.8903,-4.8592,-4.8055,-4.7459,-4.6844,-4.6712,-4.6059,-4.5133,-4.5357,-4.4916,-4.411,-4.4005,-4.4166,-4.4411,-4.4688,-4.4992,-4.5267,-4.5148,-4.5022,-4.4914,-4.4764,-4.4685,-4.4667,-4.4685,-4.4685,-4.4685,-4.4685,-4.4605,-4.4496,-4.4482,-4.4463,-4.4388,-4.4294,-4.3857,-4.327,-4.3308,-4.2938,-4.2102,-4.1449,-4.0653,-3.9743,-3.975,-3.9515,-3.9026,-3.8231,-3.7687,-3.7462,-3.6595,-3.6103,-3.606,-3.5905,-3.5868,-3.5895,-3.5917,-3.5973,-3.6009,-3.6046,-3.6101,-3.6174,-3.6248,-3.6652,-3.7309,-3.7474,-3.7841,-3.8487,-3.8579,-3.8579,-3.8615,-3.867,-3.8762,-3.8744,-3.935,-3.9845,-4.0102,-4.0616,-4.1297,-4.2011,-4.2194,-4.2506,-4.3277,-4.3313,-4.3441,-4.3461,-4.3479,-4.3479,-4.3479,-4.3479,-4.3479,-4.3479,-4.3479,-4.3479,-4.3479,-4.3479,-4.3479,-4.3479,-4.3479,-4.3479,-4.3479,-4.3442,-4.326,-4.3151,-4.3153,-4.3137,-4.2714,-4.2972,-4.2698,-4.2328,-4.2017,-4.162,-4.0998,-4.065,-4.0484,-3.9811,-3.9108,-3.8627,-4.9224,-4.9075,-4.888,-4.8341,-4.768,-4.7623,-4.7061,-4.6222,-4.5838,-4.5429,-4.5005,-4.4646,-4.4533,-4.4669,-4.4946,-4.5173,-4.5277,-4.5159,-4.508,-4.5003,-4.4889,-4.4808,-4.4827,-4.4808,-4.477,-4.4712,-4.4712,-4.4613,-4.4528,-4.4482,-4.4482,-4.4515,-4.4584,-4.4431,-4.4162,-4.4272,-4.393,-4.3168,-4.2908,-4.2039,-4.0651,-3.9962,-3.9471,-3.9119,-3.8785,-3.8654,-3.8601,-3.7912,-3.7484,-3.7459,-3.6994,-3.6656,-3.6541,-3.6541,-3.6459,-3.635,-3.6758,-3.7015,-3.7015,-3.7441,-3.7863,-3.8193,-3.8212,-3.8377,-3.8689,-3.9129,-3.9405,-3.9405,-3.9423,-3.9405,-3.9478,-4.012,-4.0799,-4.124,-4.1625,-4.2121,-4.291,-4.3002,-4.3166,-4.3442,-4.3479,-4.3479,-4.3479,-4.3479,-4.3479,-4.3479,-4.3479,-4.3479,-4.3479,-4.3479,-4.3479,-4.3479,-4.3479,-4.3479,-4.3479,-4.3479,-4.3479,-4.3479,-4.3479,-4.3479,-4.3497,-4.348,-4.3444,-4.3479,-4.3463,-4.3372,-4.3075,-4.2544,-4.2107,-4.1722,-4.1247,-4.0934,-4.0624,-4.0246,-3.9833,-4.9512,-4.9449,-4.9527,-4.923,-4.8716,-4.8697,-4.8202,-4.7368,-4.6838,-4.6334,-4.5784,-4.5413,-4.5124,-4.4988,-4.5213,-4.5277,-4.5286,-4.5192,-4.5155,-4.5103,-4.4991,-4.4955,-4.4943,-4.4943,-4.4895,-4.4821,-4.4808,-4.4738,-4.4565,-4.4515,-4.451,-4.4551,-4.4659,-4.4706,-4.4757,-4.4902,-4.4687,-4.4189,-4.3975,-4.3159,-4.1848,-4.0811,-3.994,-3.9288,-3.9205,-3.9298,-3.9483,-3.8951,-3.8631,-3.8606,-3.8035,-3.7614,-3.7486,-3.7461,-3.735,-3.7137,-3.7537,-3.7841,-3.7841,-3.8377,-3.8707,-3.8707,-3.8707,-3.8799,-3.9074,-3.957,-3.9974,-4.023,-4.0414,-4.0524,-4.0304,-4.0965,-4.168,-4.2231,-4.2451,-4.2873,-4.3387,-4.3479,-4.3461,-4.3479,-4.3479,-4.3479,-4.3479,-4.3479,-4.3479,-4.3479,-4.3479,-4.3479,-4.3479,-4.3479,-4.3479,-4.3479,-4.3479,-4.3479,-4.3479,-4.3479,-4.3479,-4.3479,-4.3479,-4.3479,-4.3479,-4.3479,-4.3479,-4.3479,-4.3479,-4.3461,-4.3351,-4.2892,-4.2616,-4.2488,-4.2047,-4.148,-4.1425,-4.1262,-4.0826,-5.0076,-4.9844,-5.012,-5.0174,-5.0159,-5.0128,-4.9562,-4.8522,-4.8729,-4.786,-4.6309,-4.6291,-4.5982,-4.5275,-4.5267,-4.5277,-4.5277,-4.5286,-4.5233,-4.5125,-4.5084,-4.5103,-4.5103,-4.5103,-4.5091,-4.5038,-4.5045,-4.4919,-4.4699,-4.4584,-4.4565,-4.4699,-4.4706,-4.477,-4.4883,-4.5033,-4.5084,-4.4916,-4.4363,-4.3817,-4.3373,-4.2632,-4.135,-3.9852,-3.9508,-3.9552,-3.952,-3.9458,-3.9451,-3.9451,-3.9363,-3.9339,-3.9333,-3.9302,-3.9126,-3.8901,-3.8726,-3.8615,-3.8615,-3.867,-3.8726,-3.8744,-3.8799,-3.9038,-3.9772,-4.001,-4.0396,-4.0985,-4.168,-4.1846,-4.1313,-4.1827,-4.2249,-4.2396,-4.3002,-4.3369,-4.3461,-4.3479,-4.3479,-4.3479,-4.3479,-4.3479,-4.3479,-4.3479,-4.3479,-4.3479,-4.3479,-4.3479,-4.3479,-4.3479,-4.3479,-4.3479,-4.3479,-4.3479,-4.3479,-4.3479,-4.3479,-4.3479,-4.3479,-4.3479,-4.3479,-4.3479,-4.3479,-4.3479,-4.3479,-4.3479,-4.3479,-4.3424,-4.3332,-4.3112,-4.2708,-4.2323,-4.2249,-4.1522,-4.1159,-5.0236,-5.0132,-5.0248,-5.0302,-5.0302,-5.0302,-5.0064,-4.9668,-4.9255,-4.8396,-4.7259,-4.6705,-4.6042,-4.5277,-4.5277,-4.5277,-4.5277,-4.5277,-4.5275,-4.5224,-4.5224,-4.5224,-4.5224,-4.5224,-4.5181,-4.5114,-4.5103,-4.5022,-4.4865,-4.4789,-4.4789,-4.4833,-4.4907,-4.4979,-4.5057,-4.5159,-4.5224,-4.5205,-4.4942,-4.4529,-4.3931,-4.3577,-4.283,-4.167,-4.0901,-4.0359,-3.9996,-4.0007,-4.0026,-3.9996,-4.0007,-3.9924,-3.9762,-3.9599,-3.9389,-3.9142,-3.9003,-3.8881,-3.8719,-3.8707,-3.8927,-3.9423,-3.946,-3.9808,-4.0579,-4.113,-4.157,-4.1937,-4.2598,-4.2855,-4.2799,-4.291,-4.3057,-4.3112,-4.3296,-4.3479,-4.3479,-4.3479,-4.3479,-4.3479,-4.3479,-4.3479,-4.3479,-4.3479,-4.3479,-4.3479,-4.3479,-4.3479,-4.3479,-4.3479,-4.3479,-4.3479,-4.3479,-4.3479,-4.3479,-4.3479,-4.3479,-4.3479,-4.3479,-4.3479,-4.3479,-4.3479,-4.3479,-4.3479,-4.3479,-4.3479,-4.3479,-4.3479,-4.3479,-4.3406,-4.302,-4.2947,-4.3074,-4.2436,-4.2125,-5.0302,-5.0302,-5.0302,-5.0302,-5.0302,-5.0302,-5.0302,-5.0225,-4.9729,-4.9003,-4.8162,-4.7302,-4.6462,-4.5717,-4.5422,-4.5277,-4.5277,-4.5277,-4.5277,-4.5277,-4.5277,-4.5277,-4.5277,-4.5277,-4.5265,-4.517,-4.5125,-4.5057,-4.4967,-4.4919,-4.4919,-4.4974,-4.5068,-4.5106,-4.517,-4.5265,-4.5277,-4.5277,-4.5277,-4.4991,-4.4475,-4.4407,-4.4036,-4.3213,-4.2441,-4.1573,-4.074,-4.0711,-4.054,-4.0358,-4.032,-4.0225,-4.0017,-3.9693,-3.9408,-3.9245,-3.9078,-3.9039,-3.9084,-3.9093,-3.9441,-4.0194,-4.0304,-4.0634,-4.1407,-4.1992,-4.2359,-4.2727,-4.3112,-4.3479,-4.3479,-4.3461,-4.3479,-4.3479,-4.3479,-4.3479,-4.3479,-4.3479,-4.3479,-4.3479,-4.3479,-4.3479,-4.3479,-4.3479,-4.3479,-4.3479,-4.3479,-4.3479,-4.3479,-4.3479,-4.3479,-4.3479,-4.3479,-4.3479,-4.3479,-4.3479,-4.3479,-4.3479,-4.3479,-4.3479,-4.3479,-4.3479,-4.3479,-4.3479,-4.3479,-4.3479,-4.3479,-4.3479,-4.3479,-4.3479,-4.3387,-4.3277,-4.3351,-4.3424,-4.3003,-5.0302,-5.0302,-5.0302,-5.0302,-5.0302,-5.0302,-5.0302,-5.0283,-5.0245,-4.971,-4.8869,-4.8162,-4.7283,-4.6443,-4.5717,-4.5335,-4.5277,-4.5277,-4.5277,-4.5277,-4.5277,-4.5277,-4.5277,-4.5277,-4.5277,-4.5275,-4.517,-4.5095,-4.5103,-4.501,-4.501,-4.5091,-4.5114,-4.517,-4.5297,-4.5297,-4.5277,-4.5277,-4.5277,-4.5269,-4.5277,-4.5182,-4.48,-4.4112,-4.3909,-4.3175,-4.1648,-4.1533,-4.1208,-4.0578,-4.0473,-4.0339,-4.0444,-4.0064,-3.9651,-3.9677,-3.9194,-3.924,-3.9834,-3.9994,-4.0357,-4.1056,-4.1142,-4.154,-4.2241,-4.2463,-4.274,-4.3239,-4.3423,-4.3479,-4.3479,-4.3479,-4.3479,-4.3479,-4.3479,-4.3479,-4.3479,-4.3479,-4.3479,-4.3479,-4.3479,-4.3479,-4.3479,-4.3479,-4.3479,-4.3479,-4.3479,-4.3479,-4.3479,-4.3479,-4.3479,-4.3479,-4.3479,-4.3479,-4.3479,-4.3479,-4.3479,-4.3479,-4.3479,-4.3479,-4.3479,-4.3479,-4.3479,-4.3479,-4.3479,-4.3479,-4.3479,-4.3479,-4.3479,-4.3479,-4.3479,-4.3479,-4.3479,-4.3479,-4.3479,-5.0302,-5.0302,-5.0302,-5.0302,-5.0302,-5.0302,-5.0302,-5.0302,-5.0302,-4.9843,-4.9148,-4.8812,-4.7876,-4.671,-4.6214,-4.5831,-4.5316,-4.5277,-4.5277,-4.5277,-4.5277,-4.5277,-4.5277,-4.5277,-4.5277,-4.5297,-4.5265,-4.5224,-4.5233,-4.5192,-4.5203,-4.5224,-4.5224,-4.5246,-4.5277,-4.5277,-4.5277,-4.5277,-4.5277,-4.5277,-4.5277,-4.5277,-4.5144,-4.4934,-4.4876,-4.4341,-4.3281,-4.2698,-4.2297,-4.1991,-4.203,-4.203,-4.1962,-4.1871,-4.1713,-4.1517,-4.1355,-4.1228,-4.1297,-4.1362,-4.1651,-4.2337,-4.2509,-4.2835,-4.3376,-4.3423,-4.3437,-4.3529,-4.3479,-4.3479,-4.3479,-4.3479,-4.3479,-4.3479,-4.3479,-4.3479,-4.3479,-4.3479,-4.3479,-4.3479,-4.3479,-4.3479,-4.3479,-4.3479,-4.3479,-4.3479,-4.3479,-4.3479,-4.3479,-4.3479,-4.3479,-4.3479,-4.3479,-4.3479,-4.3479,-4.3479,-4.3479,-4.3479,-4.3479,-4.3479,-4.3479,-4.3479,-4.3479,-4.3479,-4.3479,-4.3479,-4.3479,-4.3479,-4.3479,-4.3479,-4.3479,-4.3479,-4.3479,-4.3479,-4.3479,-5.0314,-5.0302,-5.0302,-5.0302,-5.0302,-5.0302,-5.0302,-5.0302,-5.0302,-5.0015,-4.9557,-4.9213,-4.8536,-4.7494,-4.6825,-4.6233,-4.5736,-4.546,-4.5277,-4.5277,-4.5277,-4.5277,-4.5277,-4.5277,-4.5277,-4.5277,-4.5277,-4.5277,-4.5277,-4.5277,-4.5277,-4.5277,-4.5277,-4.5277,-4.5277,-4.5277,-4.5277,-4.5277,-4.5277,-4.5277,-4.5277,-4.5277,-4.5277,-4.5277,-4.5277,-4.501,-4.4475,-4.3978,-4.3424,-4.2928,-4.2794,-4.2794,-4.2794,-4.2675,-4.2561,-4.2439,-4.2312,-4.2253,-4.2389,-4.2431,-4.2795,-4.3458,-4.3646,-4.3783,-4.4054,-4.4094,-4.3894,-4.3732,-4.3583,-4.3479,-4.3479,-4.3479,-4.3479,-4.3479,-4.3479,-4.3479,-4.3479,-4.3479,-4.3479,-4.3479,-4.3479,-4.3479,-4.3479,-4.3479,-4.3479,-4.3479,-4.3479,-4.3479,-4.3479,-4.3479,-4.3479,-4.3479,-4.3479,-4.3479,-4.3479,-4.3479,-4.3479,-4.3479,-4.3479,-4.3479,-4.3479,-4.3479,-4.3479,-4.3479,-4.3479,-4.3479,-4.3479,-4.3479,-4.3479,-4.3479,-4.3479,-4.3479,-4.3479,-4.3479,-4.3479,-5.0405,-5.0302,-5.0302,-5.0302,-5.0302,-5.0302,-5.0302,-5.0302,-5.0302,-5.0264,-5.0092,-4.9557,-4.9148,-4.8678,-4.7494,-4.6768,-4.6366,-4.5774,-4.5392,-4.5316,-4.5277,-4.5277,-4.5277,-4.5277,-4.5277,-4.5277,-4.5277,-4.5277,-4.5277,-4.5277,-4.5277,-4.5277,-4.5277,-4.5277,-4.5277,-4.5277,-4.5277,-4.5277,-4.5277,-4.5277,-4.5277,-4.5277,-4.5277,-4.5277,-4.5277,-4.5269,-4.5163,-4.5048,-4.4437,-4.3195,-4.3138,-4.3195,-4.2974,-4.2702,-4.2777,-4.2803,-4.2378,-4.2781,-4.3194,-4.3428,-4.3685,-4.432,-4.442,-4.4425,-4.4397,-4.4265,-4.4106,-4.3999,-4.3765,-4.3548,-4.3548,-4.3496,-4.3496,-4.3479,-4.3479,-4.3479,-4.3479,-4.3479,-4.3479,-4.3479,-4.3479,-4.3479,-4.3479,-4.3479,-4.3479,-4.3479,-4.3479,-4.3479,-4.3479,-4.3479,-4.3479,-4.3479,-4.3496,-4.3479,-4.3496,-4.3666,-4.3682,-4.3697,-4.3681,-4.3662,-4.3597,-4.3582,-4.3513,-4.3513,-4.3599,-4.3565,-4.3496,-4.3496,-4.3496,-4.3479,-4.3479,-4.3479,-4.3496,-4.3496,-4.3496,-5.0906,-5.0321,-5.0302,-5.0302,-5.0302,-5.0302,-5.0302,-5.0302,-5.0302,-5.0302,-5.0225,-5.0092,-4.9633,-4.9071,-4.8632,-4.7761,-4.6768,-4.629,-4.5812,-4.5354,-4.5277,-4.5277,-4.5277,-4.5277,-4.5277,-4.5277,-4.5277,-4.5277,-4.5277,-4.5277,-4.5277,-4.5277,-4.5277,-4.5277,-4.5277,-4.5277,-4.5277,-4.5277,-4.5277,-4.5277,-4.5277,-4.5277,-4.5277,-4.5277,-4.5277,-4.5277,-4.5277,-4.5277,-4.5163,-4.4743,-4.4647,-4.4647,-4.4532,-4.445,-4.4361,-4.4339,-4.4375,-4.4436,-4.4616,-4.468,-4.4825,-4.5026,-4.5007,-4.4953,-4.4701,-4.4624,-4.4479,-4.4318,-4.4045,-4.3878,-4.3812,-4.3649,-4.3531,-4.3479,-4.3479,-4.3479,-4.3479,-4.3479,-4.3479,-4.3479,-4.3479,-4.3479,-4.3479,-4.3479,-4.3479,-4.3479,-4.3479,-4.3479,-4.3479,-4.3479,-4.3479,-4.3515,-4.3515,-4.3496,-4.3548,-4.3765,-4.3894,-4.3939,-4.3952,-4.3946,-4.3857,-4.3747,-4.3666,-4.36,-4.3828,-4.3857,-4.3631,-4.3513,-4.3496,-4.3631,-4.3597,-4.3647,-4.3548,-4.3496,-4.3513,-5.1132,-5.0302,-5.0302,-5.0302,-5.0302,-5.0302,-5.0302,-5.0302,-5.0302,-5.0302,-5.0302,-5.0302,-5.0054,-4.9576,-4.9232,-4.8594,-4.7589,-4.6825,-4.6233,-4.5851,-4.5468,-4.5316,-4.5277,-4.5277,-4.5277,-4.5277,-4.5277,-4.5277,-4.5277,-4.5277,-4.5277,-4.5277,-4.5277,-4.5277,-4.5277,-4.5277,-4.5277,-4.5277,-4.5277,-4.5277,-4.5277,-4.5277,-4.5277,-4.5277,-4.5277,-4.5277,-4.5277,-4.5277,-4.5277,-4.5277,-4.5277,-4.5277,-4.5277,-4.5277,-4.5277,-4.5277,-4.5277,-4.5258,-4.5277,-4.5277,-4.5277,-4.5297,-4.5277,-4.5205,-4.5023,-4.491,-4.4701,-4.4572,-4.4336,-4.421,-4.4121,-4.3892,-4.3666,-4.3513,-4.3479,-4.3496,-4.3496,-4.3479,-4.3479,-4.3479,-4.3479,-4.3479,-4.3479,-4.3479,-4.3479,-4.3479,-4.3479,-4.3479,-4.3479,-4.3496,-4.3513,-4.3566,-4.3666,-4.373,-4.3825,-4.4014,-4.4177,-4.4236,-4.4279,-4.4289,-4.4202,-4.4057,-4.398,-4.3949,-4.4106,-4.4121,-4.3921,-4.3807,-4.3931,-4.3977,-4.3886,-4.3809,-4.3763,-4.3697,-4.3664,-5.1296,-5.0302,-5.0302,-5.0302,-5.0302,-5.0302,-5.0302,-5.0302,-5.0302,-5.0302,-5.0302,-5.0302,-5.0264,-5.0264,-4.9595,-4.9156,-4.8907,-4.7608,-4.6806,-4.6271,-4.5717,-4.5297,-4.5277,-4.5277,-4.5277,-4.5277,-4.5277,-4.5277,-4.5277,-4.5277,-4.5277,-4.5277,-4.5277,-4.5277,-4.5277,-4.5277,-4.5277,-4.5277,-4.5277,-4.5277,-4.5277,-4.5277,-4.5277,-4.5277,-4.5277,-4.5277,-4.5307,-4.5307,-4.5317,-4.5317,-4.5288,-4.5277,-4.5277,-4.5277,-4.5277,-4.5277,-4.5297,-4.5307,-4.5307,-4.5317,-4.5298,-4.5309,-4.5298,-4.5307,-4.5235,-4.5065,-4.491,-4.4875,-4.4599,-4.4438,-4.4332,-4.4166,-4.3971,-4.3744,-4.3647,-4.3597,-4.3582,-4.3531,-4.3479,-4.3479,-4.3479,-4.3479,-4.3479,-4.3479,-4.3479,-4.3479,-4.3479,-4.3479,-4.3548,-4.3615,-4.3632,-4.3649,-4.3812,-4.4014,-4.4132,-4.4279,-4.443,-4.4565,-4.4623,-4.463,-4.4604,-4.4498,-4.443,-4.4402,-4.4388,-4.436,-4.4289,-4.427,-4.4327,-4.4285,-4.4158,-4.4132,-4.4106,-4.4026,-4.3996,-5.1748,-5.0302,-5.0302,-5.0302,-5.0302,-5.0302,-5.0302,-5.0302,-5.0302,-5.0302,-5.0302,-5.0302,-5.0302,-5.0302,-5.0034,-4.971,-4.9186,-4.8487,-4.7876,-4.6424,-4.566,-4.5316,-4.5277,-4.5277,-4.5277,-4.5277,-4.5277,-4.5277,-4.5277,-4.5277,-4.5277,-4.5277,-4.5277,-4.5277,-4.5277,-4.5277,-4.5277,-4.5277,-4.5277,-4.5277,-4.5277,-4.5277,-4.5307,-4.5307,-4.5307,-4.5288,-4.5317,-4.5348,-4.5388,-4.5378,-4.5347,-4.5298,-4.5288,-4.5297,-4.5307,-4.5307,-4.5307,-4.5328,-4.5359,-4.5388,-4.5389,-4.537,-4.537,-4.5388,-4.5369,-4.5267,-4.5184,-4.5132,-4.4891,-4.4644,-4.4465,-4.4374,-4.426,-4.4188,-4.4158,-4.4173,-4.4129,-4.3809,-4.358,-4.3548,-4.3548,-4.3496,-4.3513,-4.3565,-4.3565,-4.3513,-4.3513,-4.3496,-4.3632,-4.3798,-4.3828,-4.3873,-4.4102,-4.4303,-4.4388,-4.4538,-4.4752,-4.485,-4.4905,-4.4929,-4.4887,-4.485,-4.4733,-4.4656,-4.4599,-4.4572,-4.4604,-4.4511,-4.4525,-4.4471,-4.4457,-4.4416,-4.4388,-4.4332,-4.4231,-5.1894,-5.034,-5.0302,-5.0302,-5.0302,-5.0302,-5.0302,-5.0302,-5.0302,-5.0302,-5.0302,-5.0302,-5.0302,-5.0302,-5.0283,-5.0034,-4.9519,-4.8754,-4.7761,-4.6538,-4.5698,-4.5297,-4.5277,-4.5277,-4.5277,-4.5277,-4.5277,-4.5277,-4.5277,-4.5277,-4.5277,-4.5277,-4.5277,-4.5277,-4.5277,-4.5277,-4.5277,-4.5277,-4.5277,-4.5277,-4.5277,-4.5277,-4.5317,-4.5348,-4.5339,-4.5341,-4.537,-4.5361,-4.54,-4.539,-4.537,-4.535,-4.5319,-4.5317,-4.5317,-4.5357,-4.5338,-4.5369,-4.539,-4.54,-4.5409,-4.541,-4.5419,-4.5409,-4.54,-4.5361,-4.5351,-4.5301,-4.5159,-4.4966,-4.4707,-4.4688,-4.465,-4.4538,-4.4506,-4.4474,-4.4419,-4.414,-4.3934,-4.3934,-4.3946,-4.3946,-4.3915,-4.3855,-4.3902,-4.3962,-4.3977,-4.3977,-4.4008,-4.4147,-4.4162,-4.4231,-4.4438,-4.4585,-4.4669,-4.4826,-4.5053,-4.5129,-4.5151,-4.5162,-4.5151,-4.5076,-4.5,-4.4953,-4.4887,-4.4965,-4.4953,-4.4845,-4.4777,-4.4881,-4.4862,-4.4745,-4.465,-4.4599,-4.4479,-5.1947,-5.0314,-5.0302,-5.0302,-5.0302,-5.0302,-5.0302,-5.0302,-5.0302,-5.0302,-5.0302,-5.0302,-5.0302,-5.0302,-5.0302,-5.0302,-4.9882,-4.885,-4.7723,-4.6833,-4.5984,-4.5526,-4.5383,-4.5319,-4.5319,-4.5288,-4.5277,-4.5277,-4.5277,-4.5277,-4.5277,-4.5277,-4.5277,-4.5277,-4.5277,-4.5288,-4.5307,-4.5317,-4.5328,-4.5309,-4.5319,-4.5319,-4.5359,-4.5389,-4.539,-4.539,-4.539,-4.541,-4.5419,-4.5419,-4.5419,-4.541,-4.539,-4.535,-4.5329,-4.5399,-4.5399,-4.54,-4.5419,-4.5438,-4.5438,-4.5429,-4.5419,-4.5438,-4.5429,-4.54,-4.539,-4.539,-4.5332,-4.5263,-4.5085,-4.5041,-4.4943,-4.4806,-4.4751,-4.472,-4.4695,-4.4624,-4.4559,-4.4383,-4.4313,-4.4266,-4.4299,-4.427,-4.4341,-4.4416,-4.4411,-4.4411,-4.4425,-4.4465,-4.4465,-4.4552,-4.4733,-4.4875,-4.4934,-4.4965,-4.5213,-4.5256,-4.5277,-4.5277,-4.5277,-4.5235,-4.5162,-4.5224,-4.5194,-4.5224,-4.5194,-4.5129,-4.514,-4.5277,-4.5235,-4.5053,-4.4946,-4.4879,-4.4739,-5.197,-5.039,-5.0325,-5.0302,-5.0302,-5.0302,-5.0302,-5.0302,-5.0302,-5.0302,-5.0302,-5.0302,-5.0302,-5.0302,-5.0302,-5.0302,-5.0034,-4.9156,-4.8364,-4.7524,-4.6655,-4.5986,-4.5551,-4.5438,-4.541,-4.5309,-4.5319,-4.533,-4.5288,-4.5277,-4.5277,-4.5277,-4.5307,-4.5307,-4.5307,-4.5288,-4.5338,-4.5388,-4.5379,-4.537,-4.537,-4.5371,-4.54,-4.541,-4.5419,-4.5419,-4.5429,-4.5467,-4.5485,-4.5485,-4.5475,-4.5485,-4.5467,-4.5419,-4.539,-4.541,-4.541,-4.5429,-4.5476,-4.5485,-4.5513,-4.5531,-4.5513,-4.5495,-4.5476,-4.5457,-4.5429,-4.5419,-4.5419,-4.539,-4.5361,-4.5312,-4.5322,-4.5253,-4.5203,-4.5232,-4.5203,-4.5161,-4.5019,-4.4745,-4.4644,-4.4593,-4.4631,-4.4644,-4.4644,-4.4657,-4.4644,-4.4631,-4.4637,-4.4688,-4.4751,-4.4887,-4.5042,-4.5151,-4.5235,-4.5194,-4.5267,-4.5267,-4.5277,-4.5277,-4.5277,-4.5277,-4.5277,-4.5277,-4.5277,-4.5267,-4.5267,-4.5277,-4.5277,-4.5277,-4.5297,-4.5286,-4.5184,-4.5068,-4.5121,-5.1598,-5.042,-5.0325,-5.0302,-5.0302,-5.0302,-5.0302,-5.0302,-5.0302,-5.0302,-5.0302,-5.0302,-5.0302,-5.0302,-5.0302,-5.0302,-5.0092,-4.9461,-4.8906,-4.8328,-4.7258,-4.6493,-4.6022,-4.5819,-4.5582,-4.5528,-4.5535,-4.5437,-4.5309,-4.5277,-4.5298,-4.5307,-4.5347,-4.5367,-4.5359,-4.536,-4.538,-4.5409,-4.5409,-4.5419,-4.541,-4.5429,-4.5448,-4.5448,-4.5466,-4.5504,-4.5504,-4.5522,-4.5559,-4.5559,-4.5559,-4.5559,-4.555,-4.5513,-4.5466,-4.5448,-4.5448,-4.5485,-4.5531,-4.5559,-4.5568,-4.5586,-4.5568,-4.554,-4.555,-4.5541,-4.5495,-4.5504,-4.5504,-4.5504,-4.5495,-4.5495,-4.5504,-4.5523,-4.5495,-4.5495,-4.5504,-4.5504,-4.5322,-4.5096,-4.5066,-4.5033,-4.5022,-4.5011,-4.4966,-4.4912,-4.4889,-4.4853,-4.483,-4.4919,-4.503,-4.5094,-4.5227,-4.5256,-4.5328,-4.5317,-4.5288,-4.5277,-4.5307,-4.5307,-4.5277,-4.5277,-4.5277,-4.5277,-4.5277,-4.5277,-4.5277,-4.5277,-4.5277,-4.5277,-4.5297,-4.5297,-4.5297,-4.5277,-4.5277,-5.1275,-5.0435,-5.0367,-5.0325,-5.0333,-5.0302,-5.0302,-5.0302,-5.0302,-5.0302,-5.0302,-5.0302,-5.0302,-5.0302,-5.0302,-5.0283,-5.0245,-4.9629,-4.9395,-4.897,-4.8058,-4.733,-4.6966,-4.6477,-4.6065,-4.6104,-4.5828,-4.5694,-4.5473,-4.5438,-4.541,-4.54,-4.5419,-4.5448,-4.5448,-4.541,-4.5429,-4.5447,-4.5429,-4.5419,-4.5467,-4.5495,-4.5513,-4.5513,-4.5577,-4.5586,-4.5586,-4.5586,-4.5586,-4.5586,-4.5586,-4.5594,-4.5594,-4.5594,-4.5577,-4.5522,-4.5513,-4.5559,-4.5577,-4.5586,-4.5586,-4.5594,-4.5594,-4.5594,-4.5586,-4.5577,-4.5586,-4.5594,-4.5586,-4.5586,-4.5577,-4.5586,-4.5586,-4.5586,-4.5586,-4.5586,-4.5586,-4.5577,-4.5577,-4.5457,-4.5466,-4.5391,-4.5293,-4.5273,-4.5203,-4.5171,-4.514,-4.5161,-4.515,-4.5211,-4.5292,-4.5321,-4.538,-4.5369,-4.5388,-4.5348,-4.5309,-4.5288,-4.5317,-4.5328,-4.5317,-4.5277,-4.5277,-4.5277,-4.5277,-4.5277,-4.5277,-4.5277,-4.5277,-4.5277,-4.5277,-4.5277,-4.5277,-4.5277,-4.5277,-5.1341,-5.0572,-5.0435,-5.0371,-5.0379,-5.0325,-5.0302,-5.0302,-5.0302,-5.0302,-5.0302,-5.0302,-5.0302,-5.0302,-5.0302,-5.0302,-5.0272,-5.0248,-4.9931,-4.9481,-4.9054,-4.8597,-4.8125,-4.7439,-4.7076,-4.6866,-4.6346,-4.5891,-4.578,-4.578,-4.566,-4.5587,-4.5555,-4.5591,-4.5602,-4.5526,-4.551,-4.561,-4.5545,-4.5522,-4.5559,-4.5577,-4.5558,-4.5586,-4.5586,-4.5594,-4.5594,-4.5594,-4.5594,-4.5594,-4.5594,-4.5594,-4.5594,-4.5594,-4.5594,-4.5586,-4.5586,-4.5586,-4.5594,-4.5594,-4.5594,-4.5594,-4.5594,-4.5594,-4.5594,-4.5594,-4.5594,-4.5594,-4.5594,-4.5594,-4.5594,-4.5594,-4.5594,-4.5594,-4.5594,-4.5594,-4.5594,-4.5594,-4.5594,-4.5594,-4.5531,-4.5513,-4.5467,-4.5457,-4.5448,-4.5429,-4.541,-4.5419,-4.5419,-4.5457,-4.5457,-4.5457,-4.5429,-4.5438,-4.5419,-4.538,-4.535,-4.5309,-4.5338,-4.5348,-4.5338,-4.5317,-4.5277,-4.5277,-4.5277,-4.5277,-4.5277,-4.5277,-4.5277,-4.5277,-4.5277,-4.5277,-4.5277,-4.5277,-4.5277,-5.1043,-5.0612,-5.0457,-5.0382,-5.0382,-5.0359,-5.0367,-5.0359,-5.0393,-5.0401,-5.0379,-5.0348,-5.0337,-5.0314,-5.0302,-5.0314,-5.0374,-5.0498,-5.047,-5.0119,-4.9864,-4.9528,-4.9153,-4.8533,-4.8093,-4.7843,-4.733,-4.694,-4.6634,-4.6114,-4.5751,-4.5744,-4.5737,-4.577,-4.577,-4.5729,-4.5737,-4.577,-4.5706,-4.566,-4.562,-4.5594,-4.5594,-4.5594,-4.5603,-4.5594,-4.5594,-4.5594,-4.5594,-4.5594,-4.5594,-4.5594,-4.5594,-4.5594,-4.5594,-4.5594,-4.5594,-4.5594,-4.5594,-4.5594,-4.5594,-4.5594,-4.5594,-4.5594,-4.5594,-4.5594,-4.5594,-4.5594,-4.5594,-4.5594,-4.5594,-4.5594,-4.5594,-4.5594,-4.5594,-4.5594,-4.5594,-4.5594,-4.5594,-4.5594,-4.5594,-4.5568,-4.5559,-4.555,-4.5522,-4.5513,-4.5504,-4.5504,-4.5513,-4.555,-4.555,-4.5541,-4.5505,-4.5467,-4.5438,-4.5419,-4.54,-4.5361,-4.5369,-4.5379,-4.5359,-4.5338,-4.5307,-4.5277,-4.5277,-4.5277,-4.5277,-4.5277,-4.5277,-4.5277,-4.5277,-4.5277,-4.5277,-4.5277,-4.5277,-5.0884,-5.071,-5.0596,-5.0536,-5.0493,-5.0502,-5.0459,-5.0416,-5.0459,-5.0478,-5.0435,-5.0404,-5.0401,-5.0382,-5.0407,-5.0464,-5.0495,-5.0661,-5.0801,-5.0714,-5.0517,-5.0328,-5.0057,-4.9572,-4.9093,-4.9013,-4.8223,-4.786,-4.7557,-4.7085,-4.6542,-4.5942,-4.5924,-4.5949,-4.5929,-4.5883,-4.5878,-4.5867,-4.5821,-4.5775,-4.5696,-4.5665,-4.5673,-4.5668,-4.5654,-4.5637,-4.5603,-4.5594,-4.5594,-4.5594,-4.5594,-4.5594,-4.5594,-4.5594,-4.5594,-4.5594,-4.5594,-4.5594,-4.5594,-4.5594,-4.5594,-4.5594,-4.5594,-4.5594,-4.5594,-4.5594,-4.5594,-4.5594,-4.5594,-4.5594,-4.5594,-4.5594,-4.5594,-4.5594,-4.5594,-4.5594,-4.5594,-4.5594,-4.5594,-4.5594,-4.5594,-4.5594,-4.5586,-4.5586,-4.5586,-4.5594,-4.5594,-4.5594,-4.5594,-4.5586,-4.5586,-4.5568,-4.5532,-4.5505,-4.5476,-4.5467,-4.5429,-4.5429,-4.5409,-4.5399,-4.5379,-4.5338,-4.5307,-4.5277,-4.5288,-4.5277,-4.5277,-4.5277,-4.5277,-4.5277,-4.5277,-4.5277,-4.5277,-4.5277,-4.5277,-5.0996,-5.0952,-5.0959,-5.0894,-5.0769,-5.0707,-5.0616,-5.0525,-5.0523,-5.0523,-5.0532,-5.05,-5.0492,-5.0513,-5.0577,-5.0633,-5.0678,-5.0946,-5.1027,-5.1113,-5.118,-5.1122,-5.0873,-5.0418,-4.9981,-4.9842,-4.9148,-4.8757,-4.8638,-4.8328,-4.7375,-4.6336,-4.6376,-4.6185,-4.6092,-4.6098,-4.5964,-4.5949,-4.5914,-4.5897,-4.585,-4.5832,-4.5815,-4.5794,-4.5778,-4.5727,-4.5612,-4.562,-4.5603,-4.5603,-4.5594,-4.5594,-4.5594,-4.5594,-4.5594,-4.5594,-4.5594,-4.5594,-4.5594,-4.5594,-4.5594,-4.5594,-4.5594,-4.5594,-4.5594,-4.5594,-4.5594,-4.5594,-4.5594,-4.5594,-4.5594,-4.5594,-4.5594,-4.5594,-4.5594,-4.5594,-4.5594,-4.5594,-4.5594,-4.5594,-4.5594,-4.5594,-4.5594,-4.5594,-4.5594,-4.5594,-4.5594,-4.5594,-4.5594,-4.5594,-4.5594,-4.5577,-4.555,-4.5513,-4.5504,-4.5495,-4.5495,-4.5448,-4.5438,-4.5419,-4.5409,-4.535,-4.5319,-4.5309,-4.5329,-4.5298,-4.5288,-4.5298,-4.5309,-4.5288,-4.5277,-4.5277,-4.5277,-4.5277,-4.5277,-5.1229,-5.1248,-5.1241,-5.1123,-5.0937,-5.0903,-5.0859,-5.0813,-5.0801,-5.0756,-5.0682,-5.0635,-5.0576,-5.0576,-5.0644,-5.0733,-5.0789,-5.0989,-5.1094,-5.1191,-5.1304,-5.1377,-5.121,-5.1113,-5.0904,-5.067,-5.0028,-4.9597,-4.9577,-4.9228,-4.8617,-4.7801,-4.7323,-4.7075,-4.6905,-4.6398,-4.6137,-4.6041,-4.6024,-4.5992,-4.5905,-4.5899,-4.5878,-4.5863,-4.5871,-4.5822,-4.5749,-4.5719,-4.5676,-4.5629,-4.5603,-4.5603,-4.5594,-4.5594,-4.5594,-4.5594,-4.5594,-4.5594,-4.5594,-4.5594,-4.5594,-4.5594,-4.5594,-4.5594,-4.5594,-4.5594,-4.5594,-4.5594,-4.5594,-4.5594,-4.5594,-4.5594,-4.5594,-4.5594,-4.5594,-4.5594,-4.5594,-4.5594,-4.5594,-4.5594,-4.5594,-4.5594,-4.5594,-4.5594,-4.5594,-4.5594,-4.5594,-4.5594,-4.5594,-4.5594,-4.5594,-4.5594,-4.5568,-4.5559,-4.554,-4.554,-4.554,-4.5513,-4.5485,-4.5448,-4.5438,-4.54,-4.538,-4.5361,-4.5351,-4.5351,-4.5341,-4.535,-4.5329,-4.5328,-4.5307,-4.5277,-4.5277,-4.5277,-4.5277,-5.1394,-5.1394,-5.1394,-5.1275,-5.1061,-5.105,-5.1027,-5.0997,-5.0984,-5.0946,-5.0852,-5.0801,-5.0756,-5.0724,-5.0801,-5.0891,-5.0991,-5.1108,-5.1191,-5.1291,-5.1355,-5.1392,-5.1394,-5.1355,-5.1258,-5.1238,-5.0906,-5.0475,-5.0455,-4.9852,-4.9675,-4.938,-4.8757,-4.8267,-4.7331,-4.6766,-4.6264,-4.6181,-4.6144,-4.6112,-4.6041,-4.6017,-4.5992,-4.5983,-4.5969,-4.5914,-4.5847,-4.5822,-4.5773,-4.5704,-4.566,-4.5627,-4.562,-4.5594,-4.5594,-4.5594,-4.5594,-4.5594,-4.5594,-4.5594,-4.5594,-4.5594,-4.5594,-4.5594,-4.5594,-4.5594,-4.5594,-4.5594,-4.5594,-4.5594,-4.5594,-4.5594,-4.5594,-4.5594,-4.5594,-4.5594,-4.5594,-4.5594,-4.5594,-4.5594,-4.5594,-4.5614,-4.5594,-4.5594,-4.5594,-4.5594,-4.5594,-4.5594,-4.5594,-4.5594,-4.5594,-4.5594,-4.5586,-4.5586,-4.5594,-4.5586,-4.5549,-4.554,-4.5522,-4.5504,-4.5476,-4.5457,-4.541,-4.54,-4.54,-4.54,-4.541,-4.538,-4.536,-4.5348,-4.5328,-4.5288,-4.5277,-4.5277,-4.5277,-5.1394,-5.1394,-5.1394,-5.1325,-5.1219,-5.1199,-5.1132,-5.1047,-5.1036,-5.102,-5.0996,-5.099,-5.0978,-5.0984,-5.1047,-5.1113,-5.1146,-5.1271,-5.1364,-5.1367,-5.1369,-5.1394,-5.1394,-5.1394,-5.1394,-5.1394,-5.1219,-5.1141,-5.1258,-5.0965,-5.1023,-5.0809,-4.9987,-4.905,-4.7686,-4.6788,-4.6358,-4.6318,-4.6372,-4.6386,-4.6245,-4.6219,-4.6176,-4.6131,-4.6098,-4.6037,-4.5944,-4.5938,-4.5877,-4.5789,-4.578,-4.5723,-4.5635,-4.5618,-4.5601,-4.5594,-4.5594,-4.5594,-4.5594,-4.5594,-4.5594,-4.5594,-4.5594,-4.5594,-4.5594,-4.5594,-4.5594,-4.5594,-4.5594,-4.5594,-4.5594,-4.5594,-4.5594,-4.5594,-4.5594,-4.5594,-4.5594,-4.5893,-4.597,-4.6009,-4.5787,-4.5614,-4.5614,-4.5594,-4.5594,-4.5594,-4.5594,-4.5594,-4.5594,-4.5594,-4.5594,-4.5594,-4.5594,-4.5594,-4.5594,-4.5594,-4.5586,-4.5577,-4.5549,-4.5531,-4.5513,-4.5485,-4.5467,-4.5419,-4.5438,-4.5476,-4.5438,-4.541,-4.539,-4.538,-4.5329,-4.5309,-4.5288,-4.5307,-4.5307,-5.1394,-5.1394,-5.1394,-5.1386,-5.133,-5.133,-5.1297,-5.1262,-5.1258,-5.1211,-5.1146,-5.1137,-5.1088,-5.1063,-5.1117,-5.1207,-5.1241,-5.133,-5.1394,-5.1394,-5.1394,-5.1394,-5.1394,-5.1394,-5.1394,-5.1394,-5.1394,-5.1394,-5.1355,-5.1394,-5.1394,-5.118,-5.0592,-4.9519,-4.8662,-4.7978,-4.7803,-4.7295,-4.7137,-4.6944,-4.6399,-4.6339,-4.6312,-4.6236,-4.6216,-4.615,-4.6049,-4.6041,-4.5993,-4.5881,-4.5883,-4.5816,-4.5737,-4.5727,-4.5673,-4.5618,-4.5594,-4.5594,-4.5594,-4.5594,-4.5594,-4.5594,-4.5594,-4.5594,-4.5594,-4.5594,-4.5594,-4.5652,-4.5729,-4.571,-4.5594,-4.5633,-4.5633,-4.5594,-4.5594,-4.5594,-4.571,-4.6259,-4.6567,-4.6586,-4.6471,-4.596,-4.5748,-4.5671,-4.5652,-4.5787,-4.5845,-4.5671,-4.5614,-4.5594,-4.5594,-4.5594,-4.5594,-4.5594,-4.5633,-4.5864,-4.5855,-4.5817,-4.5701,-4.5586,-4.5559,-4.5522,-4.5522,-4.5513,-4.5522,-4.5522,-4.5504,-4.5485,-4.5448,-4.541,-4.54,-4.537,-4.5369,-4.5348,-4.5357,-5.1394,-5.1394,-5.1394,-5.1394,-5.1394,-5.1394,-5.1394,-5.1394,-5.1394,-5.1357,-5.1288,-5.1258,-5.1222,-5.1195,-5.1214,-5.1262,-5.1284,-5.1357,-5.1394,-5.1394,-5.1394,-5.1394,-5.1394,-5.1394,-5.1394,-5.1394,-5.1394,-5.1394,-5.1394,-5.1394,-5.1394,-5.1238,-5.0828,-5.0399,-4.9696,-4.9189,-4.8486,-4.8057,-4.7939,-4.7627,-4.7081,-4.6768,-4.6632,-4.6396,-4.6277,-4.6247,-4.6203,-4.6164,-4.6125,-4.6024,-4.5964,-4.5924,-4.5865,-4.5822,-4.5787,-4.5704,-4.562,-4.5612,-4.5594,-4.5594,-4.5594,-4.5594,-4.5594,-4.5594,-4.5594,-4.5594,-4.5855,-4.597,-4.5998,-4.6249,-4.6336,-4.6297,-4.6317,-4.6336,-4.6355,-4.6394,-4.6528,-4.7144,-4.7317,-4.7308,-4.6951,-4.6432,-4.5845,-4.5787,-4.5729,-4.5922,-4.6086,-4.5922,-4.5787,-4.5806,-4.5922,-4.6009,-4.6018,-4.6095,-4.6201,-4.6374,-4.6297,-4.6086,-4.599,-4.5913,-4.5586,-4.5568,-4.5586,-4.5594,-4.5577,-4.5568,-4.5577,-4.5559,-4.5523,-4.5495,-4.5505,-4.5458,-4.5429,-4.5409,-4.5389,-5.1394,-5.1394,-5.1394,-5.1394,-5.1394,-5.1394,-5.1394,-5.1394,-5.1394,-5.1392,-5.1392,-5.1388,-5.136,-5.1369,-5.1392,-5.1388,-5.1367,-5.1392,-5.1394,-5.1394,-5.1394,-5.1394,-5.1394,-5.1394,-5.1394,-5.1394,-5.1394,-5.1394,-5.1394,-5.1394,-5.1394,-5.1394,-5.1258,-5.1043,-5.0575,-4.9989,-4.9208,-4.8954,-4.8798,-4.8388,-4.7803,-4.7606,-4.7334,-4.7022,-4.6807,-4.6805,-4.6739,-4.66,-4.6443,-4.63,-4.6141,-4.6033,-4.5964,-4.591,-4.5871,-4.5787,-4.5687,-4.5646,-4.5594,-4.5594,-4.5594,-4.5594,-4.5594,-4.5594,-4.5594,-4.5633,-4.5951,-4.6394,-4.6644,-4.7259,-4.7663,-4.7702,-4.774,-4.774,-4.7759,-4.7778,-4.7817,-4.8029,-4.8105,-4.7932,-4.7413,-4.6797,-4.5932,-4.571,-4.6163,-4.6413,-4.6644,-4.6701,-4.6547,-4.6345,-4.6509,-4.6817,-4.6797,-4.674,-4.6855,-4.7067,-4.7028,-4.6913,-4.6624,-4.6451,-4.6067,-4.5671,-4.5594,-4.5594,-4.5594,-4.5594,-4.5586,-4.5586,-4.5586,-4.5577,-4.5559,-4.5504,-4.5458,-4.5429,-4.5419,-5.1394,-5.1394,-5.1394,-5.1394,-5.1394,-5.1394,-5.1394,-5.1394,-5.1394,-5.1394,-5.1394,-5.1394,-5.1394,-5.1394,-5.1394,-5.1394,-5.1394,-5.1394,-5.1394,-5.1394,-5.1394,-5.1394,-5.1394,-5.1394,-5.1394,-5.1394,-5.1394,-5.1394,-5.1394,-5.1394,-5.1394,-5.1394,-5.1394,-5.1394,-5.1219,-5.0887,-5.0301,-4.987,-4.9735,-4.9208,-4.8701,-4.8466,-4.8154,-4.7959,-4.7842,-4.7842,-4.7803,-4.7412,-4.7223,-4.7101,-4.6533,-4.6215,-4.6057,-4.6041,-4.5993,-4.5834,-4.5769,-4.5723,-4.5629,-4.5594,-4.5603,-4.5631,-4.5642,-4.5594,-4.5594,-4.5787,-4.6133,-4.6721,-4.725,-4.7798,-4.8317,-4.8509,-4.8567,-4.8567,-4.8567,-4.8586,-4.8644,-4.8856,-4.8913,-4.8625,-4.8105,-4.7317,-4.6413,-4.6355,-4.6797,-4.7028,-4.7259,-4.7413,-4.7355,-4.7182,-4.724,-4.7567,-4.7528,-4.7471,-4.7663,-4.7875,-4.7817,-4.7721,-4.7471,-4.7115,-4.6663,-4.6259,-4.5806,-4.5594,-4.5594,-4.5594,-4.5594,-4.5594,-4.5594,-4.5594,-4.5577,-4.5531,-4.5504,-4.5485,-4.5476,-5.1394,-5.1394,-5.1394,-5.1394,-5.1394,-5.1394,-5.1394,-5.1394,-5.1394,-5.1394,-5.1394,-5.1394,-5.1394,-5.1394,-5.1394,-5.1394,-5.1394,-5.1394,-5.1394,-5.1394,-5.1394,-5.1394,-5.1394,-5.1394,-5.1394,-5.1394,-5.1394,-5.1394,-5.1394,-5.1394,-5.1394,-5.1394,-5.1394,-5.1394,-5.1336,-5.1238,-5.1082,-5.077,-5.0494,-5.0046,-4.9638,-4.9267,-4.915,-4.8935,-4.8876,-4.8876,-4.8837,-4.8271,-4.8016,-4.7684,-4.6944,-4.6583,-4.6329,-4.6135,-4.6084,-4.5936,-4.5853,-4.5809,-4.5754,-4.5704,-4.57,-4.5775,-4.5954,-4.6133,-4.6163,-4.6297,-4.6778,-4.7317,-4.7778,-4.824,-4.874,-4.9163,-4.9163,-4.9183,-4.9183,-4.9183,-4.9413,-4.9663,-4.9548,-4.9336,-4.874,-4.7971,-4.7509,-4.7413,-4.7586,-4.8086,-4.849,-4.8759,-4.8548,-4.8163,-4.824,-4.849,-4.8336,-4.8182,-4.8471,-4.874,-4.8663,-4.8606,-4.8471,-4.8067,-4.7451,-4.6759,-4.622,-4.5864,-4.5594,-4.5594,-4.5594,-4.5594,-4.5594,-4.5594,-4.5594,-4.5577,-4.5559,-4.5559,-4.5541,-5.1394,-5.1394,-5.1394,-5.1394,-5.1394,-5.1394,-5.1394,-5.1394,-5.1394,-5.1394,-5.1394,-5.1394,-5.1394,-5.1394,-5.1394,-5.1394,-5.1394,-5.1394,-5.1394,-5.1394,-5.1394,-5.1394,-5.1394,-5.1394,-5.1394,-5.1394,-5.1394,-5.1394,-5.1394,-5.1394,-5.1394,-5.1394,-5.1394,-5.1394,-5.1394,-5.1394,-5.1277,-5.1219,-5.1102,-5.0848,-5.0416,-5.0104,-4.9852,-4.9286,-4.9169,-4.915,-4.9111,-4.8857,-4.8564,-4.8074,-4.7606,-4.7293,-4.6733,-4.6206,-4.6154,-4.6057,-4.5969,-4.5894,-4.5935,-4.6003,-4.6066,-4.6262,-4.6576,-4.6934,-4.7066,-4.6987,-4.7413,-4.8048,-4.8567,-4.9144,-4.9663,-4.9913,-4.9971,-4.9971,-4.9971,-4.9971,-5.0087,-5.0164,-4.9933,-4.9663,-4.9202,-4.8471,-4.7971,-4.7855,-4.8298,-4.899,-4.951,-4.9837,-4.9663,-4.9163,-4.9163,-4.9356,-4.9279,-4.9221,-4.9567,-4.976,-4.9567,-4.9471,-4.9298,-4.8952,-4.8298,-4.749,-4.6624,-4.624,-4.5902,-4.5671,-4.5594,-4.5594,-4.5594,-4.5594,-4.5594,-4.5594,-4.5586,-4.5586,-4.5577,-5.1394,-5.1394,-5.1394,-5.1394,-5.1394,-5.1394,-5.1394,-5.1394,-5.1394,-5.1394,-5.1394,-5.1394,-5.1394,-5.1394,-5.1394,-5.1394,-5.1394,-5.1394,-5.1394,-5.1394,-5.1394,-5.1394,-5.1394,-5.1394,-5.1394,-5.1394,-5.1394,-5.1394,-5.1394,-5.1394,-5.1394,-5.1394,-5.1394,-5.1394,-5.1394,-5.1394,-5.1394,-5.1394,-5.1355,-5.1316,-5.1045,-5.1043,-5.0906,-5.0711,-5.0653,-5.0575,-5.0418,-5.0028,-4.9792,-4.946,-4.8798,-4.8135,-4.7352,-4.6659,-4.6265,-4.6128,-4.6064,-4.6009,-4.6115,-4.6385,-4.6688,-4.7065,-4.7481,-4.7888,-4.8056,-4.7899,-4.8143,-4.8817,-4.9413,-5.001,-5.0423,-5.0567,-5.0683,-5.0683,-5.0683,-5.0683,-5.0683,-5.05,-5.0289,-4.9942,-4.9548,-4.9106,-4.8586,-4.8644,-4.9067,-4.9567,-5.0135,-5.0442,-5.0394,-5.0106,-4.999,-5.0125,-5.026,-5.0337,-5.0596,-5.051,-5.0183,-4.9971,-4.9779,-4.9452,-4.9086,-4.8202,-4.7278,-4.6663,-4.624,-4.5951,-4.571,-4.5594,-4.5594,-4.5594,-4.5594,-4.5594,-4.5594,-4.5586,-4.5594,-5.1394,-5.1394,-5.1394,-5.1394,-5.1394,-5.1394,-5.1394,-5.1394,-5.1394,-5.1394,-5.1394,-5.1394,-5.1394,-5.1394,-5.1394,-5.1394,-5.1394,-5.1394,-5.1394,-5.1394,-5.1394,-5.1394,-5.1394,-5.1394,-5.1394,-5.1394,-5.1394,-5.1394,-5.1396,-5.1394,-5.1394,-5.1394,-5.1394,-5.1394,-5.1394,-5.1394,-5.1394,-5.1394,-5.1394,-5.1398,-5.14,-5.1398,-5.1394,-5.1394,-5.1394,-5.1394,-5.1277,-5.0848,-5.0514,-4.9987,-4.9189,-4.8388,-4.7684,-4.7174,-4.6659,-4.6331,-4.6181,-4.6147,-4.6344,-4.6777,-4.7319,-4.7689,-4.8515,-4.8988,-4.9184,-4.9074,-4.9165,-4.976,-4.9971,-5.05,-5.0558,-5.0664,-5.0683,-5.0683,-5.0683,-5.0683,-5.0683,-5.0616,-5.05,-5.0366,-5.0135,-5.0029,-4.9663,-4.9683,-5.0038,-5.0048,-5.0616,-5.0654,-5.0693,-5.0683,-5.0683,-5.0683,-5.0683,-5.0683,-5.0644,-5.0644,-5.0567,-5.0394,-5.0202,-4.9837,-4.9394,-4.8682,-4.7952,-4.7259,-4.6624,-4.6124,-4.5913,-4.5729,-4.5614,-4.5594,-4.5594,-4.5594,-4.5594,-4.5594,-4.5594,-5.1394,-5.1394,-5.1394,-5.1394,-5.1394,-5.1394,-5.1394,-5.1394,-5.1394,-5.1394,-5.1394,-5.1394,-5.1394,-5.1394,-5.1394,-5.1394,-5.1394,-5.1394,-5.1394,-5.1394,-5.1394,-5.1394,-5.1394,-5.1394,-5.1396,-5.1398,-5.1398,-5.14,-5.1402,-5.1402,-5.1402,-5.1398,-5.1398,-5.1398,-5.1398,-5.1398,-5.14,-5.1402,-5.1384,-5.1385,-5.1384,-5.1384,-5.14,-5.1398,-5.1398,-5.1398,-5.1398,-5.126,-5.0889,-5.0344,-4.9586,-4.8786,-4.8083,-4.7595,-4.6931,-4.6515,-4.6261,-4.6357,-4.6661,-4.7298,-4.7674,-4.8174,-4.9318,-4.9951,-5.0126,-5.0201,-5.0279,-5.0401,-5.0618,-5.0681,-5.071,-5.073,-5.073,-5.0712,-5.0712,-5.0702,-5.0702,-5.0702,-5.0664,-5.0654,-5.0635,-5.0587,-5.0606,-5.0645,-5.0664,-5.0683,-5.0702,-5.0693,-5.0683,-5.0683,-5.0683,-5.0683,-5.0683,-5.0683,-5.0693,-5.0693,-5.0693,-5.0644,-5.0414,-5.0106,-4.974,-4.9144,-4.849,-4.7759,-4.7163,-4.6567,-4.6086,-4.5825,-4.5729,-4.5614,-4.5594,-4.5594,-4.5594,-4.5594,-4.5594,-5.1394,-5.1394,-5.1394,-5.1394,-5.1394,-5.1394,-5.1394,-5.1394,-5.1394,-5.1394,-5.1394,-5.1394,-5.1394,-5.1394,-5.1394,-5.1394,-5.1394,-5.1394,-5.1394,-5.1394,-5.1396,-5.1394,-5.1396,-5.14,-5.14,-5.1384,-5.1387,-5.139,-5.139,-5.1393,-5.1395,-5.1394,-5.1394,-5.1394,-5.1395,-5.1394,-5.1393,-5.1393,-5.1393,-5.1394,-5.1394,-5.1394,-5.1391,-5.1393,-5.1395,-5.1395,-5.1394,-5.139,-5.1294,-5.0944,-5.03,-4.9479,-4.8679,-4.7976,-4.7273,-4.6628,-4.6374,-4.6745,-4.7188,-4.8042,-4.8521,-4.9228,-5.0238,-5.083,-5.0915,-5.0869,-5.0915,-5.0891,-5.1003,-5.0905,-5.0901,-5.0859,-5.0855,-5.0764,-5.0739,-5.073,-5.073,-5.073,-5.073,-5.071,-5.071,-5.0691,-5.0691,-5.071,-5.071,-5.073,-5.0739,-5.0739,-5.0757,-5.074,-5.0702,-5.0721,-5.072,-5.0693,-5.0693,-5.0693,-5.0693,-5.0693,-5.0664,-5.0414,-5.0106,-4.9702,-4.9067,-4.8432,-4.7682,-4.7009,-4.6547,-4.6086,-4.5787,-4.5671,-4.5614,-4.5594,-4.5594,-4.5594,-4.5594]},{"header":{"parameterUnit":"m.s-1","parameterCategory":1,"la1":31.0,"la2":29.5877,"lo1":-88.7671,"lo2":-86.6584,"dy":0.0162,"dx":0.0185,"nx":115,"ny":88,"refTime":"2024-07-02T18:00:00:Z","depth":0,"parameterNumber":3,"parameterNumberName":"V-component_of_WINDS"},"data":[0.0,0.0,0.0,0.0,0.0,0.0,0.0,0.0,0.0,0.0,0.0,0.0,0.0,0.0,0.0,0.0,0.0,0.0,0.0,0.0,0.0,0.0,0.0,0.0,0.0,0.0,0.0,0.0,0.0,0.0,0.0,0.0,0.0,0.0,0.0,0.0,0.0,0.0,0.0,0.0,0.0,0.0,0.0,0.0,0.0,0.0,0.0,0.0,0.0,0.0,0.0,0.0,0.0,0.0,0.0,0.0,0.0,0.0,0.0,0.0,0.0,0.0,0.0,0.0,0.0,0.0,0.0,0.0,0.0,0.0,0.0,0.0,0.0,0.0,0.0,0.0,0.0,0.0,0.0,0.0,0.0,0.0,0.0,0.0,0.0,0.0,0.0,0.0,0.0,0.0,0.0,0.0,0.0,0.0,0.0,0.0,0.0,0.0,0.0,0.0,0.0,0.0,0.0,0.0,0.0,0.0,0.0,0.0,0.0,0.0,0.0,0.0,0.0,0.0,0.0,0.0,0.0,0.0,0.0,0.0,0.0,0.0,0.0,0.0,0.0,0.0,0.0,0.0,0.0,0.0,0.0,0.0,0.0,0.0,0.0,0.0,0.0,0.0,0.0,0.0,0.0,0.0,0.0,0.0,0.0,0.0,0.0,0.0,0.0,0.0,0.0,0.0,0.0,0.0,0.0,0.0,0.0,0.0,0.0,0.0,0.0,0.0,0.0,0.0,0.0,0.0,0.0,0.0,0.0,0.0,0.0,0.0,0.0,0.0,0.0,0.0,0.0,0.0,0.0,0.0,0.0,0.0,0.0,0.0,0.0,0.0,0.0,0.0,0.0,0.0,0.0,0.0,0.0,0.0,0.0,0.0,0.0,0.0,0.0,0.0,0.0,0.0,0.0,0.0,0.0,0.0,0.0,0.0,0.0,0.0,0.0,0.0,0.0,0.0,0.0,0.0,0.0,0.0,0.0,0.0,0.0,0.0,0.0,0.0,0.0,0.0,0.0,0.0,0.0,0.0,0.0,0.0,0.0,0.0,0.0,0.0,0.0,0.0,0.0,0.0,0.0,0.0,0.0,0.0,0.0,0.0,0.0,0.0,0.0,0.0,0.0,0.0,0.0,0.0,0.0,0.0,0.0,0.0,0.0,0.0,0.0,0.0,0.0,0.0,0.0,0.0,0.0,0.0,0.0,0.0,0.0,0.0,0.0,0.0,0.0,0.0,0.0,0.0,0.0,0.0,0.0,0.0,0.0,0.0,0.0,0.0,0.0,0.0,0.0,0.0,0.0,0.0,0.0,0.0,0.0,0.0,0.0,0.0,0.0,0.0,0.0,0.0,0.0,0.0,0.0,0.0,0.0,0.0,0.0,0.0,0.0,0.0,0.0,0.0,0.0,0.0,0.0,0.0,0.0,0.0,0.0,0.0,0.0,0.0,0.0,0.0,0.0,0.0,0.0,0.0,0.0,0.0,0.0,0.0,0.0,0.0,0.0,0.0,0.0,0.0,0.0,0.0,0.0,0.0,0.0,0.0,0.0,0.0,0.0,0.0,0.0,0.0,0.0,0.0,0.0,0.0,0.0,0.0,0.0,0.0,0.0,0.0,0.0,0.0,0.0,0.0,0.0,0.0,0.0,0.0,0.0,0.0,0.0,0.0,0.0,0.0,0.0,0.0,0.0,0.0,0.0,0.0,0.0,0.0,0.0,0.0,0.0,0.0,0.0,0.0,0.0,0.0,0.0,0.0,0.0,0.0,0.0,0.0,0.0,0.0,0.0,0.0,0.0,0.0,0.0,0.0,0.0,0.0,0.0,0.0,0.0,0.0,0.0,0.0,0.0,0.0,0.0,0.0,0.0,0.0,0.0,0.0,0.0,0.0,0.0,0.0,0.0,0.0,0.0,0.0,0.0,0.0,0.0,0.0,0.0,0.0,0.0,0.0,0.0,0.0,0.0,0.0,0.0,0.0,0.0,0.0,0.0,0.0,0.0,0.0,0.0,0.0,0.0,0.0,0.0,0.0,0.0,0.0,0.0,0.0,0.0,0.0,0.0,0.0,0.0,0.0,0.0,0.0,0.0,0.0,0.0,0.0,0.0,0.0,0.0,0.0,0.0,0.0,0.0,0.0,0.0,0.0,0.0,0.0,0.0,0.0,0.0,0.0,0.0,0.0,0.0,0.0,0.0,0.0,0.0,0.0,0.0,0.0,0.0,0.0,0.0,0.0,0.0,0.0,0.0,0.0,0.0,0.0,0.0,0.0,0.0,0.0,0.0,0.0,0.0,0.0,0.0,0.0,0.0,0.0,0.0,0.0,0.0,0.0,0.0,0.0,0.0,0.0,0.0,0.0,0.0,0.0,0.0,0.0,0.0,0.0,0.0,0.0,0.0,0.0,0.0,0.0,0.0,0.0,0.0,0.0,0.0,0.0,0.0,0.0,0.0,0.0,0.0,0.0,0.0,0.0,0.0,0.0,0.0,0.0,0.0,0.0,0.0,0.0,0.0,0.0,0.0,0.0,0.0,0.0,0.0,0.0,0.0,0.0,0.0,0.0,0.0,0.0,0.0,0.0,0.0,0.0,0.0,0.0,0.0,0.0,0.0,0.0,0.0,0.0,0.0,0.0,0.0,0.0,0.0,0.0,0.0,0.0,0.0,0.0,0.0,0.0,0.0,0.0,0.0,0.0,0.0,0.0,0.0,0.0,0.0,0.0,0.0,0.0,0.0,0.0,0.0,0.0,0.0,0.0,0.0,0.0,0.0,0.0,0.0,0.0,0.0,0.0,0.0,0.0,0.0,0.0,0.0,0.0,0.0,0.0,0.0,0.0,0.0,0.0,0.0,0.0,0.0,0.0,0.0,0.0,0.0,0.0,0.0,0.0,0.0,0.0,0.0,0.0,0.0,0.0,0.0,0.0,0.0,0.0,0.0,0.0,0.0,0.0,0.0,0.0,0.0,0.0,0.0,0.0,0.0,0.0,0.0,0.0,0.0,0.0,0.0,0.0,0.0,0.0,0.0,0.0,0.0,0.0,0.0,0.0,0.0,0.0,0.0,0.0,0.0,0.0,0.0,0.0,0.0,0.0,0.0,0.0,0.0,0.0,0.0,0.0,0.0,0.0,0.0,0.0,0.0,0.0,0.0,0.0,0.0,0.0,0.0,0.0,0.0,0.0,0.0,0.0,0.0,0.0,0.0,0.0,0.0,0.0,0.0,0.0,0.0,0.0,0.0,0.0,0.0,0.0,0.0,0.0,0.0,0.0,0.0,0.0,0.0,0.0,0.0,0.0,0.0,0.0,0.0,0.0,0.0,0.0,0.0,0.0,0.0,0.0,0.0,0.0,0.0,0.0,0.0,0.0,0.0,0.0,0.0,0.0,0.0,0.0,0.0,0.0,0.0,0.0,0.0,0.0,0.0,0.0,0.0,0.0,0.0,0.0,0.0,0.0,0.0,0.0,0.0,0.0,0.0,0.0,0.0,0.0,0.0,0.0,0.0,0.0,0.0,0.0,0.0,0.0,0.0,0.0,0.0,0.0,0.0,0.0,0.0,0.0,0.0,0.0,0.0,0.0,0.0,0.0,0.0,0.0,0.0,0.0,0.0,0.0,0.0,0.0,0.0,0.0,0.0,0.0,0.0,0.0,0.0,0.0,0.0,0.0,0.0,0.0,0.0,0.0,0.0,0.0,0.0,0.0,0.0,0.0,0.0,0.0,0.0,0.0,0.0,0.0,0.0,0.0,0.0,0.0,0.0,0.0,0.0,0.0,0.0,0.0,0.0,0.0,0.0,0.0,0.0,0.0,0.0,0.0,0.0,0.0,0.0,0.0,0.0,0.0,0.0,0.0,0.0,0.0,0.0,0.0,0.0,0.0,0.0,0.0,0.0,0.0,0.0,0.0,0.0,0.0,0.0,0.0,0.0,0.0,0.0,0.0,0.0,0.0,0.0,0.0,0.0,0.0,0.0,0.0,0.0,0.0,0.0,0.0,0.0,0.0,0.0,0.0,0.0,0.0,0.0,0.0,0.0,0.0,0.0,0.0,0.0,0.0,0.0,0.0,0.0,0.0,0.0,0.0,0.0,0.0,0.0,0.0,0.0,0.0,0.0,0.0,0.0,0.0,0.0,0.0,0.0,0.0,0.0,0.0,0.0,0.0,0.0,0.0,0.0,0.0,0.0,0.0,0.0,0.0,0.0,0.0,0.0,0.0,0.0,0.0,0.0,0.0,0.0,0.0,0.0,0.0,0.0,0.0,0.0,0.0,0.0,0.0,0.0,0.0,-0.1637,0.0,0.0,0.0,0.0,0.0,0.0,0.0,0.0,0.0,0.0,0.0,0.0,0.0,0.0,0.0,0.0,0.0,0.0,0.0,0.0,0.0,0.0,0.0,0.0,0.0,0.0,0.0,0.0,0.0,0.0,0.0,0.0,0.0,0.0,0.0,0.0,0.0,0.0,0.0,0.0,0.0,0.0,0.0,0.0,0.0,0.0,0.0,0.0,0.0,0.0,0.0,0.0,0.0,0.0,0.0,0.0,0.0,0.0,0.0,0.0,0.0,0.0,0.0,0.0,0.0,0.0,0.0,0.0,0.0,0.0,0.0,0.0,0.0,0.0,0.0,0.0,0.0,0.0,0.0,0.0,0.0,0.0,0.0,0.0,0.0,0.0,0.0,0.0,0.0,0.0,0.0,0.0,0.0,0.0,0.0,0.0,0.0,0.0,0.0,0.0,0.0,0.0,0.0,0.0,0.0,0.0,0.0,0.0,0.0,0.0,-0.3607,-0.316,-0.2409,-0.2042,-0.212,0.0,0.0,0.0,0.0,0.0,0.0,0.0,0.0,0.0,0.0,0.0,0.0,0.0,0.0,0.0,0.0,0.0,0.0,0.0,0.0,0.0,0.0,0.0,0.0,0.0,0.0,0.0,0.0,0.0,0.0,0.0,0.0,0.0,0.0,0.0,0.0,0.0,0.0,0.0,0.0,0.0,0.0,0.0,0.0,0.0,0.0,0.0,0.0,0.0,0.0,0.0,0.0,0.0,0.0,0.0,0.0,0.0,0.0,0.0,0.0,0.0,0.0,0.0,0.0,0.0,0.0,0.0,0.0,0.0,0.0,0.0,0.0,0.0,0.0,0.0,0.0,0.0,0.0,0.0,0.0,0.0,0.0,0.0,0.0,0.0,0.0,0.0,0.0,0.0,0.0,0.0,0.0,0.0,0.0,0.0,0.0,0.0,0.0,0.0,0.0,0.0,0.0,0.0,0.0,0.0,0.0,0.0,0.0,0.0,0.0,0.0,0.0,-0.302,-0.2717,-0.2506,0.0,0.0,0.0,0.0,0.0,0.0,0.0,0.0,0.0,0.0,0.0,0.0,0.0,0.0,0.0,0.0,0.0,0.0,0.0,0.0,0.0,0.0,0.0,0.0,0.0,0.0,0.0,0.0,0.0,0.0,0.0,0.0,0.0,0.0,0.0,0.0,0.0,0.0,0.0,0.0,0.0,0.0,0.0,0.0,0.0,0.0,0.0,0.0,0.0,0.0,0.0,0.0,0.0,0.0,0.0,0.0,0.0,0.0,0.0,0.0,0.0,0.0,0.0,0.0,0.0,0.0,0.0,0.0,0.0,0.0,0.0,0.0,0.0,0.0,0.0,0.0,0.0,0.0,0.0,0.0,0.0,0.0,0.0,0.0,0.0,0.0,0.0,0.0,0.0,0.0,0.0,0.0,0.0,0.0,0.0,0.0,0.0,0.0,0.0,0.0,0.0,0.0,0.0,0.0,0.0,0.0,0.0,0.0,0.0,0.0,-0.4464,-0.4192,-0.3747,0.0,-0.28,0.0,0.0,0.0,0.0,0.0,0.0,0.0,0.0,0.0,0.0,0.0,0.0,0.0,0.0,0.0,0.0,0.0,0.0,0.0,0.0,0.0,0.0,0.0,0.0,0.0,0.0,0.0,0.0,0.0,0.0,0.0,0.0,0.0,0.0,0.0,0.0,0.0,0.0,0.0,0.0,0.0,0.0,0.0,0.0,0.0,0.0,0.0,0.0,0.0,0.0,0.0,0.0,0.0,0.0,0.0,0.0,0.0,0.0,0.0,0.0,0.0,0.0,0.0,0.0,0.0,0.0,0.0,0.0,0.0,0.0,0.0,0.0,0.0,0.0,0.0,0.0,0.0,0.0,0.0,0.0,0.0,0.0,0.0,0.0,0.0,0.0,0.0,0.0,0.0,0.0,0.0,0.0,0.0,0.0,0.0,0.0,0.0,0.0,0.0,0.0,0.0,0.0,0.0,0.0,0.0,0.0,0.0,0.0,0.0,0.0,-0.5228,-0.4902,-0.447,-0.3875,0.0,0.0,0.0,0.0,0.0,0.0,0.0,0.0,0.0,0.0,0.0,0.0,0.0,0.0,0.0,0.0,0.0,0.0,0.0,0.0,0.0,0.0,0.0,0.0,0.0,0.0,0.0,0.0,0.0,0.0,0.0,0.0,0.0,0.0,0.0,0.0,0.0,0.0,0.0,0.0,0.0,0.0,0.0,0.0,0.0,0.0,0.0,0.0,0.0,0.0,0.0,0.0,0.0,0.0,0.0,0.0,0.0,0.0,0.0,0.0,0.0,0.0,0.0,0.0,0.0,0.0,0.0,0.0,0.0,0.0,0.0,0.0,0.0,0.0,0.0,0.0,0.0,0.0,0.0,0.0,0.0,0.0,0.0,0.0,0.0,0.0,0.0,0.0,0.0,0.0,0.0,0.0,0.0,0.0,0.0,0.0,0.0,0.0,0.0,0.0,0.0,0.0,0.0,0.0,0.0,0.0,0.0,0.0,0.0,0.0,-0.5638,0.0,-0.5494,-0.5116,-0.4477,-0.3495,0.0,0.0,0.0,0.0,0.0,0.0,0.0,0.0,0.0,0.0,0.0,0.0,0.0,0.0,0.0,0.0,0.0,0.0,0.0,0.0,0.0,0.0,0.0,0.0,0.0,0.0,0.0,0.0,0.0,0.0,0.0,0.0,0.0,0.0,0.0,0.0,0.0,0.0,0.0,0.0,0.0,0.0,0.0,0.0,0.0,0.0,0.0,0.0,0.0,0.0,0.0,0.0,0.0,0.0,0.0,0.0,0.0,0.0,0.0,0.0,0.0,0.0,0.0,0.0,0.0,0.0,0.0,0.0,0.0,0.0,0.0,0.0,0.0,0.0,0.0,0.0,0.0,0.0,0.0,0.0,0.0,0.0,0.0,0.0,0.0,0.0,0.0,0.0,0.0,0.0,0.0,0.0,0.0,0.0,0.0,0.0,0.0,0.0,0.0,0.0,0.0,0.0,0.0,0.0,0.0,0.0,0.0,0.0,0.0,-0.6091,-0.6104,-0.5966,-0.5647,-0.4957,0.0,0.0,0.0,0.0,0.0,0.0,0.0,0.0,0.0,0.0,0.0,0.0,0.0,0.0,0.0,0.0,0.0,0.0,0.0,0.0,0.0,0.0,0.0,0.0,0.0,0.0,0.0,0.0,0.0,0.0,0.0,0.0,0.0,0.0,0.0,0.0,0.0,0.0,0.0,0.0,0.0,0.0,0.0,0.0,0.0,0.0,0.0,0.0,0.0,0.0,0.0,0.0,0.0,0.0,0.0,0.0,0.0,0.0,0.0,0.0,0.0,0.0,0.0,0.0,0.0,0.0,0.0,0.0,0.0,0.0,0.0,0.0,0.0,0.0,0.0,0.0,0.0,0.0,0.0,0.0,0.0,0.0,0.0,0.0,0.0,0.0,0.0,0.0,0.0,0.0,0.0,0.0,0.0,0.0,0.0,0.0,0.0,0.0,0.0,0.0,0.0,0.0,0.0,0.0,0.0,0.0,0.0,0.0,0.0,-0.5478,-0.5786,-0.6049,-0.6201,-0.5596,-0.5031,0.0,0.0,0.0,0.0,0.0,0.0,0.0,0.0,0.0,0.0,0.0,0.0,0.0,0.0,0.0,0.0,0.0,0.0,0.0,0.0,0.0,0.0,0.0,0.0,0.0,0.0,0.0,0.0,0.0,0.0,0.0,0.0,0.0,0.0,0.0,0.0,0.0,0.0,0.0,0.0,0.0,0.0,0.0,0.0,0.0,0.0,0.0,0.0,0.0,0.0,0.0,0.0,0.0,0.0,0.0,0.0,0.0,0.0,0.0,0.0,0.0,0.0,0.0,0.0,0.0,0.0,0.0,0.0,0.0,0.0,0.0,0.0,0.0,0.0,0.0,0.0,0.0,0.0,0.0,0.0,0.0,0.0,0.0,0.0,0.0,0.0,0.0,0.0,0.0,0.0,0.0,0.0,0.0,0.0,0.0,0.0,0.0,0.0,0.0,0.0,0.0,0.0,0.0,0.0,0.0,0.0,0.0,0.0,0.0,-0.5522,0.0,-0.599,0.0,-0.573,-0.5191,0.0,0.0,0.0,0.0,0.0,0.0,0.0,0.0,0.0,0.0,0.0,0.0,0.0,0.0,0.0,0.0,0.0,0.0,0.0,0.0,0.0,0.0,0.0,0.0,0.0,0.0,0.0,0.0,0.0,0.0,0.0,0.0,0.0,0.0,0.0,0.0,0.0,0.0,0.0,0.0,0.0,0.0,0.0,0.0,0.0,0.0,0.0,0.0,0.0,0.0,0.0,0.0,0.0,0.0,0.0,0.0,0.0,0.0,0.0,0.0,0.0,0.0,0.0,0.0,0.0,0.0,0.0,0.0,0.0,0.0,0.0,0.0,0.0,0.0,0.0,0.0,0.0,0.0,0.0,0.0,0.0,0.0,0.0,0.0,0.0,0.0,0.0,0.0,0.0,0.0,0.0,0.0,0.0,0.0,0.0,0.0,0.0,0.0,0.0,0.0,0.0,0.0,0.0,0.0,0.0,0.0,0.0,0.0,-0.5588,-0.6156,-0.5991,-0.5994,-0.6198,-0.6041,-0.5477,0.0,0.0,0.0,0.0,0.0,0.0,0.0,0.0,0.0,0.0,0.0,0.0,0.0,0.0,0.0,0.0,0.0,0.0,0.0,0.0,0.0,0.0,0.0,0.0,0.0,0.0,0.0,0.0,0.0,0.0,0.0,0.0,0.0,0.0,0.0,0.0,0.0,0.0,0.0,0.0,0.0,0.0,0.0,0.0,0.0,0.0,0.0,0.0,0.0,0.0,0.0,0.0,0.0,0.0,0.0,0.0,0.0,0.0,0.0,0.0,0.0,0.0,0.0,0.0,0.0,0.0,0.0,0.0,0.0,0.0,0.0,0.0,0.0,0.0,0.0,0.0,0.0,0.0,0.0,0.0,0.0,0.0,0.0,0.0,0.0,0.0,0.0,0.0,0.0,0.0,0.0,0.0,0.0,0.0,0.0,0.0,0.0,0.0,0.0,0.0,0.0,0.0,0.0,0.0,0.0,0.0,0.0,0.0,0.0,-0.6182,-0.5717,-0.5851,-0.6556,-0.5728,-0.5229,0.0,0.0,0.0,0.0,0.0,0.0,0.0,0.0,0.0,0.0,0.0,0.0,0.0,0.0,0.0,0.0,0.0,0.0,0.0,0.0,0.0,0.0,0.0,0.0,0.0,0.0,0.0,0.0,0.0,0.0,0.0,0.0,0.0,0.0,0.0,0.0,0.0,0.0,0.0,0.0,0.0,0.0,0.0,0.0,0.0,0.0,0.0,0.0,0.0,0.0,0.0,0.0,0.0,0.0,0.0,0.0,0.0,0.0,0.0,0.0,0.0,0.0,0.0,0.0,0.0,0.0,0.0,0.0,0.0,0.0,0.0,0.0,0.0,0.0,0.0,0.0,0.0,0.0,0.0,0.0,0.0,0.0,0.0,0.0,0.0,0.0,0.0,0.0,0.0,0.0,0.0,0.0,0.0,0.0,0.0,0.0,0.0,0.0,0.0,0.0,0.0,0.0,0.0,0.0,0.0,0.0,0.0,0.0,0.0,-0.6637,-0.6004,-0.5925,-0.6551,-0.5878,-0.5452,-0.5271,0.0,0.0,0.0,0.0,0.0,0.0,0.0,0.0,0.0,0.0,0.0,0.0,0.0,0.0,0.0,0.0,0.0,0.0,0.0,0.0,0.0,0.0,0.0,0.0,0.0,0.0,0.0,0.0,0.0,0.0,0.0,0.0,0.0,0.0,0.0,0.0,0.0,0.0,0.0,0.0,0.0,0.0,0.0,0.0,0.0,0.0,0.0,0.0,0.0,0.0,0.0,0.0,0.0,0.0,0.0,0.0,0.0,0.0,0.0,0.0,0.0,0.0,0.0,0.0,0.0,0.0,0.0,0.0,0.0,0.0,0.0,0.0,0.0,0.0,0.0,0.0,0.0,0.0,0.0,0.0,0.0,0.0,0.0,0.0,0.0,0.0,0.0,0.0,0.0,0.0,0.0,0.0,0.0,0.0,0.0,0.0,0.0,0.0,0.0,0.0,0.0,0.0,0.0,0.0,0.0,0.0,0.0,0.0,-0.7576,-0.677,-0.6334,-0.6292,-0.6509,-0.6137,0.0,0.0,0.0,0.0,0.0,0.0,0.0,0.0,0.0,0.0,0.0,0.0,0.0,0.0,0.0,0.0,0.0,0.0,0.0,0.0,0.0,0.0,0.0,0.0,0.0,0.0,0.0,0.0,0.0,0.0,0.0,0.0,0.0,0.0,0.0,0.0,0.0,0.0,0.0,0.0,0.0,0.0,0.0,0.0,0.0,0.0,0.0,0.0,0.0,0.0,0.0,0.0,0.0,0.0,0.0,0.0,0.0,0.0,0.0,0.0,0.0,0.0,0.0,0.0,0.0,0.0,0.0,0.0,0.0,0.0,0.0,0.0,0.0,0.0,0.0,0.0,0.0,0.0,0.0,0.0,0.0,0.0,0.0,0.0,0.0,0.0,0.0,0.0,0.0,0.0,0.0,0.0,0.0,0.0,0.0,0.0,0.0,0.0,0.0,0.0,0.0,0.0,0.0,0.0,0.0,0.0,0.0,0.0,0.0,-0.8436,-0.8253,-0.7819,-0.7209,-0.7237,-0.673,0.0,0.0,0.0,0.0,0.0,0.0,0.0,0.0,0.0,0.0,0.0,0.0,0.0,0.0,0.0,0.0,0.0,0.0,0.0,0.0,0.0,0.0,0.0,0.0,0.0,0.0,0.0,0.0,0.0,0.0,0.0,0.0,0.0,0.0,0.0,0.0,0.0,0.0,0.0,0.0,0.0,0.0,0.0,0.0,0.0,0.0,0.0,0.0,0.0,0.0,0.0,0.0,0.0,0.0,0.0,0.0,0.0,0.0,0.0,0.0,0.0,0.0,0.0,0.0,0.0,0.0,0.0,0.0,0.0,0.0,0.0,0.0,0.0,0.0,0.0,0.0,0.0,0.0,0.0,0.0,0.0,0.0,0.0,0.0,0.0,0.0,0.0,0.0,0.0,0.0,0.0,0.0,0.0,0.0,0.0,0.0,0.0,0.0,0.0,0.0,0.0,0.0,0.0,0.0,0.0,0.0,0.0,0.0,-0.8971,-0.8794,-0.915,-0.8995,-0.8282,-0.7956,-0.7256,0.0,0.0,0.0,0.0,0.0,0.0,0.0,0.0,0.0,0.0,0.0,0.0,0.0,0.0,0.0,0.0,0.0,0.0,0.0,0.0,0.0,0.0,0.0,0.0,0.0,0.0,0.0,0.0,0.0,0.0,0.0,0.0,0.0,0.0,0.0,0.0,0.0,0.0,0.0,0.0,0.0,0.0,0.0,0.0,0.0,0.0,0.0,0.0,0.0,0.0,0.0,0.0,0.0,0.0,0.0,0.0,0.0,0.0,0.0,0.0,0.0,0.0,0.0,0.0,0.0,0.0,0.0,0.0,0.0,0.0,0.0,0.0,0.0,0.0,0.0,0.0,0.0,0.0,0.0,0.0,0.0,0.0,0.0,0.0,0.0,0.0,0.0,0.0,0.0,0.0,0.0,0.0,0.0,0.0,0.0,0.0,0.0,0.0,0.0,0.0,0.0,0.0,0.0,0.0,0.0,0.0,0.0,0.0,-0.9574,-0.9023,-0.9743,-0.9934,-0.9426,-0.8678,-0.7774,0.0,0.0,0.0,0.0,0.0,0.0,0.0,0.0,0.0,0.0,0.0,0.0,0.0,0.0,0.0,0.0,0.0,0.0,0.0,0.0,0.0,0.0,0.0,0.0,0.0,0.0,0.0,0.0,0.0,0.0,0.0,0.0,0.0,0.0,0.0,0.0,0.0,0.0,0.0,0.0,0.0,0.0,0.0,0.0,0.0,0.0,0.0,0.0,0.0,0.0,0.0,0.0,0.0,0.0,0.0,0.0,0.0,0.0,0.0,0.0,0.0,0.0,0.0,0.0,0.0,0.0,0.0,0.0,0.0,0.0,0.0,0.0,0.0,0.0,0.0,0.0,0.0,0.0,0.0,0.0,0.0,0.0,0.0,0.0,0.0,0.0,0.0,0.0,0.0,0.0,0.0,0.0,0.0,0.0,0.0,0.0,0.0,0.0,0.0,0.0,0.0,0.0,0.0,0.0,0.0,0.0,0.0,0.0,-1.02,-1.021,-1.0403,-1.0436,-1.0297,-0.9249,-0.8335,0.0,0.0,0.0,0.0,0.0,0.0,0.0,0.0,0.0,0.0,0.0,0.0,0.0,0.0,0.0,0.0,0.0,0.0,0.0,0.0,0.0,0.0,0.0,0.0,0.0,0.0,0.0,0.0,0.0,0.0,0.0,0.0,0.0,0.0,0.0,0.0,0.0,0.0,0.0,0.0,0.0,0.0,0.0,0.0,0.0,0.0,0.0,0.0,-0.3686,0.0,0.0,0.0,0.0,0.0,0.0,0.0,0.0,0.0,0.0,0.0,0.0,0.0,0.0,0.0,0.0,0.0,0.0,0.0,0.0,0.0,0.0,0.0,0.0,0.0,0.0,0.0,0.0,0.0,0.0,0.0,0.0,0.0,0.0,0.0,0.0,0.0,0.0,0.0,0.0,0.0,0.0,0.0,0.0,0.0,0.0,0.0,0.0,0.0,0.0,0.0,0.0,0.0,0.0,0.0,0.0,0.0,0.0,0.0,-1.0625,-1.0685,-1.0681,-1.0717,-1.0735,-0.9654,-0.8802,0.0,0.0,0.0,0.0,0.0,0.0,0.0,0.0,0.0,0.0,0.0,0.0,0.0,0.0,0.0,0.0,0.0,0.0,0.0,0.0,0.0,0.0,0.0,0.0,0.0,0.0,0.0,0.0,0.0,0.0,0.0,0.0,0.0,0.0,0.0,0.0,0.0,0.0,0.0,0.0,0.0,0.0,0.0,0.0,0.0,0.0,0.0,0.0,0.0,0.0,0.0,0.0,0.0,0.0,0.0,0.0,0.0,0.0,0.0,0.0,0.0,0.0,0.0,0.0,0.0,0.0,0.0,0.0,0.0,0.0,0.0,0.0,0.0,0.0,0.0,0.0,0.0,0.0,0.0,0.0,0.0,0.0,0.0,0.0,0.0,0.0,0.0,0.0,0.0,0.0,0.0,0.0,0.0,0.0,0.0,0.0,0.0,0.0,0.0,0.0,0.0,0.0,0.0,0.0,0.0,0.0,0.0,-1.0417,-1.0872,-1.0973,-1.0903,-1.0948,-1.1069,-1.002,-0.9246,-0.8838,0.0,0.0,0.0,0.0,0.0,0.0,0.0,0.0,0.0,0.0,0.0,0.0,0.0,0.0,0.0,0.0,0.0,0.0,0.0,0.0,0.0,0.0,0.0,0.0,0.0,0.0,0.0,0.0,0.0,0.0,0.0,0.0,0.0,0.0,0.0,0.0,0.0,0.0,-0.3581,-0.4185,0.0,0.0,0.0,0.0,0.0,0.0,0.0,0.0,-0.4543,0.0,0.0,0.0,0.0,0.0,0.0,0.0,0.0,0.0,0.0,0.0,0.0,0.0,0.0,0.0,0.0,0.0,0.0,0.0,0.0,0.0,0.0,0.0,0.0,0.0,0.0,0.0,0.0,0.0,0.0,0.0,0.0,0.0,0.0,0.0,0.0,0.0,0.0,0.0,0.0,0.0,0.0,0.0,0.0,0.0,0.0,0.0,0.0,0.0,0.0,0.0,0.0,0.0,0.0,0.0,0.0,-0.9841,-1.0226,-1.0856,-1.1753,-1.1412,-1.1327,-1.1553,-1.0548,-0.9695,-0.9096,0.0,0.0,0.0,0.0,0.0,0.0,0.0,0.0,0.0,0.0,0.0,0.0,0.0,0.0,0.0,0.0,0.0,0.0,0.0,0.0,0.0,0.0,0.0,0.0,0.0,0.0,0.0,0.0,0.0,0.0,0.0,0.0,0.0,0.0,0.0,0.0,0.0,0.0,0.0,-0.4447,-0.5086,0.0,0.0,0.0,0.0,0.0,0.0,0.0,0.0,-0.4786,0.0,0.0,0.0,0.0,0.0,0.0,0.0,0.0,0.0,0.0,0.0,0.0,0.0,0.0,0.0,0.0,0.0,0.0,0.0,0.0,0.0,0.0,0.0,0.0,0.0,0.0,0.0,0.0,0.0,0.0,0.0,0.0,0.0,0.0,0.0,0.0,0.0,0.0,0.0,0.0,0.0,0.0,0.0,0.0,0.0,0.0,0.0,0.0,0.0,0.0,0.0,0.0,0.0,0.0,0.0,-1.0046,-1.0442,-1.1046,-1.1893,-1.1769,-1.1452,-1.1013,-1.0187,-0.9419,0.0,0.0,0.0,0.0,0.0,0.0,0.0,0.0,0.0,0.0,0.0,0.0,0.0,0.0,0.0,0.0,0.0,0.0,0.0,0.0,0.0,0.0,0.0,0.0,0.0,0.0,0.0,0.0,0.0,0.0,0.0,0.0,0.0,0.0,0.0,0.0,0.0,0.0,0.0,0.0,-0.4947,-0.5437,-0.589,0.0,0.0,0.0,0.0,0.0,0.0,-0.6222,-0.6054,0.0,0.0,0.0,0.0,0.0,0.0,0.0,0.0,0.0,0.0,0.0,0.0,0.0,0.0,0.0,0.0,0.0,0.0,0.0,0.0,0.0,0.0,0.0,0.0,0.0,0.0,0.0,0.0,0.0,0.0,0.0,0.0,0.0,0.0,0.0,0.0,0.0,0.0,0.0,0.0,0.0,0.0,0.0,0.0,0.0,0.0,0.0,0.0,0.0,0.0,0.0,0.0,0.0,0.0,0.0,-1.0108,-1.0724,-1.136,-1.1995,-1.2073,-1.1586,-1.0544,-0.9822,-0.9088,0.0,0.0,0.0,0.0,0.0,0.0,0.0,0.0,0.0,0.0,0.0,0.0,0.0,0.0,0.0,0.0,0.0,0.0,0.0,0.0,0.0,0.0,0.0,0.0,0.0,0.0,0.0,0.0,0.0,0.0,0.0,0.0,0.0,0.0,0.0,0.0,0.0,0.0,0.0,0.0,0.0,-0.5925,-0.6085,-0.6435,0.0,0.0,0.0,0.0,-0.7769,-0.7458,0.0,0.0,0.0,0.0,0.0,0.0,0.0,0.0,0.0,0.0,0.0,0.0,0.0,0.0,0.0,0.0,0.0,0.0,0.0,0.0,0.0,0.0,0.0,0.0,0.0,0.0,0.0,0.0,0.0,0.0,0.0,0.0,0.0,0.0,0.0,0.0,0.0,0.0,0.0,0.0,0.0,0.0,0.0,0.0,0.0,0.0,0.0,0.0,0.0,0.0,0.0,0.0,0.0,0.0,0.0,0.0,-0.9677,-1.0894,-1.1806,-1.2388,-1.245,-1.197,-1.0964,-1.0111,-0.9108,0.0,0.0,0.0,0.0,0.0,0.0,0.0,0.0,0.0,0.0,0.0,0.0,0.0,0.0,0.0,0.0,0.0,0.0,0.0,0.0,0.0,0.0,0.0,0.0,0.0,0.0,0.0,0.0,0.0,0.0,0.0,0.0,0.0,0.0,0.0,0.0,0.0,0.0,0.0,0.0,0.0,-0.6633,-0.7442,-0.7211,-0.719,0.0,0.0,-0.7776,-0.7629,-0.7437,0.0,0.0,0.0,0.0,0.0,0.0,0.0,0.0,0.0,0.0,0.0,0.0,0.0,0.0,0.0,0.0,0.0,0.0,0.0,0.0,0.0,0.0,0.0,0.0,0.0,0.0,0.0,0.0,0.0,0.0,0.0,0.0,0.0,0.0,0.0,0.0,0.0,0.0,0.0,0.0,0.0,0.0,0.0,0.0,0.0,0.0,0.0,0.0,0.0,0.0,0.0,0.0,0.0,0.0,0.0,-0.8751,-0.9877,-1.1172,-1.1992,-1.2342,-1.2423,-1.1969,-1.0873,-0.95,-0.8534,0.0,0.0,0.0,0.0,0.0,0.0,0.0,0.0,0.0,0.0,0.0,0.0,0.0,0.0,0.0,0.0,0.0,0.0,0.0,0.0,0.0,0.0,0.0,0.0,0.0,0.0,0.0,0.0,0.0,0.0,0.0,0.0,0.0,0.0,0.0,0.0,0.0,0.0,0.0,0.0,0.0,0.0,-0.7269,-0.7398,0.0,0.0,0.0,-0.8721,-0.8724,0.0,0.0,0.0,0.0,0.0,0.0,0.0,0.0,0.0,0.0,0.0,0.0,0.0,0.0,0.0,0.0,0.0,0.0,0.0,0.0,0.0,0.0,0.0,0.0,0.0,0.0,0.0,0.0,0.0,0.0,0.0,0.0,0.0,0.0,0.0,0.0,0.0,0.0,0.0,0.0,0.0,0.0,0.0,0.0,0.0,0.0,0.0,0.0,0.0,0.0,0.0,0.0,0.0,0.0,0.0,0.0,0.0,-1.0214,-1.1471,-1.2214,-1.2396,-1.2431,-1.1832,-1.0551,-0.896,0.0,0.0,0.0,0.0,0.0,0.0,0.0,0.0,0.0,0.0,0.0,0.0,0.0,0.0,0.0,0.0,0.0,0.0,0.0,0.0,0.0,0.0,0.0,0.0,0.0,0.0,0.0,-0.3833,0.0,0.0,0.0,0.0,0.0,0.0,0.0,0.0,0.0,0.0,0.0,0.0,0.0,0.0,-0.7734,-0.7511,-0.7956,-0.8336,0.0,0.0,-0.9701,-0.9719,-0.9659,-0.9405,0.0,0.0,0.0,0.0,0.0,0.0,0.0,0.0,0.0,0.0,0.0,0.0,0.0,0.0,0.0,0.0,0.0,0.0,0.0,0.0,0.0,0.0,0.0,0.0,0.0,0.0,0.0,0.0,0.0,0.0,0.0,0.0,0.0,0.0,0.0,0.0,0.0,0.0,0.0,0.0,0.0,0.0,0.0,0.0,0.0,0.0,0.0,0.0,0.0,0.0,0.0,0.0,0.0,0.0,0.0,-1.0572,-1.1831,-1.2609,-1.2895,-1.2523,-1.1595,-1.0066,-0.8838,-0.7828,0.0,0.0,0.0,0.0,0.0,0.0,0.0,0.0,0.0,0.0,0.0,0.0,0.0,0.0,0.0,0.0,0.0,0.0,0.0,0.0,0.0,0.0,0.0,0.0,0.0,0.0,0.0,0.0,0.0,0.0,0.0,0.0,0.0,0.0,0.0,0.0,0.0,0.0,0.0,0.0,0.0,-0.893,-0.9036,-0.9239,-0.9515,0.0,0.0,-1.0419,-1.0111,-1.0068,-0.9829,-0.9241,0.0,0.0,0.0,0.0,0.0,0.0,0.0,0.0,0.0,0.0,0.0,0.0,0.0,0.0,0.0,0.0,0.0,0.0,0.0,0.0,0.0,0.0,0.0,0.0,0.0,0.0,0.0,0.0,0.0,0.0,0.0,0.0,0.0,0.0,0.0,0.0,0.0,0.0,0.0,0.0,0.0,0.0,0.0,0.0,0.0,0.0,0.0,0.0,0.0,0.0,0.0,0.0,0.0,-0.8904,-1.0328,-1.1111,-1.1639,-1.1879,-1.1395,-1.0796,-1.0072,-0.8571,-0.7618,0.0,0.0,0.0,0.0,0.0,0.0,0.0,0.0,0.0,0.0,0.0,0.0,0.0,0.0,0.0,0.0,0.0,0.0,0.0,0.0,0.0,0.0,0.0,0.0,0.0,0.0,0.0,0.0,-0.471,-0.4925,-0.537,0.0,0.0,0.0,0.0,0.0,0.0,0.0,0.0,0.0,0.0,-0.92,-0.948,-0.9719,0.0,0.0,-1.0348,-1.0654,-1.0448,-1.0404,-1.0177,-0.9548,-0.9214,0.0,0.0,0.0,0.0,0.0,0.0,0.0,0.0,0.0,0.0,0.0,0.0,0.0,0.0,0.0,0.0,0.0,0.0,0.0,0.0,0.0,0.0,0.0,0.0,0.0,0.0,0.0,0.0,0.0,0.0,0.0,0.0,0.0,0.0,0.0,0.0,0.0,0.0,0.0,0.0,0.0,0.0,0.0,0.0,0.0,0.0,0.0,0.0,0.0,0.0,0.0,0.0,-0.881,-1.0336,-1.089,-1.1303,-1.1618,-1.1233,-1.0772,-1.0211,-0.8707,-0.7729,0.0,0.0,0.0,0.0,0.0,0.0,0.0,0.0,0.0,0.0,0.0,0.0,0.0,0.0,0.0,0.0,0.0,0.0,0.0,0.0,0.0,0.0,0.0,0.0,0.0,0.0,0.0,0.0,-0.5254,-0.5539,-0.5913,0.0,0.0,0.0,0.0,0.0,0.0,0.0,0.0,0.0,0.0,-0.9778,-0.9995,-1.0485,-1.0718,-1.0519,-1.1122,-1.1501,-1.1189,-1.1069,-1.0761,-1.0094,0.0,0.0,0.0,0.0,0.0,0.0,0.0,0.0,0.0,0.0,0.0,0.0,0.0,0.0,0.0,0.0,0.0,0.0,0.0,0.0,0.0,0.0,0.0,0.0,0.0,0.0,0.0,-0.5184,0.0,0.0,-0.482,0.0,0.0,0.0,0.0,0.0,0.0,0.0,0.0,0.0,0.0,0.0,0.0,0.0,0.0,0.0,0.0,0.0,0.0,0.0,0.0,0.0,0.0,-0.916,-1.0665,-1.1362,-1.199,-1.2528,-1.2549,-1.1831,-1.0518,-0.9361,-0.8223,-0.702,0.0,0.0,0.0,0.0,0.0,0.0,0.0,0.0,0.0,0.0,0.0,0.0,0.0,0.0,0.0,0.0,0.0,0.0,0.0,0.0,0.0,0.0,0.0,0.0,0.0,0.0,-0.5289,-0.5883,-0.6268,0.0,0.0,0.0,0.0,0.0,0.0,0.0,0.0,0.0,0.0,-1.0292,-1.0772,-1.0763,-1.1738,-1.2296,-1.222,-1.2848,-1.3135,-1.2439,-1.2114,-1.1736,0.0,0.0,0.0,0.0,0.0,0.0,0.0,0.0,0.0,0.0,0.0,0.0,0.0,0.0,0.0,0.0,0.0,0.0,0.0,0.0,0.0,0.0,0.0,0.0,0.0,0.0,0.0,-0.5563,-0.5397,0.0,0.0,0.0,0.0,0.0,0.0,0.0,0.0,0.0,0.0,0.0,-0.7542,-0.8232,0.0,0.0,0.0,0.0,0.0,0.0,0.0,0.0,0.0,0.0,0.0,0.0,-0.9153,-1.0645,-1.1035,-1.1471,-1.1983,-1.175,-1.123,-1.0509,-0.9254,-0.773,-0.5942,0.0,0.0,0.0,0.0,0.0,0.0,0.0,0.0,0.0,0.0,0.0,0.0,0.0,0.0,0.0,0.0,0.0,0.0,0.0,0.0,0.0,0.0,0.0,0.0,0.0,-0.536,0.0,0.0,0.0,0.0,0.0,0.0,0.0,0.0,0.0,0.0,0.0,-1.0483,-1.1651,-1.1274,-1.1025,-1.1396,-1.1674,-1.1901,0.0,0.0,0.0,0.0,0.0,0.0,0.0,0.0,0.0,0.0,0.0,0.0,0.0,0.0,-1.0959,-0.9209,-0.8871,-0.8913,-0.9077,0.0,0.0,0.0,0.0,0.0,0.0,0.0,0.0,0.0,0.0,0.0,0.0,0.0,0.0,-0.6666,0.0,-0.6768,0.0,0.0,0.0,0.0,0.0,0.0,0.0,0.0,-0.8418,-0.8511,-0.8737,-0.9162,-0.9198,0.0,-0.9104,-0.8693,0.0,0.0,0.0,0.0,0.0,0.0,0.0,0.0,-0.9538,-1.0814,-1.1181,-1.1569,-1.1983,-1.1966,-1.1676,-1.1108,-0.9638,-0.8081,-0.6477,-0.6276,-0.6056,0.0,0.0,0.0,0.0,0.0,0.0,0.0,0.0,0.0,0.0,0.0,0.0,0.0,0.0,0.0,0.0,0.0,0.0,0.0,0.0,0.0,0.0,0.0,-0.6033,0.0,0.0,0.0,0.0,0.0,0.0,0.0,0.0,0.0,-1.2656,-1.1711,-1.1499,-1.3089,-1.2335,-1.1823,-1.2276,0.0,0.0,0.0,0.0,0.0,0.0,0.0,-1.1725,-1.1945,-1.1604,-1.1508,-1.2243,-1.2589,-1.2781,-1.2883,0.0,0.0,-1.0065,-0.988,-1.0037,-1.0095,-1.0349,-1.0686,-1.1073,-1.1051,-1.0866,0.0,0.0,0.0,0.0,0.0,0.0,0.0,0.0,-0.8167,-0.8622,0.0,-0.9084,0.0,0.0,0.0,0.0,0.0,-0.9613,0.0,0.0,-1.0135,-1.0219,-1.0258,-1.0017,-0.9696,-0.9292,-0.9696,-0.9496,-0.8734,-0.7815,0.0,0.0,0.0,0.0,0.0,0.0,-1.0295,-1.1245,-1.1847,-1.2334,-1.2586,-1.3119,-1.297,-1.2041,-1.0371,-0.9105,-0.8427,-0.7552,-0.7036,-0.6826,-0.6296,0.0,0.0,0.0,0.0,0.0,0.0,0.0,0.0,0.0,0.0,0.0,0.0,0.0,0.0,0.0,0.0,0.0,0.0,0.0,0.0,-0.6387,0.0,0.0,0.0,0.0,0.0,0.0,0.0,0.0,0.0,0.0,-1.2882,-1.2604,-1.2826,-1.3876,0.0,0.0,0.0,0.0,-1.3233,-1.3222,-1.3765,-1.4008,-1.3574,-1.3336,-1.3125,-1.2959,0.0,0.0,-1.2894,-1.2739,-1.268,-1.2879,-1.2776,-1.2365,-1.1738,-1.1966,-1.2182,-1.1678,-1.1744,-1.1887,-1.1714,-1.1548,-1.1204,-0.859,0.0,0.0,0.0,0.0,-0.852,-0.8663,-0.8734,-0.908,-0.9147,-0.9086,-0.9601,0.0,0.0,0.0,0.0,0.0,0.0,-0.9701,-1.0079,-1.0016,-1.0024,-1.0079,-1.0316,-1.0319,-1.019,-1.0202,-1.0051,-0.9799,-0.9047,-0.8409,-0.791,0.0,0.0,0.0,0.0,-1.0826,-1.2035,-1.2131,-1.2256,-1.2592,-1.2335,-1.1573,-1.0172,-0.9399,-0.8366,-0.7053,-0.6679,-0.6639,-0.6972,-0.6632,0.0,0.0,0.0,0.0,0.0,0.0,0.0,0.0,0.0,0.0,0.0,0.0,0.0,0.0,0.0,0.0,0.0,0.0,0.0,-0.6177,-0.7409,-0.8098,0.0,0.0,0.0,0.0,0.0,0.0,0.0,0.0,0.0,-1.4384,-1.4078,-1.3916,0.0,0.0,-1.4064,-1.3944,-1.3878,-1.378,-1.3579,-1.3815,0.0,-1.38,-1.3477,-1.3287,-1.3586,-1.3656,-1.3797,-1.4,-1.3955,-1.3881,-1.3724,-1.3601,-1.3353,-1.2758,-1.2328,-1.2108,-1.1921,-1.1951,-1.2261,-1.2909,-1.302,-1.2915,-0.9095,-0.844,-0.8932,-0.8955,-0.8752,-0.9423,-0.9725,-0.981,-1.0502,-1.089,-1.105,-1.1279,-1.1314,-1.1115,-1.0855,0.0,0.0,0.0,-1.118,-1.157,-1.1537,-1.1363,-1.1216,-1.128,-1.1112,-1.0767,-1.0632,-1.0525,-1.0423,-0.9986,-0.9419,-0.8819,0.0,0.0,-0.9821,-1.0488,-1.1211,-1.1957,-1.1962,-1.2052,-1.2224,-1.212,-1.1603,-1.0677,-1.0272,-0.9491,-0.8372,-0.7953,-0.7814,-0.7972,-0.766,-0.7455,0.0,0.0,0.0,0.0,0.0,0.0,0.0,0.0,0.0,0.0,0.0,-0.5636,0.0,0.0,0.0,0.0,-0.61,-0.6687,-0.716,-0.8222,0.0,0.0,0.0,0.0,0.0,0.0,0.0,-1.3046,-1.3948,-1.476,-1.5451,-1.5909,-1.6127,-1.6015,-1.5919,-1.5748,-1.5539,0.0,-1.4813,-1.4349,-1.4311,-1.424,-1.3934,-1.3631,-1.3549,-1.38,-1.3949,-1.4059,-1.4184,-1.423,-1.419,-1.407,-1.405,-1.3927,-1.3505,-1.3186,-1.29,-1.266,-1.2719,-1.3007,-1.3518,-1.3528,-1.3395,-1.0078,-1.0762,-1.0449,-0.9966,-0.9526,-1.0552,-1.1139,-1.144,-1.2157,-1.3207,-1.4319,-1.3633,-1.33,-1.3233,-1.2513,0.0,-1.2454,-1.3206,-1.3694,-1.4015,-1.3967,-1.364,-1.307,-1.2692,-1.2045,-1.1182,-1.1135,-1.0985,-1.0743,-1.0665,-1.0399,-0.9992,-1.0057,-1.0202,-1.0388,-1.1137,-1.1495,-1.1316,-1.1569,-1.1652,-1.1627,-1.2207,-1.2492,-1.2445,-1.2068,-1.1519,-1.1015,-1.0322,-0.9755,-0.9248,-0.8963,-0.8456,-0.7709,0.0,0.0,0.0,0.0,0.0,0.0,0.0,0.0,0.0,0.0,0.0,0.0,0.0,0.0,0.0,-0.7439,0.0,-0.8398,-0.8917,0.0,0.0,0.0,-1.0692,-1.1537,-1.2797,-1.3644,-1.3792,0.0,0.0,-1.6001,-1.766,-1.8689,-1.8039,-1.7917,-1.7822,-1.7644,-1.6884,-1.6158,-1.5381,-1.5296,-1.5009,-1.4456,-1.4177,-1.4098,-1.4022,-1.3926,-1.4008,-1.4008,-1.4001,-1.4019,-1.418,-1.4173,-1.4145,-1.4137,-1.4246,-1.432,-1.3669,-1.3784,-1.3877,-1.3745,-1.3458,-1.3202,-1.2032,-1.2204,-1.213,-1.1405,-1.0424,-1.1415,-1.1941,-1.208,-1.2924,-1.3346,-1.3436,-1.3952,-1.4088,-1.384,-1.3159,-1.3071,-1.3448,-1.3423,-1.3617,-1.4014,-1.4127,-1.4012,-1.3672,-1.3579,-1.3311,-1.2796,-1.2317,-1.2028,-1.1922,-1.1233,-1.0842,-1.0754,-1.1019,-1.0978,-1.0706,-1.1087,-1.1581,-1.2092,-1.173,-1.1396,-1.1091,-1.1333,-1.1212,-1.0725,-1.0453,-1.0017,-0.9394,-0.9053,-0.883,-0.8783,-0.8701,-0.8521,-0.822,-0.7572,0.0,0.0,0.0,0.0,0.0,0.0,0.0,0.0,0.0,-0.6997,-0.557,0.0,-0.7681,0.0,-0.779,-0.8376,-0.8673,-0.9676,0.0,0.0,-1.133,-1.2189,-1.2679,-1.2745,-1.3344,-1.4756,-1.5521,-1.5936,-1.5891,-1.7254,-1.7902,-1.6974,-1.7328,-1.7738,-1.7738,-1.7171,-1.6729,-1.6667,-1.6699,-1.6774,-1.6428,-1.6104,-1.5479,-1.4894,-1.4894,-1.5032,-1.4984,-1.5025,-1.4953,-1.4768,-1.4703,-1.4616,-1.4445,-1.4465,-1.4469,-1.4275,-1.4134,-1.4154,-1.4595,-1.4438,-1.4182,-1.229,-1.2684,-1.2684,-1.2533,-1.2292,-1.286,-1.3146,-1.3193,-1.4177,-1.4465,-1.4306,-1.4732,-1.475,-1.4496,-1.4108,-1.4084,-1.4325,-1.4334,-1.4495,-1.4771,-1.5064,-1.4983,-1.4571,-1.4577,-1.4068,-1.3145,-1.275,-1.2345,-1.1897,-1.1379,-1.1144,-1.1144,-1.1308,-1.1267,-1.1044,-1.122,-1.1407,-1.1588,-1.1594,-1.1623,-1.176,-1.1828,-1.1595,-1.1049,-1.0804,-1.0365,-0.9795,-0.942,-0.9241,-0.9249,-0.9005,-0.8835,-0.8725,-0.807,-0.7589,0.0,0.0,0.0,0.0,0.0,0.0,0.0,0.0,0.0,0.0,0.0,-0.8714,-0.8693,-0.8988,-0.9347,-0.982,-1.0546,-1.1035,-1.1064,-1.1907,-1.2596,-1.2912,-1.315,-1.3609,-1.4443,-1.5257,-1.576,-1.5819,-1.6826,-1.7355,-1.6749,-1.6824,-1.7208,-1.7837,-1.7678,-1.7451,-1.7309,-1.6904,-1.6501,-1.6124,-1.576,-1.5318,-1.479,-1.4755,-1.4846,-1.4846,-1.4797,-1.4782,-1.4696,-1.4694,-1.4645,-1.4474,-1.4512,-1.456,-1.4477,-1.4349,-1.4408,-1.4729,-1.459,-1.4344,-1.229,-1.3065,-1.3113,-1.3655,-1.449,-1.449,-1.4484,-1.4532,-1.5397,-1.5825,-1.5764,-1.5565,-1.5311,-1.5122,-1.5077,-1.5032,-1.4941,-1.5424,-1.5604,-1.5507,-1.5993,-1.589,-1.5318,-1.5311,-1.448,-1.2969,-1.2886,-1.2378,-1.1527,-1.1408,-1.1354,-1.1348,-1.1321,-1.1311,-1.1295,-1.1509,-1.1369,-1.0846,-1.1491,-1.2159,-1.2866,-1.2869,-1.2577,-1.2069,-1.1722,-1.1269,-1.0706,-1.0253,-0.9995,-0.9979,-0.9539,-0.9263,-0.9198,-0.8485,-0.8159,0.0,-0.7662,0.0,0.0,0.0,0.0,0.0,0.0,0.0,0.0,-0.9151,-1.0046,-1.0682,-1.0504,-1.0579,-1.1214,-1.1464,-1.1697,-1.1993,-1.2245,-1.2532,-1.2871,-1.3698,-1.4136,-1.3858,-1.5139,-1.593,-1.5718,-1.6314,-1.6805,-1.6566,-1.6294,-1.6549,-1.7694,-1.7861,-1.7632,-1.735,-1.6501,-1.576,-1.4977,-1.4685,-1.4573,-1.4292,-1.4292,-1.4215,-1.4341,-1.4341,-1.4377,-1.4524,-1.4587,-1.4545,-1.4517,-1.4636,-1.4678,-1.4518,-1.4523,-1.4593,-1.4542,-1.4352,-1.41,-1.5051,-1.5201,-1.5201,-1.5343,-1.5493,-1.5499,-1.5493,-1.554,-1.573,-1.5825,-1.5825,-1.5772,-1.5671,-1.5665,-1.5665,-1.5194,-1.4479,-1.5134,-1.504,-1.4283,-1.4986,-1.5145,-1.4792,-1.4739,-1.4448,-1.3828,-1.3282,-1.2954,-1.2772,-1.1987,-1.1634,-1.1628,-1.1402,-1.1311,-1.1348,0.0,0.0,0.0,-1.2307,-1.2735,-1.3393,-1.318,-1.2502,-1.1449,-1.0909,0.0,-0.907,-0.9372,-0.9506,-0.9322,-0.9706,0.0,0.0,0.0,0.0,0.0,0.0,0.0,0.0,0.0,0.0,0.0,-0.9816,-0.9789,-0.9092,-1.0079,-1.0812,-1.0934,-1.1323,-1.1618,-1.1732,-1.2221,-1.2549,-1.2616,-1.2891,-1.3107,-1.3434,-1.3642,-1.4029,-1.4973,-1.534,-1.5527,-1.5484,-1.5636,-1.5538,-1.5191,-1.5483,-1.6056,-1.6588,-1.6477,-1.6435,-1.6854,-1.6623,-1.6147,-1.5352,-1.5298,-1.5132,-1.4776,-1.479,-1.4929,-1.5069,-1.5097,-1.5138,-1.5173,-1.5208,-1.5124,-1.4999,-1.4999,-1.4915,-1.4699,-1.4643,-1.4641,-1.4588,-1.4478,-1.4377,-1.5267,0.0,-1.5115,-1.5356,0.0,-1.5825,-1.5825,-1.5784,-1.5255,-1.5064,-1.5112,-1.5588,-1.554,-1.5064,-1.5064,-1.4484,-1.3559,-1.4328,-1.4382,-1.395,-1.4723,-1.5022,-1.4841,-1.4841,-1.4509,-1.3832,-1.3516,-1.3084,-1.2592,-1.2106,-1.1811,-1.1698,-1.158,-1.1423,-1.1311,-1.1688,-1.2198,-1.2875,-1.2957,-1.2904,-1.2747,-1.2466,-1.175,-1.0514,-1.0145,0.0,0.0,0.0,0.0,0.0,0.0,0.0,0.0,0.0,0.0,-0.9666,-0.9806,-0.982,-0.9706,-1.0221,-1.0481,-1.0354,-1.1009,-1.1049,-1.0143,-1.0948,-1.1517,-1.1637,-1.208,-1.2402,-1.2525,-1.2806,-1.3026,-1.318,-1.3327,-1.3534,-1.376,-1.3861,-1.4142,-1.4775,-1.4965,-1.5014,-1.5182,-1.5196,-1.5078,-1.4791,-1.5126,-1.5483,-1.5646,-1.5872,-1.6084,-1.6026,-1.6111,-1.5905,-1.5361,-1.5375,-1.5361,-1.4979,-1.4955,-1.5042,-1.5156,-1.5071,-1.5041,-1.5048,-1.5048,-1.4999,-1.495,-1.4908,-1.4866,-1.4741,-1.4692,-1.4699,-1.4647,-1.4515,-1.4421,-1.5054,-1.5029,-1.4764,-1.514,-1.5905,-1.5804,-1.5689,-1.5493,0.0,0.0,0.0,-1.5445,-1.5255,-1.4346,-1.4298,-1.3613,-1.2538,-1.3323,-1.357,-1.3468,-1.4292,-1.4675,-1.4717,-1.4669,-1.4279,-1.3467,-1.3455,-1.3023,-1.2224,-1.2181,-1.2062,-1.1838,-1.1785,-1.1689,-1.1554,-1.1538,-1.2115,-1.3143,-1.3137,-1.2765,-1.204,-1.17,-1.1022,-0.9959,-0.9718,-0.9749,-1.0108,-0.9203,-0.9261,-1.0477,-0.9618,-0.9455,-1.0199,-1.0321,-1.0541,-1.0949,-1.1042,-1.1076,-1.1076,-1.1343,-1.145,-1.1309,-1.1964,-1.2051,-1.1283,-1.1764,-1.2204,-1.2445,-1.277,-1.3052,-1.326,-1.334,-1.346,-1.366,-1.368,-1.38,-1.4115,-1.4162,-1.4275,-1.4536,-1.464,-1.4683,-1.4993,-1.5026,-1.5035,-1.5075,-1.5127,-1.507,-1.5181,-1.5624,-1.5734,-1.5253,-1.5396,-1.5363,-1.5129,-1.5153,-1.5187,-1.5089,-1.5008,-1.501,-1.5005,-1.4955,-1.4916,-1.4951,-1.4902,-1.4902,-1.481,-1.4803,-1.4755,-1.4664,-1.4657,-1.4657,-1.4671,-1.4503,-1.4411,-1.639,-1.6414,-1.613,-1.6115,-1.6192,-1.5939,-1.5302,-1.458,-1.5255,-1.5588,-1.5588,-1.573,-1.5255,-1.4298,-1.4298,-1.327,-1.1517,-1.2457,-1.2414,-1.1634,-1.2657,-1.3098,-1.3147,-1.3098,-1.3033,-1.2909,-1.2904,-1.2845,-1.2694,-1.2463,-1.2344,-1.2285,-1.2148,-1.2186,-1.2484,-1.251,-1.2537,-1.254,-1.2149,-1.2163,-1.2578,-1.1731,-1.1141,-1.0897,-1.0226,-0.9844,-0.9857,-1.0009,-1.0194,-1.0439,-1.0778,-1.0989,-1.0889,-1.1102,-1.1136,-1.1022,-1.1223,-1.1329,-1.1342,-1.1643,-1.2047,-1.2489,-1.2656,-1.2563,-1.2178,-1.2672,-1.3046,-1.3086,-1.3293,-1.3493,-1.3553,-1.3801,-1.3948,-1.4015,-1.4021,-1.4135,-1.4422,-1.4462,-1.4576,-1.4863,-1.4897,-1.491,-1.5042,-1.5055,-1.5149,-1.5277,-1.5337,-1.5411,-1.5524,-1.5362,-1.517,-1.5053,-1.5053,-1.5053,-1.5075,-1.5022,-1.5152,-1.5239,-1.5263,-1.5304,-1.5424,-1.5569,-1.5593,-1.5504,-1.5556,-1.5486,-1.5037,-1.5017,-1.4928,-1.4614,-1.4503,-1.4531,-1.465,-1.4511,-1.4525,-1.6947,-1.6965,-1.6633,-1.6506,-1.6486,-1.6199,-1.5684,-1.5159,-1.5588,-1.5493,-1.501,-1.4968,-1.4436,-1.3414,-1.2877,-1.1809,-1.04,-1.1438,-1.1639,-1.1292,-1.2327,-1.2807,-1.2807,-1.2807,-1.2807,-1.2807,-1.2807,-1.2807,-1.2802,-1.2657,-1.2538,-1.2409,-1.2172,-1.2217,-1.2378,-1.2372,-1.2121,-1.1669,-1.17,-1.1752,-1.1912,-1.1158,-1.086,-1.1035,-1.0608,-1.0578,-1.0971,-1.0512,-1.0599,-1.139,-1.1061,-1.1052,-1.147,-1.159,-1.1677,-1.1703,-1.183,-1.1971,-1.2131,-1.2432,-1.2712,-1.3012,-1.314,-1.318,-1.3,-1.3247,-1.3407,-1.342,-1.3707,-1.3881,-1.3888,-1.4008,-1.4148,-1.4309,-1.4322,-1.4442,-1.4696,-1.4763,-1.4883,-1.5137,-1.5197,-1.5264,-1.5418,-1.5431,-1.5464,-1.5611,-1.5625,-1.5691,-1.5758,-1.5611,-1.5424,-1.5431,-1.5438,-1.5438,-1.5424,-1.5431,-1.5477,-1.5576,-1.5526,-1.5536,-1.5624,-1.576,-1.5723,-1.5613,-1.5709,-1.566,-1.5286,-1.5214,-1.5104,-1.4913,-1.4572,-1.4503,-1.4482,-1.4482,-1.4566,-1.6659,-1.6853,-1.626,-1.5992,-1.5922,-1.5711,-1.5554,-1.5501,-1.5255,-1.4833,-1.4352,-1.4298,-1.3703,-1.263,-1.1658,-1.0641,-0.9821,-1.0609,-1.1096,-1.1292,-1.2175,-1.2613,-1.2613,-1.2613,-1.2619,-1.2613,-1.2613,-1.2662,-1.2807,-1.2807,-1.2726,-1.249,-1.2348,-1.2235,-1.2175,-1.2037,-1.169,-1.1105,-1.118,-1.1207,-1.1149,-1.0592,-1.0621,-1.1319,-1.1221,-1.1537,-1.2255,-1.1346,-1.1324,-1.2373,-1.1557,-1.1386,-1.2151,-1.2208,-1.2271,-1.2478,-1.2505,-1.2605,-1.2871,-1.308,-1.324,-1.3307,-1.3473,-1.3626,-1.3693,-1.37,-1.37,-1.3726,-1.3941,-1.4075,-1.4082,-1.4155,-1.4275,-1.4452,-1.4546,-1.4743,-1.5003,-1.5109,-1.5177,-1.5438,-1.5491,-1.5585,-1.5765,-1.5825,-1.5812,-1.5798,-1.5825,-1.5825,-1.5825,-1.5825,-1.5825,-1.5825,-1.5825,-1.5798,-1.5825,-1.5805,-1.5798,-1.5825,-1.5732,-1.571,-1.5742,-1.5702,-1.5722,-1.569,-1.5715,-1.5687,-1.5597,-1.5468,-1.5302,-1.5205,-1.4895,-1.4624,-1.4542,-1.4579,-1.4664,-1.5068,-1.573,-1.4635,-1.3833,-1.3709,-1.3671,-1.4082,-1.4556,-1.3705,-1.3679,-1.4226,-1.4298,-1.3661,-1.263,-1.1609,-1.0542,-0.9673,-1.0216,-1.0757,-1.1198,-1.1785,-1.2078,-1.2073,-1.2078,-1.2078,-1.2078,-1.2078,-1.237,-1.2759,-1.2807,-1.2802,-1.278,-1.2753,-1.2576,-1.2356,-1.1858,-1.1505,-1.1232,-1.0239,-1.0042,-1.0603,-1.0188,-1.0773,-1.2492,-1.2284,-1.2564,-1.322,-1.3094,-1.2962,-1.308,-1.2935,-1.2922,-1.302,-1.3073,-1.3093,-1.3106,-1.312,-1.314,-1.3166,-1.3193,-1.334,-1.3533,-1.3593,-1.3726,-1.4008,-1.4041,-1.4041,-1.4055,-1.4075,-1.4108,-1.4102,-1.4322,-1.4502,-1.4596,-1.4783,-1.5082,-1.5291,-1.5357,-1.5471,-1.5752,-1.5711,-1.5758,-1.5818,-1.5825,-1.5825,-1.5825,-1.5825,-1.5825,-1.5825,-1.5825,-1.5825,-1.5825,-1.5825,-1.5825,-1.5825,-1.5825,-1.5825,-1.5825,-1.5812,-1.5799,-1.5812,-1.592,-1.6075,-1.5811,-1.596,-1.5911,-1.5616,-1.5501,-1.5561,-1.5328,-1.5198,-1.5086,-1.4934,-1.4914,-1.5021,-1.4406,-1.477,-1.419,-1.3804,-1.3559,-1.3543,-1.3661,-1.3746,-1.3252,-1.3188,-1.3384,-1.2802,-1.2193,-1.176,-1.0739,-1.0015,-0.9624,-1.0167,-1.0511,-1.0752,-1.1296,-1.1536,-1.1541,-1.1536,-1.1683,-1.198,-1.198,-1.2268,-1.2716,-1.2807,-1.2807,-1.2764,-1.2521,-1.227,-1.2143,-1.1656,-1.1106,-1.0613,-1.0104,-1.0044,-1.0371,-1.0614,-1.1365,-1.2522,-1.2602,-1.2373,-1.2217,-1.1999,-1.1864,-1.1811,-1.1664,-1.1822,-1.2359,-1.2359,-1.2598,-1.3141,-1.3333,-1.3427,-1.3427,-1.3627,-1.3781,-1.3901,-1.3908,-1.3968,-1.4082,-1.4242,-1.4342,-1.4342,-1.4349,-1.4342,-1.4369,-1.4603,-1.485,-1.501,-1.515,-1.5331,-1.5618,-1.5651,-1.5658,-1.5812,-1.5825,-1.5825,-1.5825,-1.5825,-1.5825,-1.5825,-1.5825,-1.5825,-1.5825,-1.5825,-1.5825,-1.5825,-1.5825,-1.5825,-1.5825,-1.5825,-1.5825,-1.5825,-1.5825,-1.5825,-1.5832,-1.5879,-1.592,-1.5825,-1.5927,-1.5947,-1.5678,-1.5537,-1.5482,-1.534,-1.5217,-1.5051,-1.4987,-1.4997,-1.5042,-1.3383,-1.3539,-1.3329,-1.3076,-1.2883,-1.2878,-1.2916,-1.2858,-1.2496,-1.2415,-1.2429,-1.1375,-1.0833,-1.0645,-0.992,-0.9624,-0.9677,-1.0019,-1.0269,-1.0413,-1.0801,-1.0949,-1.0998,-1.0998,-1.1194,-1.1487,-1.1536,-1.1883,-1.2516,-1.2764,-1.271,-1.2565,-1.2175,-1.1927,-1.1731,-1.1247,-1.0728,-1.0202,-1.0001,-1.0063,-1.0337,-1.084,-1.15,-1.2246,-1.2314,-1.2015,-1.1322,-1.1123,-1.1032,-1.0979,-1.0772,-1.0964,-1.1595,-1.1677,-1.2091,-1.2969,-1.3477,-1.3726,-1.3726,-1.3968,-1.4088,-1.4088,-1.4088,-1.4122,-1.4222,-1.4402,-1.4549,-1.4643,-1.471,-1.475,-1.4669,-1.491,-1.517,-1.5371,-1.5451,-1.5605,-1.5792,-1.5825,-1.5818,-1.5825,-1.5825,-1.5825,-1.5825,-1.5825,-1.5825,-1.5825,-1.5825,-1.5825,-1.5825,-1.5825,-1.5825,-1.5825,-1.5825,-1.5825,-1.5825,-1.5825,-1.5825,-1.5825,-1.5825,-1.5825,-1.5825,-1.5825,-1.5825,-1.5825,-1.5825,-1.5818,-1.5778,-1.5611,-1.5511,-1.5464,-1.5304,-1.5149,-1.5129,-1.512,-1.5061,-1.1446,-1.2254,-1.1341,-1.1008,-1.0891,-1.0941,-1.1328,-1.1986,-1.1026,-1.0884,-1.1332,-1.0474,-0.9879,-0.9727,-0.9673,-0.9624,-0.9624,-0.9677,-0.9924,-1.0314,-1.0408,-1.0413,-1.0413,-1.0413,-1.0462,-1.0605,-1.0659,-1.1096,-1.2029,-1.2521,-1.2516,-1.2029,-1.1927,-1.1683,-1.1243,-1.0708,-1.0408,-1.0266,-0.9784,-0.9814,-1.0513,-1.058,-1.079,-1.1239,-1.1375,-1.1295,-1.1192,-1.1268,-1.1219,-1.1219,-1.1101,-1.1187,-1.1278,-1.1316,-1.1775,-1.2687,-1.3571,-1.4055,-1.4055,-1.4075,-1.4095,-1.4102,-1.4122,-1.4208,-1.4476,-1.4563,-1.4703,-1.4968,-1.517,-1.5231,-1.5037,-1.5224,-1.5378,-1.5431,-1.5651,-1.5785,-1.5818,-1.5825,-1.5825,-1.5825,-1.5825,-1.5825,-1.5825,-1.5825,-1.5825,-1.5825,-1.5825,-1.5825,-1.5825,-1.5825,-1.5825,-1.5825,-1.5825,-1.5825,-1.5825,-1.5825,-1.5825,-1.5825,-1.5825,-1.5825,-1.5825,-1.5825,-1.5825,-1.5825,-1.5825,-1.5825,-1.5825,-1.5805,-1.5772,-1.5691,-1.5545,-1.5404,-1.5378,-1.5318,-1.5286,-1.0907,-1.1286,-1.0852,-1.0692,-1.0692,-1.0692,-1.087,-1.1125,-1.0638,-1.0452,-1.0531,-1.0141,-0.9786,-0.9624,-0.9624,-0.9624,-0.9624,-0.9624,-0.9727,-0.9871,-0.9871,-0.9871,-0.9871,-0.9871,-1.0068,-1.0364,-1.0413,-1.0757,-1.1394,-1.1688,-1.1688,-1.1438,-1.1145,-1.085,-1.0609,-1.0167,-0.9871,-0.9867,-0.9604,-0.9668,-0.984,-0.9811,-0.9839,-0.9908,-1.034,-1.025,-0.9602,-0.9559,-0.9563,-0.9602,-0.9559,-0.9816,-1.0376,-1.0982,-1.1714,-1.2577,-1.3003,-1.3483,-1.3997,-1.4088,-1.4168,-1.4349,-1.4362,-1.4489,-1.477,-1.497,-1.513,-1.5264,-1.5504,-1.5598,-1.5525,-1.5618,-1.5671,-1.5691,-1.5758,-1.5825,-1.5825,-1.5825,-1.5825,-1.5825,-1.5825,-1.5825,-1.5825,-1.5825,-1.5825,-1.5825,-1.5825,-1.5825,-1.5825,-1.5825,-1.5825,-1.5825,-1.5825,-1.5825,-1.5825,-1.5825,-1.5825,-1.5825,-1.5825,-1.5825,-1.5825,-1.5825,-1.5825,-1.5825,-1.5825,-1.5825,-1.5825,-1.5825,-1.5825,-1.5798,-1.5658,-1.5631,-1.5624,-1.555,-1.5489,-1.0692,-1.0692,-1.0692,-1.0692,-1.0692,-1.0692,-1.0692,-1.0676,-1.057,-1.0416,-1.0237,-1.0054,-0.9876,-0.9717,-0.9603,-0.9624,-0.9624,-0.9624,-0.9624,-0.9624,-0.9624,-0.9624,-0.9624,-0.9624,-0.9776,-1.0117,-1.0314,-1.0609,-1.09,-1.1096,-1.1096,-1.0953,-1.056,-1.031,-1.0117,-0.9776,-0.9624,-0.9624,-0.9624,-0.9563,-0.9453,-0.949,-0.936,-0.9284,-0.9701,-0.955,-0.8706,-0.8653,-0.8617,-0.8624,-0.8616,-0.8872,-0.9515,-1.0636,-1.158,-1.2186,-1.2839,-1.3442,-1.4081,-1.4229,-1.4355,-1.4629,-1.4669,-1.479,-1.5122,-1.5284,-1.5418,-1.5551,-1.5691,-1.5825,-1.5825,-1.5818,-1.5825,-1.5825,-1.5825,-1.5825,-1.5825,-1.5825,-1.5825,-1.5825,-1.5825,-1.5825,-1.5825,-1.5825,-1.5825,-1.5825,-1.5825,-1.5825,-1.5825,-1.5825,-1.5825,-1.5825,-1.5825,-1.5825,-1.5825,-1.5825,-1.5825,-1.5825,-1.5825,-1.5825,-1.5825,-1.5825,-1.5825,-1.5825,-1.5825,-1.5825,-1.5825,-1.5825,-1.5825,-1.5825,-1.5792,-1.5752,-1.5778,-1.5805,-1.5705,-1.0692,-1.0692,-1.0692,-1.0692,-1.0692,-1.0692,-1.0692,-1.0688,-1.068,-1.0566,-1.0387,-1.0237,-1.005,-0.9872,-0.9717,-0.9636,-0.9624,-0.9624,-0.9624,-0.9624,-0.9624,-0.9624,-0.9624,-0.9624,-0.9624,-0.9727,-1.0117,-1.0359,-1.0413,-1.0806,-1.0806,-1.0462,-1.0364,-1.0117,-0.9628,-0.9628,-0.9624,-0.9624,-0.9624,-0.9571,-0.9624,-0.9604,-0.9522,-0.9376,-0.9484,-0.9276,-0.8852,-0.8828,-0.8759,-0.8625,-0.8649,-0.862,-0.8966,-1.0222,-1.123,-1.1565,-1.2924,-1.3992,-1.4302,-1.4261,-1.4291,-1.4539,-1.4822,-1.4812,-1.5114,-1.5246,-1.5398,-1.5684,-1.5751,-1.5825,-1.5825,-1.5825,-1.5825,-1.5825,-1.5825,-1.5825,-1.5825,-1.5825,-1.5825,-1.5825,-1.5825,-1.5825,-1.5825,-1.5825,-1.5825,-1.5825,-1.5825,-1.5825,-1.5825,-1.5825,-1.5825,-1.5825,-1.5825,-1.5825,-1.5825,-1.5825,-1.5825,-1.5825,-1.5825,-1.5825,-1.5825,-1.5825,-1.5825,-1.5825,-1.5825,-1.5825,-1.5825,-1.5825,-1.5825,-1.5825,-1.5825,-1.5825,-1.5825,-1.5825,-1.5825,-1.0692,-1.0692,-1.0692,-1.0692,-1.0692,-1.0692,-1.0692,-1.0692,-1.0692,-1.0595,-1.0391,-1.0375,-1.0176,-0.9929,-0.9823,-0.9742,-0.9632,-0.9624,-0.9624,-0.9624,-0.9624,-0.9624,-0.9624,-0.9624,-0.9624,-0.9628,-0.9776,-0.9871,-0.9924,-1.0019,-0.9969,-0.9871,-0.9871,-0.9772,-0.9624,-0.9624,-0.9624,-0.9624,-0.9624,-0.9624,-0.9624,-0.9624,-0.9596,-0.9551,-0.9539,-0.9425,-0.9249,-0.9076,-0.8991,-0.8926,-0.8934,-0.8934,-0.9063,-0.9474,-1.0063,-1.0689,-1.1226,-1.1968,-1.2626,-1.2744,-1.2933,-1.3095,-1.32,-1.366,-1.4461,-1.4687,-1.501,-1.5629,-1.5825,-1.5825,-1.5825,-1.5825,-1.5825,-1.5825,-1.5825,-1.5825,-1.5825,-1.5825,-1.5825,-1.5825,-1.5825,-1.5825,-1.5825,-1.5825,-1.5825,-1.5825,-1.5825,-1.5825,-1.5825,-1.5825,-1.5825,-1.5825,-1.5825,-1.5825,-1.5825,-1.5825,-1.5825,-1.5825,-1.5825,-1.5825,-1.5825,-1.5825,-1.5825,-1.5825,-1.5825,-1.5825,-1.5825,-1.5825,-1.5825,-1.5825,-1.5825,-1.5825,-1.5825,-1.5825,-1.5825,-1.0637,-1.0692,-1.0692,-1.0692,-1.0692,-1.0692,-1.0692,-1.0692,-1.0692,-1.0631,-1.0534,-1.0461,-1.0261,-1.0095,-0.9953,-0.9827,-0.9721,-0.9611,-0.9624,-0.9624,-0.9624,-0.9624,-0.9624,-0.9624,-0.9624,-0.9624,-0.9624,-0.9624,-0.9624,-0.9624,-0.9624,-0.9624,-0.9624,-0.9624,-0.9624,-0.9624,-0.9624,-0.9624,-0.9624,-0.9624,-0.9624,-0.9624,-0.9624,-0.9624,-0.9624,-0.9567,-0.9453,-0.9348,-0.923,-0.9125,-0.9096,-0.9096,-0.9096,-0.9461,-0.9875,-1.0385,-1.0893,-1.1421,-1.1955,-1.2167,-1.217,-1.241,-1.2464,-1.2762,-1.3626,-1.3956,-1.4634,-1.5112,-1.5594,-1.5825,-1.5825,-1.5825,-1.5825,-1.5825,-1.5825,-1.5825,-1.5825,-1.5825,-1.5825,-1.5825,-1.5825,-1.5825,-1.5825,-1.5825,-1.5825,-1.5825,-1.5825,-1.5825,-1.5825,-1.5825,-1.5825,-1.5825,-1.5825,-1.5825,-1.5825,-1.5825,-1.5825,-1.5825,-1.5825,-1.5825,-1.5825,-1.5825,-1.5825,-1.5825,-1.5825,-1.5825,-1.5825,-1.5825,-1.5825,-1.5825,-1.5825,-1.5825,-1.5825,-1.5825,-1.5825,-1.0484,-1.0692,-1.0692,-1.0692,-1.0692,-1.0692,-1.0692,-1.0692,-1.0692,-1.0684,-1.0647,-1.0534,-1.0391,-1.0347,-1.0095,-0.9941,-0.9855,-0.973,-0.9648,-0.9632,-0.9624,-0.9624,-0.9624,-0.9624,-0.9624,-0.9624,-0.9624,-0.9624,-0.9624,-0.9624,-0.9624,-0.9624,-0.9624,-0.9624,-0.9624,-0.9624,-0.9624,-0.9624,-0.9624,-0.9624,-0.9624,-0.9624,-0.9624,-0.9624,-0.9624,-0.9571,-0.96,-0.9575,-0.9445,-0.9181,-0.9169,-0.9181,-0.9281,-0.9957,-1.0319,-1.0375,-1.1256,-1.1563,-1.1979,-1.1789,-1.1961,-1.2083,-1.2162,-1.2581,-1.2678,-1.327,-1.3854,-1.419,-1.5016,-1.5635,-1.5635,-1.5778,-1.5778,-1.5825,-1.5825,-1.5825,-1.5825,-1.5825,-1.5825,-1.5825,-1.5825,-1.5825,-1.5825,-1.5825,-1.5825,-1.5825,-1.5825,-1.5825,-1.5825,-1.5825,-1.5825,-1.5825,-1.5778,-1.5825,-1.5778,-1.5302,-1.5255,-1.5153,-1.5201,-1.5194,-1.5439,-1.554,-1.573,-1.573,-1.5493,-1.5588,-1.5778,-1.5778,-1.5778,-1.5825,-1.5825,-1.5825,-1.5778,-1.5778,-1.5778,-1.0762,-1.0696,-1.0692,-1.0692,-1.0692,-1.0692,-1.0692,-1.0692,-1.0692,-1.0692,-1.0676,-1.0647,-1.055,-1.0375,-1.0282,-1.0152,-0.9941,-0.9839,-0.9738,-0.964,-0.9624,-0.9624,-0.9624,-0.9624,-0.9624,-0.9624,-0.9624,-0.9624,-0.9624,-0.9624,-0.9624,-0.9624,-0.9624,-0.9624,-0.9624,-0.9624,-0.9624,-0.9624,-0.9624,-0.9624,-0.9624,-0.9624,-0.9624,-0.9624,-0.9624,-0.9624,-0.9624,-0.9624,-0.96,-0.951,-0.949,-0.949,-0.9466,-0.9753,-0.9885,-0.9982,-1.0092,-1.0259,-1.0352,-1.0418,-1.04,-1.0395,-1.065,-1.0792,-1.156,-1.1853,-1.2387,-1.3022,-1.4046,-1.4682,-1.4819,-1.535,-1.5683,-1.5825,-1.5825,-1.5825,-1.5825,-1.5825,-1.5825,-1.5825,-1.5825,-1.5825,-1.5825,-1.5825,-1.5825,-1.5825,-1.5825,-1.5825,-1.5825,-1.5825,-1.5825,-1.5784,-1.5784,-1.5778,-1.5635,-1.5016,-1.4634,-1.4436,-1.4334,-1.4226,-1.4621,-1.501,-1.5302,-1.5547,-1.4771,-1.4621,-1.5343,-1.573,-1.5778,-1.5343,-1.5439,-1.5296,-1.5635,-1.5778,-1.573,-1.0635,-1.0692,-1.0692,-1.0692,-1.0692,-1.0692,-1.0692,-1.0692,-1.0692,-1.0692,-1.0692,-1.0692,-1.0639,-1.0538,-1.0465,-1.0274,-1.0115,-0.9953,-0.9827,-0.9746,-0.9665,-0.9632,-0.9624,-0.9624,-0.9624,-0.9624,-0.9624,-0.9624,-0.9624,-0.9624,-0.9624,-0.9624,-0.9624,-0.9624,-0.9624,-0.9624,-0.9624,-0.9624,-0.9624,-0.9624,-0.9624,-0.9624,-0.9624,-0.9624,-0.9624,-0.9624,-0.9624,-0.9624,-0.9624,-0.9624,-0.9624,-0.9624,-0.9624,-0.9624,-0.9624,-0.9624,-0.9624,-0.962,-0.9624,-0.9624,-0.9624,-0.9628,-0.9624,-0.9867,-1.0498,-1.0886,-1.156,-1.2047,-1.3028,-1.3516,-1.3806,-1.458,-1.5302,-1.573,-1.5825,-1.5778,-1.5778,-1.5825,-1.5825,-1.5825,-1.5825,-1.5825,-1.5825,-1.5825,-1.5825,-1.5825,-1.5825,-1.5825,-1.5825,-1.5778,-1.573,-1.5642,-1.5302,-1.5057,-1.4717,-1.4142,-1.3559,-1.3366,-1.3221,-1.3119,-1.3409,-1.3944,-1.4184,-1.428,-1.3854,-1.3806,-1.443,-1.4711,-1.4274,-1.413,-1.4472,-1.4765,-1.4962,-1.5153,-1.5248,-1.032,-1.0692,-1.0692,-1.0692,-1.0692,-1.0692,-1.0692,-1.0692,-1.0692,-1.0692,-1.0692,-1.0692,-1.0684,-1.0684,-1.0542,-1.0448,-1.0396,-1.0119,-0.9949,-0.9835,-0.9717,-0.9628,-0.9624,-0.9624,-0.9624,-0.9624,-0.9624,-0.9624,-0.9624,-0.9624,-0.9624,-0.9624,-0.9624,-0.9624,-0.9624,-0.9624,-0.9624,-0.9624,-0.9624,-0.9624,-0.9624,-0.9624,-0.9624,-0.9624,-0.9624,-0.9624,-0.9579,-0.9579,-0.9529,-0.9529,-0.9575,-0.9624,-0.9624,-0.9624,-0.9624,-0.9624,-0.9628,-0.9579,-0.9579,-0.9529,-0.9525,-0.9476,-0.9525,-0.9579,-0.9821,-1.0404,-1.0886,-1.1033,-1.195,-1.2533,-1.2974,-1.3661,-1.434,-1.4956,-1.5296,-1.5439,-1.554,-1.5683,-1.5825,-1.5825,-1.5825,-1.5825,-1.5825,-1.5825,-1.5825,-1.5825,-1.5825,-1.5825,-1.5635,-1.5445,-1.5397,-1.535,-1.4819,-1.4142,-1.3703,-1.3221,-1.2635,-1.215,-1.2009,-1.1907,-1.2004,-1.2393,-1.2635,-1.2732,-1.278,-1.2877,-1.3119,-1.3113,-1.292,-1.3065,-1.3553,-1.3703,-1.3854,-1.404,-1.4136,-1.0646,-1.0692,-1.0692,-1.0692,-1.0692,-1.0692,-1.0692,-1.0692,-1.0692,-1.0692,-1.0692,-1.0692,-1.0692,-1.0692,-1.0635,-1.0566,-1.0399,-1.0306,-1.0176,-0.9868,-0.9705,-0.9632,-0.9624,-0.9624,-0.9624,-0.9624,-0.9624,-0.9624,-0.9624,-0.9624,-0.9624,-0.9624,-0.9624,-0.9624,-0.9624,-0.9624,-0.9624,-0.9624,-0.9624,-0.9624,-0.9624,-0.9624,-0.9579,-0.9579,-0.9579,-0.9575,-0.9529,-0.9381,-0.9286,-0.9335,-0.9484,-0.9525,-0.9575,-0.9628,-0.9579,-0.9579,-0.9579,-0.948,-0.9331,-0.9286,-0.9183,-0.9076,-0.9179,-0.9286,-0.9282,-0.9673,-0.9965,-1.0109,-1.0881,-1.1702,-1.2436,-1.2829,-1.3216,-1.3457,-1.3553,-1.3505,-1.365,-1.4765,-1.5486,-1.5635,-1.5635,-1.5778,-1.573,-1.5588,-1.5588,-1.573,-1.573,-1.5778,-1.5397,-1.4921,-1.4771,-1.4573,-1.38,-1.3071,-1.278,-1.2247,-1.1521,-1.113,-1.0988,-1.089,-1.0984,-1.113,-1.1517,-1.1809,-1.195,-1.2047,-1.2004,-1.2344,-1.2296,-1.249,-1.2538,-1.2684,-1.278,-1.2974,-1.3312,-1.0617,-1.07,-1.0692,-1.0692,-1.0692,-1.0692,-1.0692,-1.0692,-1.0692,-1.0692,-1.0692,-1.0692,-1.0692,-1.0692,-1.0688,-1.0635,-1.0526,-1.0363,-1.0152,-0.9892,-0.9713,-0.9628,-0.9624,-0.9624,-0.9624,-0.9624,-0.9624,-0.9624,-0.9624,-0.9624,-0.9624,-0.9624,-0.9624,-0.9624,-0.9624,-0.9624,-0.9624,-0.9624,-0.9624,-0.9624,-0.9624,-0.9624,-0.9529,-0.9381,-0.9327,-0.9225,-0.9179,-0.9126,-0.9031,-0.908,-0.9179,-0.9278,-0.9426,-0.9529,-0.9529,-0.9434,-0.943,-0.9282,-0.908,-0.9031,-0.8981,-0.8775,-0.8931,-0.8981,-0.9031,-0.9126,-0.9175,-0.932,-0.9805,-1.0485,-1.1458,-1.1609,-1.1755,-1.2247,-1.229,-1.2334,-1.2528,-1.3547,-1.4328,-1.4328,-1.4226,-1.4226,-1.4322,-1.4567,-1.4424,-1.4178,-1.413,-1.413,-1.4034,-1.3655,-1.3607,-1.3312,-1.2533,-1.1999,-1.176,-1.1228,-1.0453,-1.0212,-1.0113,-1.0064,-1.0113,-1.0355,-1.0596,-1.0792,-1.0984,-1.0743,-1.0792,-1.1233,-1.1424,-1.1086,-1.1082,-1.1468,-1.1755,-1.195,-1.2387,-1.0451,-1.0637,-1.0692,-1.0692,-1.0692,-1.0692,-1.0692,-1.0692,-1.0692,-1.0692,-1.0692,-1.0692,-1.0692,-1.0692,-1.0692,-1.0692,-1.0603,-1.0383,-1.0144,-1.0008,-0.9774,-0.9677,-0.9595,-0.9426,-0.9426,-0.9575,-0.9624,-0.9624,-0.9624,-0.9624,-0.9624,-0.9624,-0.9624,-0.9624,-0.9624,-0.9575,-0.9579,-0.9529,-0.948,-0.9476,-0.9426,-0.9426,-0.9331,-0.9183,-0.8977,-0.8874,-0.8874,-0.8775,-0.8726,-0.8726,-0.8726,-0.8878,-0.908,-0.9278,-0.9377,-0.9133,-0.9133,-0.9031,-0.8829,-0.873,-0.873,-0.8676,-0.8726,-0.873,-0.8779,-0.8825,-0.8874,-0.8874,-0.9069,-0.9312,-1.0047,-1.0243,-1.0583,-1.1068,-1.1365,-1.1409,-1.1507,-1.1853,-1.2096,-1.2727,-1.2969,-1.306,-1.3017,-1.3113,-1.2872,-1.2684,-1.263,-1.263,-1.2581,-1.2436,-1.2436,-1.2198,-1.1517,-1.1033,-1.0788,-1.0743,-0.992,-0.9723,-0.9624,-0.9624,-0.9624,-0.9821,-1.0064,-0.9871,-0.9916,-0.9871,-0.9916,-1.0212,-1.0162,-0.9624,-0.9821,-1.0453,-1.0739,-1.093,-1.1414,-1.0337,-1.0366,-1.0582,-1.0692,-1.0692,-1.0692,-1.0692,-1.0692,-1.0692,-1.0692,-1.0692,-1.0692,-1.0692,-1.0692,-1.0692,-1.0692,-1.0635,-1.0448,-1.0225,-1.0047,-0.9811,-0.967,-0.9267,-0.873,-0.8878,-0.9476,-0.9426,-0.9274,-0.9575,-0.9624,-0.9624,-0.9624,-0.9579,-0.9579,-0.9579,-0.9575,-0.943,-0.9286,-0.9232,-0.9179,-0.9076,-0.8973,-0.8928,-0.8878,-0.8726,-0.8726,-0.8676,-0.8581,-0.8482,-0.8482,-0.8428,-0.8482,-0.8581,-0.8829,-0.8874,-0.8878,-0.8878,-0.8779,-0.8531,-0.8482,-0.8333,-0.8233,-0.8333,-0.8432,-0.8531,-0.863,-0.8676,-0.8726,-0.8726,-0.8874,-0.9023,-0.9167,-0.9118,-0.9361,-0.9505,-0.946,-0.9505,-0.9702,-1.0342,-1.1312,-1.1702,-1.1896,-1.175,-1.1702,-1.1702,-1.1653,-1.1702,-1.175,-1.1804,-1.1609,-1.1365,-1.0984,-1.0502,-1.0113,-0.9821,-0.9916,-0.9673,-0.9673,-0.9624,-0.9624,-0.9624,-0.9624,-0.9624,-0.9624,-0.9624,-0.9673,-0.9673,-0.9624,-0.9624,-0.9624,-0.9628,-0.9677,-0.9965,-1.0301,-1.0158,-1.0205,-1.0315,-1.0582,-1.0692,-1.0692,-1.0692,-1.0692,-1.0692,-1.0692,-1.0692,-1.0692,-1.0692,-1.0692,-1.0692,-1.0692,-1.0692,-1.0647,-1.0513,-1.0117,-0.9723,-0.94,-0.8932,-0.8478,-0.7719,-0.7832,-0.8028,-0.7875,-0.8421,-0.9476,-0.9624,-0.9525,-0.9579,-0.9484,-0.9385,-0.9331,-0.9229,-0.913,-0.8981,-0.8981,-0.8931,-0.8775,-0.8676,-0.8577,-0.8577,-0.8478,-0.8382,-0.8382,-0.8283,-0.8187,-0.8187,-0.8187,-0.8187,-0.8237,-0.8333,-0.8478,-0.8577,-0.8577,-0.8482,-0.8233,-0.8187,-0.8137,-0.8038,-0.8137,-0.8184,-0.8237,-0.8287,-0.8432,-0.8382,-0.8382,-0.8382,-0.8432,-0.8432,-0.8382,-0.8386,-0.8432,-0.8432,-0.8382,-0.8382,-0.9118,-0.9998,-1.0043,-1.019,-1.0239,-1.0288,-1.0485,-1.0627,-1.0725,-1.0872,-1.097,-1.0681,-1.0293,-1.01,-0.9768,-0.9723,-0.948,-0.9529,-0.9575,-0.9624,-0.9579,-0.9579,-0.9624,-0.9624,-0.9624,-0.9624,-0.9624,-0.9624,-0.9624,-0.9624,-0.9624,-0.9624,-0.9628,-0.9628,-0.9628,-0.9624,-0.9624,-1.0025,-1.0147,-1.0476,-1.0582,-1.0641,-1.0692,-1.0692,-1.0692,-1.0692,-1.0692,-1.0692,-1.0692,-1.0692,-1.0692,-1.0692,-1.0688,-1.068,-1.0379,-0.9769,-0.9187,-0.8528,-0.792,-0.7229,-0.6532,-0.6372,-0.6788,-0.6084,-0.6625,-0.8223,-0.8524,-0.8775,-0.8825,-0.8829,-0.8783,-0.868,-0.8775,-0.8676,-0.8474,-0.8676,-0.8726,-0.8581,-0.8432,-0.8333,-0.8333,-0.8088,-0.8038,-0.8038,-0.8038,-0.8038,-0.8038,-0.8038,-0.7988,-0.7988,-0.7988,-0.8088,-0.8283,-0.8333,-0.8187,-0.8088,-0.8038,-0.8038,-0.7988,-0.7988,-0.7988,-0.8038,-0.8088,-0.8038,-0.7988,-0.8038,-0.8038,-0.8088,-0.8038,-0.8038,-0.8038,-0.8038,-0.8038,-0.8038,-0.8088,-0.8088,-0.8528,-0.8478,-0.8772,-0.9164,-0.9262,-0.9505,-0.9653,-0.9801,-0.9702,-0.9752,-0.9558,-0.9266,-0.9221,-0.913,-0.9282,-0.9286,-0.9381,-0.9476,-0.9575,-0.9529,-0.948,-0.9529,-0.9624,-0.9624,-0.9624,-0.9624,-0.9624,-0.9624,-0.9624,-0.9624,-0.9624,-0.9624,-0.9624,-0.9624,-0.9624,-0.9624,-0.9574,-0.9544,-1.0147,-1.0363,-1.0421,-1.0582,-1.0692,-1.0692,-1.0692,-1.0692,-1.0692,-1.0692,-1.0692,-1.0692,-1.0692,-1.0692,-1.0457,-0.9881,-0.9254,-0.8669,-0.766,-0.6884,-0.6443,-0.53,-0.5208,-0.5495,-0.4871,-0.5432,-0.6434,-0.6434,-0.6722,-0.7322,-0.7521,-0.7425,-0.7478,-0.7925,-0.8127,-0.7428,-0.7928,-0.8283,-0.8187,-0.8088,-0.8084,-0.8038,-0.8038,-0.7988,-0.7988,-0.7988,-0.7988,-0.7988,-0.7988,-0.7988,-0.7988,-0.7988,-0.7988,-0.8038,-0.8038,-0.8038,-0.7988,-0.7988,-0.7988,-0.7988,-0.7988,-0.7988,-0.7988,-0.7988,-0.7988,-0.7988,-0.7988,-0.7988,-0.7988,-0.7988,-0.7988,-0.7988,-0.7988,-0.7988,-0.7988,-0.7988,-0.7988,-0.7988,-0.8233,-0.8333,-0.8581,-0.8528,-0.8577,-0.8676,-0.8775,-0.8726,-0.8726,-0.863,-0.863,-0.863,-0.8779,-0.8935,-0.9034,-0.913,-0.9278,-0.9476,-0.943,-0.9381,-0.943,-0.9529,-0.9624,-0.9624,-0.9624,-0.9624,-0.9624,-0.9624,-0.9624,-0.9624,-0.9624,-0.9624,-0.9624,-0.9624,-0.9624,-0.8084,-0.9437,-1.0036,-1.0308,-1.0308,-1.0417,-1.0476,-1.0417,-1.0253,-1.0312,-1.0421,-1.0472,-1.0527,-1.0637,-1.0692,-1.0637,-1.0249,-0.9302,-0.8446,-0.7546,-0.6399,-0.5424,-0.4679,-0.3926,-0.3785,-0.3975,-0.3517,-0.3231,-0.4131,-0.5203,-0.5922,-0.6124,-0.6174,-0.6077,-0.6077,-0.6376,-0.6174,-0.6077,-0.6678,-0.7487,-0.7839,-0.7988,-0.7988,-0.7988,-0.7939,-0.7988,-0.7988,-0.7988,-0.7988,-0.7988,-0.7988,-0.7988,-0.7988,-0.7988,-0.7988,-0.7988,-0.7988,-0.7988,-0.7988,-0.7988,-0.7988,-0.7988,-0.7988,-0.7988,-0.7988,-0.7988,-0.7988,-0.7988,-0.7988,-0.7988,-0.7988,-0.7988,-0.7988,-0.7988,-0.7988,-0.7988,-0.7988,-0.7988,-0.7988,-0.7988,-0.7988,-0.8137,-0.8187,-0.8237,-0.8283,-0.8333,-0.8382,-0.8382,-0.8333,-0.8237,-0.8237,-0.8287,-0.8485,-0.8684,-0.873,-0.8829,-0.8928,-0.9126,-0.9282,-0.9232,-0.9331,-0.943,-0.9579,-0.9624,-0.9624,-0.9624,-0.9624,-0.9624,-0.9624,-0.9624,-0.9624,-0.9624,-0.9624,-0.9624,-0.9624,-0.6586,-0.8429,-0.8978,-0.9309,-0.9644,-0.9702,-0.9923,-1.0143,-0.9923,-0.9926,-1.0147,-1.0198,-1.0312,-1.0308,-1.0084,-0.9695,-0.953,-0.8251,-0.7196,-0.6058,-0.4976,-0.4016,-0.3445,-0.2761,-0.2573,-0.2944,-0.2369,-0.2194,-0.2753,-0.3654,-0.4482,-0.4981,-0.4776,-0.4728,-0.4726,-0.4974,-0.5024,-0.5125,-0.5677,-0.6331,-0.688,-0.708,-0.7285,-0.7437,-0.764,-0.7739,-0.7939,-0.7988,-0.7988,-0.7988,-0.7988,-0.7988,-0.7988,-0.7988,-0.7988,-0.7988,-0.7988,-0.7988,-0.7988,-0.7988,-0.7988,-0.7988,-0.7988,-0.7988,-0.7988,-0.7988,-0.7988,-0.7988,-0.7988,-0.7988,-0.7988,-0.7988,-0.7988,-0.7988,-0.7988,-0.7988,-0.7988,-0.7988,-0.7988,-0.7988,-0.7988,-0.7988,-0.8038,-0.8038,-0.8038,-0.7988,-0.7988,-0.7988,-0.7988,-0.8038,-0.8038,-0.8137,-0.8336,-0.8485,-0.8531,-0.8581,-0.8676,-0.8779,-0.8981,-0.9133,-0.9232,-0.943,-0.9579,-0.9624,-0.9575,-0.9624,-0.9624,-0.9624,-0.9624,-0.9624,-0.9624,-0.9624,-0.9624,-0.9624,-0.9624,-0.5472,-0.5693,-0.5975,-0.6813,-0.7814,-0.8088,-0.8754,-0.9478,-0.9592,-0.9592,-0.9651,-0.9816,-0.9757,-0.9647,-0.8975,-0.8416,-0.814,-0.6086,-0.5363,-0.4697,-0.3635,-0.3015,-0.2555,-0.2256,-0.1964,-0.2013,-0.177,-0.1756,-0.1805,-0.2216,-0.2846,-0.3189,-0.3446,-0.3381,-0.3577,-0.3982,-0.4375,-0.4526,-0.4876,-0.5027,-0.5275,-0.5425,-0.5727,-0.6334,-0.6587,-0.6936,-0.7889,-0.7839,-0.7939,-0.7939,-0.7988,-0.7988,-0.7988,-0.7988,-0.7988,-0.7988,-0.7988,-0.7988,-0.7988,-0.7988,-0.7988,-0.7988,-0.7988,-0.7988,-0.7988,-0.7988,-0.7988,-0.7988,-0.7988,-0.7988,-0.7988,-0.7988,-0.7988,-0.7988,-0.7988,-0.7988,-0.7988,-0.7988,-0.7988,-0.7988,-0.7988,-0.7988,-0.7988,-0.7988,-0.7988,-0.7988,-0.7988,-0.7988,-0.7988,-0.7988,-0.7988,-0.8088,-0.8237,-0.8333,-0.8382,-0.8432,-0.8432,-0.8577,-0.873,-0.8931,-0.9084,-0.9278,-0.9426,-0.9476,-0.9377,-0.9525,-0.9575,-0.9525,-0.9476,-0.9575,-0.9624,-0.9624,-0.9624,-0.9624,-0.9624,-0.3189,-0.3191,-0.3302,-0.4585,-0.648,-0.6589,-0.6922,-0.7254,-0.7196,-0.7642,-0.8481,-0.8644,-0.9089,-0.9203,-0.8589,-0.7922,-0.7421,-0.5359,-0.447,-0.3748,-0.2913,-0.2243,-0.2012,-0.2008,-0.1833,-0.1825,-0.1747,-0.1786,-0.1785,-0.1719,-0.1857,-0.2192,-0.2377,-0.2261,-0.251,-0.2838,-0.3226,-0.3725,-0.3925,-0.4074,-0.4774,-0.4824,-0.5024,-0.5327,-0.5429,-0.5982,-0.6786,-0.6986,-0.7388,-0.7789,-0.7939,-0.7939,-0.7988,-0.7988,-0.7988,-0.7988,-0.7988,-0.7988,-0.7988,-0.7988,-0.7988,-0.7988,-0.7988,-0.7988,-0.7988,-0.7988,-0.7988,-0.7988,-0.7988,-0.7988,-0.7988,-0.7988,-0.7988,-0.7988,-0.7988,-0.7988,-0.7988,-0.7988,-0.7988,-0.7988,-0.7988,-0.7988,-0.7988,-0.7988,-0.7988,-0.7988,-0.7988,-0.7988,-0.7988,-0.7988,-0.7988,-0.7988,-0.8137,-0.8187,-0.8184,-0.8184,-0.8184,-0.8333,-0.8482,-0.868,-0.8832,-0.8928,-0.9027,-0.9126,-0.9175,-0.9175,-0.9225,-0.9278,-0.9377,-0.948,-0.9579,-0.9624,-0.9624,-0.9624,-0.9624,-0.1795,-0.1795,-0.1795,-0.308,-0.5029,-0.514,-0.5363,-0.5641,-0.5584,-0.5917,-0.6977,-0.7196,-0.7642,-0.7977,-0.7196,-0.6531,-0.5697,-0.4303,-0.3467,-0.28,-0.2298,-0.1851,-0.1795,-0.1793,-0.179,-0.1789,-0.1778,-0.1818,-0.1817,-0.1741,-0.1789,-0.1832,-0.1756,-0.1791,-0.1756,-0.1684,-0.202,-0.2521,-0.2822,-0.3022,-0.3725,-0.3773,-0.4074,-0.4175,-0.4325,-0.4876,-0.5629,-0.5982,-0.6484,-0.7086,-0.7487,-0.7686,-0.7839,-0.7988,-0.7988,-0.7988,-0.7988,-0.7988,-0.7988,-0.7988,-0.7988,-0.7988,-0.7988,-0.7988,-0.7988,-0.7988,-0.7988,-0.7988,-0.7988,-0.7988,-0.7988,-0.7988,-0.7988,-0.7988,-0.7988,-0.7988,-0.7988,-0.7988,-0.7988,-0.7988,-0.7988,-0.7992,-0.7988,-0.7988,-0.7988,-0.7988,-0.7988,-0.7988,-0.7988,-0.7988,-0.7988,-0.7988,-0.8038,-0.8038,-0.7988,-0.8038,-0.8134,-0.8184,-0.8283,-0.8382,-0.8531,-0.863,-0.8775,-0.8928,-0.8928,-0.8825,-0.8878,-0.9027,-0.9229,-0.9381,-0.948,-0.9575,-0.9624,-0.9624,-0.9624,-0.1795,-0.1795,-0.1795,-0.2521,-0.3638,-0.3636,-0.4249,-0.4972,-0.5083,-0.525,-0.5472,-0.5528,-0.5639,-0.5584,-0.4972,-0.4472,-0.4081,-0.2799,-0.2074,-0.2018,-0.1962,-0.1795,-0.1795,-0.1795,-0.1795,-0.1795,-0.1789,-0.1786,-0.179,-0.178,-0.1782,-0.1774,-0.18,-0.1766,-0.1665,-0.1634,-0.1619,-0.1668,-0.1771,-0.1924,-0.2019,-0.217,-0.2622,-0.3024,-0.3224,-0.3775,-0.4576,-0.4828,-0.5379,-0.6232,-0.6434,-0.6833,-0.7637,-0.7736,-0.7836,-0.7988,-0.7988,-0.7988,-0.7988,-0.7988,-0.7988,-0.7988,-0.7988,-0.7988,-0.7988,-0.7988,-0.7988,-0.7988,-0.7988,-0.7988,-0.7988,-0.7988,-0.7988,-0.7988,-0.7988,-0.7988,-0.7988,-0.8092,-0.8106,-0.8113,-0.8022,-0.7992,-0.7992,-0.7988,-0.7988,-0.7988,-0.7988,-0.7988,-0.7988,-0.7988,-0.7988,-0.7988,-0.7988,-0.7988,-0.7988,-0.7988,-0.8038,-0.8088,-0.8134,-0.8233,-0.8333,-0.8482,-0.8581,-0.8726,-0.8627,-0.8531,-0.8627,-0.8775,-0.8977,-0.913,-0.9377,-0.9476,-0.9575,-0.9579,-0.9579,-0.1795,-0.1795,-0.1795,-0.2019,-0.2409,-0.2409,-0.2688,-0.2967,-0.3023,-0.3469,-0.4081,-0.4193,-0.4751,-0.4804,-0.4191,-0.3525,-0.3302,-0.2409,-0.1795,-0.1795,-0.1795,-0.1795,-0.1795,-0.1795,-0.1795,-0.1795,-0.1795,-0.1795,-0.1793,-0.1795,-0.1795,-0.1787,-0.1822,-0.1783,-0.1699,-0.1675,-0.1669,-0.1652,-0.1698,-0.1639,-0.157,-0.1618,-0.182,-0.2221,-0.222,-0.2722,-0.3624,-0.3725,-0.4277,-0.5177,-0.5329,-0.5879,-0.6734,-0.6936,-0.7285,-0.7736,-0.7988,-0.7988,-0.7988,-0.7988,-0.7988,-0.7988,-0.7988,-0.7988,-0.7988,-0.7988,-0.7988,-0.7998,-0.8012,-0.8008,-0.7988,-0.7995,-0.7995,-0.7988,-0.7988,-0.7988,-0.8008,-0.8157,-0.8211,-0.8214,-0.8194,-0.8052,-0.8015,-0.8002,-0.7998,-0.8022,-0.8032,-0.8002,-0.7992,-0.7988,-0.7988,-0.7988,-0.7988,-0.7988,-0.7995,-0.8035,-0.8085,-0.8079,-0.8058,-0.8038,-0.8187,-0.8283,-0.8283,-0.8333,-0.8283,-0.8283,-0.8382,-0.8482,-0.868,-0.8878,-0.9031,-0.9179,-0.9282,-0.9381,-0.9434,-0.1795,-0.1795,-0.1795,-0.1795,-0.1795,-0.1795,-0.1795,-0.1795,-0.1795,-0.2242,-0.2856,-0.3023,-0.3301,-0.3692,-0.3413,-0.2967,-0.2912,-0.2242,-0.1795,-0.1795,-0.1795,-0.1795,-0.1795,-0.1795,-0.1795,-0.1795,-0.1795,-0.1795,-0.1795,-0.1795,-0.1795,-0.1789,-0.1775,-0.176,-0.1735,-0.1718,-0.1693,-0.1678,-0.1674,-0.1663,-0.1644,-0.1633,-0.1628,-0.1671,-0.1717,-0.1969,-0.2472,-0.2823,-0.3124,-0.3925,-0.4375,-0.4776,-0.5479,-0.5982,-0.6384,-0.7086,-0.7839,-0.7889,-0.7988,-0.7988,-0.7988,-0.7988,-0.7988,-0.7988,-0.7988,-0.7988,-0.8085,-0.8106,-0.8059,-0.8103,-0.817,-0.8163,-0.8167,-0.817,-0.8174,-0.818,-0.8204,-0.8313,-0.8343,-0.8395,-0.8279,-0.8187,-0.8032,-0.8022,-0.8012,-0.8046,-0.8126,-0.8046,-0.8022,-0.8025,-0.8046,-0.8113,-0.8062,-0.8076,-0.8147,-0.8177,-0.8163,-0.8126,-0.8109,-0.8096,-0.8038,-0.8137,-0.8038,-0.7988,-0.8088,-0.8137,-0.8088,-0.8187,-0.8386,-0.8432,-0.8485,-0.8733,-0.8985,-0.9084,-0.9183,-0.1795,-0.1795,-0.1795,-0.1795,-0.1795,-0.1795,-0.1795,-0.1795,-0.1795,-0.1851,-0.1851,-0.1963,-0.2186,-0.1962,-0.1851,-0.1963,-0.2018,-0.1851,-0.1795,-0.1795,-0.1795,-0.1795,-0.1795,-0.1795,-0.1795,-0.1795,-0.1795,-0.1795,-0.1795,-0.1795,-0.1795,-0.1795,-0.179,-0.1782,-0.1766,-0.1746,-0.1718,-0.171,-0.1704,-0.169,-0.1669,-0.1714,-0.1653,-0.1642,-0.1635,-0.1686,-0.1887,-0.1933,-0.2383,-0.2832,-0.3176,-0.3825,-0.4375,-0.4724,-0.5429,-0.6384,-0.7441,-0.769,-0.7988,-0.7988,-0.7988,-0.7988,-0.7988,-0.7988,-0.7988,-0.7995,-0.8102,-0.818,-0.8225,-0.8333,-0.8404,-0.8411,-0.8418,-0.8418,-0.8421,-0.8425,-0.8431,-0.8469,-0.8482,-0.8452,-0.836,-0.8252,-0.8099,-0.8008,-0.814,-0.8184,-0.8225,-0.8235,-0.8208,-0.812,-0.8201,-0.8255,-0.8252,-0.8241,-0.8262,-0.8299,-0.8292,-0.8272,-0.8221,-0.8191,-0.8123,-0.8002,-0.7988,-0.7988,-0.7988,-0.7988,-0.8038,-0.8038,-0.8038,-0.8088,-0.8187,-0.8382,-0.8733,-0.8779,-0.8829,-0.1795,-0.1795,-0.1795,-0.1795,-0.1795,-0.1795,-0.1795,-0.1795,-0.1795,-0.1795,-0.1795,-0.1795,-0.1795,-0.1795,-0.1795,-0.1795,-0.1795,-0.1795,-0.1795,-0.1795,-0.1795,-0.1795,-0.1795,-0.1795,-0.1795,-0.1795,-0.1795,-0.1795,-0.1795,-0.1795,-0.1795,-0.1795,-0.1795,-0.1795,-0.1789,-0.1777,-0.1757,-0.1796,-0.1737,-0.1718,-0.1701,-0.1692,-0.1682,-0.1675,-0.1671,-0.1671,-0.1669,-0.1656,-0.201,-0.2108,-0.2133,-0.2624,-0.3524,-0.3725,-0.4277,-0.6187,-0.6789,-0.7089,-0.7789,-0.7988,-0.7939,-0.7892,-0.7945,-0.7988,-0.7988,-0.8022,-0.8083,-0.8238,-0.8385,-0.8428,-0.852,-0.8554,-0.8564,-0.8564,-0.8564,-0.8567,-0.8577,-0.8615,-0.8625,-0.8574,-0.8482,-0.8343,-0.8184,-0.8174,-0.8252,-0.8292,-0.8333,-0.836,-0.835,-0.8319,-0.833,-0.8387,-0.8381,-0.837,-0.8404,-0.8442,-0.8431,-0.8414,-0.837,-0.8361,-0.8228,-0.8157,-0.8025,-0.7988,-0.7988,-0.7988,-0.7988,-0.7988,-0.7988,-0.7988,-0.8088,-0.8233,-0.8382,-0.8482,-0.8531,-0.1795,-0.1795,-0.1795,-0.1795,-0.1795,-0.1795,-0.1795,-0.1795,-0.1795,-0.1795,-0.1795,-0.1795,-0.1795,-0.1795,-0.1795,-0.1795,-0.1795,-0.1795,-0.1795,-0.1795,-0.1795,-0.1795,-0.1795,-0.1795,-0.1795,-0.1795,-0.1795,-0.1795,-0.1795,-0.1795,-0.1795,-0.1795,-0.1795,-0.1795,-0.1793,-0.1789,-0.1784,-0.1773,-0.1818,-0.1802,-0.1733,-0.172,-0.1716,-0.1709,-0.1707,-0.1707,-0.1705,-0.1686,-0.1729,-0.1717,-0.1639,-0.1881,-0.2681,-0.2973,-0.3425,-0.5031,-0.5579,-0.5929,-0.6481,-0.7086,-0.7238,-0.7506,-0.7742,-0.8083,-0.814,-0.8163,-0.8248,-0.8343,-0.8425,-0.8506,-0.8594,-0.8669,-0.8669,-0.8672,-0.8672,-0.8672,-0.8713,-0.8757,-0.8737,-0.8699,-0.8594,-0.8459,-0.8377,-0.836,-0.8391,-0.8479,-0.855,-0.8598,-0.856,-0.8492,-0.8506,-0.855,-0.8523,-0.8496,-0.8547,-0.8594,-0.8581,-0.857,-0.8547,-0.8476,-0.8367,-0.8245,-0.815,-0.8035,-0.7988,-0.7988,-0.7988,-0.7988,-0.7988,-0.7988,-0.7988,-0.8088,-0.8187,-0.8187,-0.8287,-0.1795,-0.1795,-0.1795,-0.1795,-0.1795,-0.1795,-0.1795,-0.1795,-0.1795,-0.1795,-0.1795,-0.1795,-0.1795,-0.1795,-0.1795,-0.1795,-0.1795,-0.1795,-0.1795,-0.1795,-0.1795,-0.1795,-0.1795,-0.1795,-0.1795,-0.1795,-0.1795,-0.1795,-0.1795,-0.1795,-0.1795,-0.1795,-0.1795,-0.1795,-0.1795,-0.1795,-0.1791,-0.1789,-0.1785,-0.1776,-0.1816,-0.1804,-0.1741,-0.1721,-0.1717,-0.1716,-0.1715,-0.1706,-0.1696,-0.1731,-0.1714,-0.1703,-0.204,-0.2422,-0.2975,-0.3524,-0.4325,-0.4874,-0.5386,-0.5954,-0.6218,-0.6656,-0.7325,-0.7434,-0.7349,-0.8074,-0.836,-0.8472,-0.8564,-0.8665,-0.8757,-0.8801,-0.8811,-0.8811,-0.8811,-0.8811,-0.8832,-0.8845,-0.8804,-0.8757,-0.8676,-0.8547,-0.8459,-0.8438,-0.8516,-0.8638,-0.873,-0.8788,-0.8757,-0.8669,-0.8669,-0.8703,-0.8689,-0.8679,-0.874,-0.8774,-0.874,-0.8723,-0.8693,-0.8632,-0.8516,-0.8374,-0.8221,-0.8153,-0.8042,-0.8002,-0.7988,-0.7988,-0.7988,-0.7988,-0.7988,-0.7988,-0.8038,-0.8038,-0.8088,-0.1795,-0.1795,-0.1795,-0.1795,-0.1795,-0.1795,-0.1795,-0.1795,-0.1795,-0.1795,-0.1795,-0.1795,-0.1795,-0.1795,-0.1795,-0.1795,-0.1795,-0.1795,-0.1795,-0.1795,-0.1795,-0.1795,-0.1795,-0.1795,-0.1795,-0.1795,-0.1795,-0.1795,-0.1795,-0.1795,-0.1795,-0.1795,-0.1795,-0.1795,-0.1795,-0.1795,-0.1795,-0.1795,-0.1793,-0.1792,-0.1727,-0.1782,-0.1778,-0.1771,-0.1769,-0.1766,-0.1761,-0.1747,-0.1793,-0.1781,-0.1704,-0.1681,-0.1705,-0.1935,-0.2425,-0.3074,-0.3423,-0.3874,-0.444,-0.4875,-0.5165,-0.531,-0.562,-0.5668,-0.622,-0.7586,-0.8381,-0.8498,-0.8713,-0.8818,-0.8834,-0.8916,-0.8937,-0.8937,-0.8937,-0.8937,-0.8937,-0.8848,-0.8811,-0.875,-0.8737,-0.8659,-0.8567,-0.8577,-0.8652,-0.874,-0.8784,-0.8838,-0.8886,-0.8835,-0.8815,-0.8838,-0.8862,-0.8876,-0.8865,-0.8906,-0.8849,-0.8811,-0.8777,-0.872,-0.8655,-0.8499,-0.8336,-0.8228,-0.8153,-0.8102,-0.8008,-0.7988,-0.7988,-0.7988,-0.7988,-0.7988,-0.7988,-0.8038,-0.7988,-0.1795,-0.1795,-0.1795,-0.1795,-0.1795,-0.1795,-0.1795,-0.1795,-0.1795,-0.1795,-0.1795,-0.1795,-0.1795,-0.1795,-0.1795,-0.1795,-0.1795,-0.1795,-0.1795,-0.1795,-0.1795,-0.1795,-0.1795,-0.1795,-0.1795,-0.1795,-0.1795,-0.1795,-0.1739,-0.1795,-0.1795,-0.1795,-0.1795,-0.1795,-0.1795,-0.1795,-0.1795,-0.1795,-0.1795,-0.1683,-0.1627,-0.1683,-0.1795,-0.1795,-0.1795,-0.1795,-0.1791,-0.1776,-0.1819,-0.18,-0.1718,-0.169,-0.1717,-0.175,-0.1935,-0.2276,-0.2521,-0.2772,-0.3342,-0.3835,-0.414,-0.4172,-0.4778,-0.5149,-0.5332,-0.657,-0.7183,-0.7437,-0.8587,-0.8848,-0.8858,-0.8933,-0.8937,-0.8937,-0.8937,-0.8937,-0.8937,-0.8868,-0.8848,-0.8824,-0.8784,-0.8821,-0.8757,-0.876,-0.8767,-0.8825,-0.8868,-0.8875,-0.8881,-0.8937,-0.8937,-0.8937,-0.8937,-0.8937,-0.893,-0.893,-0.8916,-0.8886,-0.8852,-0.8788,-0.871,-0.8584,-0.8455,-0.8333,-0.8221,-0.8133,-0.8096,-0.8012,-0.7992,-0.7988,-0.7988,-0.7988,-0.7988,-0.7988,-0.7988,-0.1795,-0.1795,-0.1795,-0.1795,-0.1795,-0.1795,-0.1795,-0.1795,-0.1795,-0.1795,-0.1795,-0.1795,-0.1795,-0.1795,-0.1795,-0.1795,-0.1795,-0.1795,-0.1795,-0.1795,-0.1795,-0.1795,-0.1795,-0.1795,-0.1739,-0.1683,-0.1683,-0.1627,-0.157,-0.157,-0.157,-0.1683,-0.1683,-0.1683,-0.1683,-0.1683,-0.1627,-0.157,-0.1514,-0.1458,-0.1514,-0.1514,-0.1627,-0.1683,-0.1683,-0.1683,-0.1683,-0.1734,-0.1721,-0.1648,-0.1515,-0.1491,-0.1469,-0.1454,-0.1434,-0.1624,-0.1615,-0.1669,-0.1884,-0.2479,-0.2759,-0.321,-0.4152,-0.4535,-0.4551,-0.5,-0.5562,-0.6356,-0.7508,-0.8367,-0.8429,-0.8546,-0.8546,-0.8771,-0.8771,-0.8826,-0.8826,-0.8826,-0.8819,-0.8761,-0.8758,-0.8806,-0.8809,-0.8816,-0.8819,-0.8823,-0.8826,-0.8881,-0.8937,-0.8937,-0.8937,-0.8937,-0.8937,-0.8937,-0.8881,-0.8881,-0.8881,-0.893,-0.8889,-0.8835,-0.8771,-0.8665,-0.855,-0.8421,-0.8316,-0.8211,-0.8126,-0.8029,-0.8012,-0.7992,-0.7988,-0.7988,-0.7988,-0.7988,-0.7988,-0.1795,-0.1795,-0.1795,-0.1795,-0.1795,-0.1795,-0.1795,-0.1795,-0.1795,-0.1795,-0.1795,-0.1795,-0.1795,-0.1795,-0.1795,-0.1795,-0.1795,-0.1795,-0.1795,-0.1795,-0.1739,-0.1795,-0.1739,-0.1627,-0.1627,-0.1514,-0.1402,-0.129,-0.129,-0.1177,-0.1065,-0.1121,-0.1121,-0.1121,-0.1065,-0.1121,-0.1177,-0.1177,-0.1177,-0.1121,-0.1121,-0.1121,-0.1234,-0.1177,-0.1065,-0.1065,-0.1121,-0.129,-0.1231,-0.1167,-0.1098,-0.1134,-0.1115,-0.1099,-0.1083,-0.1068,-0.1063,-0.1071,-0.1339,-0.152,-0.18,-0.1719,-0.2358,-0.2219,-0.2501,-0.3,-0.3504,-0.3838,-0.5023,-0.642,-0.6758,-0.7204,-0.7374,-0.8097,-0.8377,-0.8432,-0.8432,-0.8432,-0.8432,-0.8429,-0.8429,-0.8426,-0.8426,-0.8429,-0.8429,-0.8432,-0.8377,-0.8377,-0.8266,-0.8491,-0.8712,-0.8602,-0.8488,-0.8881,-0.8881,-0.8881,-0.8881,-0.8881,-0.8933,-0.8889,-0.8835,-0.8764,-0.8652,-0.854,-0.8408,-0.8289,-0.8208,-0.8126,-0.8022,-0.8002,-0.7992,-0.7988,-0.7988,-0.7988,-0.7988]}]]